<?xml version='1.0' encoding='UTF-8'?><gpx version="1.1" creator="JPX - https://github.com/jenetics/jpx" xmlns="http://www.topografix.com/GPX/1/1"><trk><trkseg><trkpt lat="49.177865" lon="10.9239333"><ele>362.0</ele><time>2026-03-28T14:09:58.203Z</time></trkpt><trkpt lat="49.1779217" lon="10.92403"><ele>362.0</ele><time>2026-03-28T14:10:01.208Z</time></trkpt><trkpt lat="49.1779267" lon="10.92413"><ele>362.0</ele><time>2026-03-28T14:10:03.207Z</time></trkpt><trkpt lat="49.1779433" lon="10.9242367"><ele>362.0</ele><time>2026-03-28T14:10:05.212Z</time></trkpt><trkpt lat="49.1780117" lon="10.9243317"><ele>362.0</ele><time>2026-03-28T14:10:07.211Z</time></trkpt><trkpt lat="49.1781067" lon="10.924405"><ele>362.0</ele><time>2026-03-28T14:10:09.204Z</time></trkpt><trkpt lat="49.178175" lon="10.9245217"><ele>362.0</ele><time>2026-03-28T14:10:11.21Z</time></trkpt><trkpt lat="49.178185" lon="10.9247017"><ele>362.0</ele><time>2026-03-28T14:10:13.207Z</time></trkpt><trkpt lat="49.1781783" lon="10.9248083"><ele>362.0</ele><time>2026-03-28T14:10:14.214Z</time></trkpt><trkpt lat="49.1781683" lon="10.924915"><ele>362.0</ele><time>2026-03-28T14:10:15.211Z</time></trkpt><trkpt lat="49.1781517" lon="10.92503"><ele>362.0</ele><time>2026-03-28T14:10:16.202Z</time></trkpt><trkpt lat="49.17813" lon="10.9251517"><ele>362.0</ele><time>2026-03-28T14:10:17.204Z</time></trkpt><trkpt lat="49.1781117" lon="10.9252733"><ele>362.0</ele><time>2026-03-28T14:10:18.207Z</time></trkpt><trkpt lat="49.1780917" lon="10.9254033"><ele>362.0</ele><time>2026-03-28T14:10:19.211Z</time></trkpt><trkpt lat="49.17806" lon="10.9255317"><ele>362.0</ele><time>2026-03-28T14:10:20.215Z</time></trkpt><trkpt lat="49.17803" lon="10.9256583"><ele>362.0</ele><time>2026-03-28T14:10:21.213Z</time></trkpt><trkpt lat="49.1779933" lon="10.9257833"><ele>362.0</ele><time>2026-03-28T14:10:22.208Z</time></trkpt><trkpt lat="49.1779567" lon="10.9259117"><ele>362.0</ele><time>2026-03-28T14:10:23.211Z</time></trkpt><trkpt lat="49.17792" lon="10.9260367"><ele>361.83333333333337</ele><time>2026-03-28T14:10:24.216Z</time></trkpt><trkpt lat="49.177885" lon="10.9261583"><ele>361.6666666666667</ele><time>2026-03-28T14:10:25.23Z</time></trkpt><trkpt lat="49.177855" lon="10.9262783"><ele>361.5</ele><time>2026-03-28T14:10:26.202Z</time></trkpt><trkpt lat="49.1778267" lon="10.9264"><ele>361.3333333333333</ele><time>2026-03-28T14:10:27.21Z</time></trkpt><trkpt lat="49.177805" lon="10.9265283"><ele>361.16666666666663</ele><time>2026-03-28T14:10:28.211Z</time></trkpt><trkpt lat="49.1777917" lon="10.92666"><ele>361.0</ele><time>2026-03-28T14:10:29.206Z</time></trkpt><trkpt lat="49.177795" lon="10.9267933"><ele>361.0</ele><time>2026-03-28T14:10:30.209Z</time></trkpt><trkpt lat="49.1778017" lon="10.92693"><ele>361.0</ele><time>2026-03-28T14:10:31.214Z</time></trkpt><trkpt lat="49.17782" lon="10.9270683"><ele>361.0</ele><time>2026-03-28T14:10:32.205Z</time></trkpt><trkpt lat="49.17784" lon="10.9272067"><ele>361.0</ele><time>2026-03-28T14:10:33.212Z</time></trkpt><trkpt lat="49.1778667" lon="10.9273417"><ele>361.0</ele><time>2026-03-28T14:10:34.215Z</time></trkpt><trkpt lat="49.177895" lon="10.9274767"><ele>360.8</ele><time>2026-03-28T14:10:35.207Z</time></trkpt><trkpt lat="49.1779233" lon="10.9276117"><ele>360.6</ele><time>2026-03-28T14:10:36.205Z</time></trkpt><trkpt lat="49.1779617" lon="10.9277467"><ele>360.4</ele><time>2026-03-28T14:10:37.207Z</time></trkpt><trkpt lat="49.1780033" lon="10.92788"><ele>360.2</ele><time>2026-03-28T14:10:38.211Z</time></trkpt><trkpt lat="49.1780533" lon="10.92801"><ele>360.0</ele><time>2026-03-28T14:10:39.211Z</time></trkpt><trkpt lat="49.1781033" lon="10.9281417"><ele>360.0</ele><time>2026-03-28T14:10:40.211Z</time></trkpt><trkpt lat="49.1781533" lon="10.9282683"><ele>360.0</ele><time>2026-03-28T14:10:41.216Z</time></trkpt><trkpt lat="49.1781983" lon="10.92839"><ele>360.0</ele><time>2026-03-28T14:10:42.201Z</time></trkpt><trkpt lat="49.1782383" lon="10.928505"><ele>360.0</ele><time>2026-03-28T14:10:43.203Z</time></trkpt><trkpt lat="49.1782783" lon="10.9286117"><ele>360.0</ele><time>2026-03-28T14:10:44.206Z</time></trkpt><trkpt lat="49.17832" lon="10.9287017"><ele>360.0</ele><time>2026-03-28T14:10:45.207Z</time></trkpt><trkpt lat="49.17837" lon="10.9287617"><ele>360.1666666666667</ele><time>2026-03-28T14:10:46.208Z</time></trkpt><trkpt lat="49.1784883" lon="10.9288"><ele>360.3333333333333</ele><time>2026-03-28T14:10:48.198Z</time></trkpt><trkpt lat="49.1785517" lon="10.9287867"><ele>360.5</ele><time>2026-03-28T14:10:49.213Z</time></trkpt><trkpt lat="49.1786167" lon="10.9287517"><ele>360.66666666666663</ele><time>2026-03-28T14:10:50.209Z</time></trkpt><trkpt lat="49.1786817" lon="10.9287117"><ele>360.8333333333333</ele><time>2026-03-28T14:10:51.219Z</time></trkpt><trkpt lat="49.1787467" lon="10.9286767"><ele>361.0</ele><time>2026-03-28T14:10:52.207Z</time></trkpt><trkpt lat="49.178815" lon="10.9286483"><ele>361.0</ele><time>2026-03-28T14:10:53.215Z</time></trkpt><trkpt lat="49.1788833" lon="10.9286317"><ele>361.0</ele><time>2026-03-28T14:10:54.213Z</time></trkpt><trkpt lat="49.1789517" lon="10.9286267"><ele>361.0</ele><time>2026-03-28T14:10:55.203Z</time></trkpt><trkpt lat="49.1790217" lon="10.9286367"><ele>361.0</ele><time>2026-03-28T14:10:56.204Z</time></trkpt><trkpt lat="49.1790967" lon="10.9286567"><ele>361.0</ele><time>2026-03-28T14:10:57.211Z</time></trkpt><trkpt lat="49.1791683" lon="10.9287"><ele>361.0</ele><time>2026-03-28T14:10:58.211Z</time></trkpt><trkpt lat="49.1792283" lon="10.9287633"><ele>361.0</ele><time>2026-03-28T14:10:59.216Z</time></trkpt><trkpt lat="49.1792783" lon="10.928845"><ele>361.5</ele><time>2026-03-28T14:11:00.204Z</time></trkpt><trkpt lat="49.179325" lon="10.9289383"><ele>362.0</ele><time>2026-03-28T14:11:01.205Z</time></trkpt><trkpt lat="49.1793667" lon="10.9290383"><ele>362.5</ele><time>2026-03-28T14:11:02.203Z</time></trkpt><trkpt lat="49.1794083" lon="10.92914"><ele>363.0</ele><time>2026-03-28T14:11:03.212Z</time></trkpt><trkpt lat="49.1794517" lon="10.9292417"><ele>363.5</ele><time>2026-03-28T14:11:04.209Z</time></trkpt><trkpt lat="49.179495" lon="10.9293433"><ele>364.0</ele><time>2026-03-28T14:11:05.205Z</time></trkpt><trkpt lat="49.1795417" lon="10.9294433"><ele>364.0</ele><time>2026-03-28T14:11:06.202Z</time></trkpt><trkpt lat="49.179585" lon="10.929545"><ele>364.0</ele><time>2026-03-28T14:11:07.208Z</time></trkpt><trkpt lat="49.17962" lon="10.92966"><ele>364.0</ele><time>2026-03-28T14:11:08.206Z</time></trkpt><trkpt lat="49.1796367" lon="10.92978"><ele>364.0</ele><time>2026-03-28T14:11:09.21Z</time></trkpt><trkpt lat="49.17964" lon="10.9299017"><ele>364.0</ele><time>2026-03-28T14:11:10.206Z</time></trkpt><trkpt lat="49.1796417" lon="10.9300117"><ele>364.0</ele><time>2026-03-28T14:11:11.205Z</time></trkpt><trkpt lat="49.1796367" lon="10.93013"><ele>363.79999999999995</ele><time>2026-03-28T14:11:13.213Z</time></trkpt><trkpt lat="49.1795783" lon="10.9301767"><ele>363.59999999999997</ele><time>2026-03-28T14:11:18.198Z</time></trkpt><trkpt lat="49.1795267" lon="10.9302383"><ele>363.4</ele><time>2026-03-28T14:11:20.208Z</time></trkpt><trkpt lat="49.1794583" lon="10.930345"><ele>363.2</ele><time>2026-03-28T14:11:22.212Z</time></trkpt><trkpt lat="49.1793833" lon="10.9304783"><ele>363.0</ele><time>2026-03-28T14:11:24.222Z</time></trkpt><trkpt lat="49.1793067" lon="10.9306217"><ele>363.0</ele><time>2026-03-28T14:11:26.212Z</time></trkpt><trkpt lat="49.179235" lon="10.9307633"><ele>363.0</ele><time>2026-03-28T14:11:28.215Z</time></trkpt><trkpt lat="49.179175" lon="10.930915"><ele>363.0</ele><time>2026-03-28T14:11:30.209Z</time></trkpt><trkpt lat="49.179115" lon="10.93106"><ele>363.0</ele><time>2026-03-28T14:11:32.21Z</time></trkpt><trkpt lat="49.1790517" lon="10.931195"><ele>362.1666666666667</ele><time>2026-03-28T14:11:34.215Z</time></trkpt><trkpt lat="49.1789983" lon="10.9313183"><ele>361.3333333333333</ele><time>2026-03-28T14:11:36.211Z</time></trkpt><trkpt lat="49.1789517" lon="10.931415"><ele>360.5</ele><time>2026-03-28T14:11:38.214Z</time></trkpt><trkpt lat="49.1789033" lon="10.9315317"><ele>359.66666666666663</ele><time>2026-03-28T14:11:41.213Z</time></trkpt><trkpt lat="49.1788683" lon="10.9316383"><ele>358.8333333333333</ele><time>2026-03-28T14:11:44.213Z</time></trkpt><trkpt lat="49.17885" lon="10.9317383"><ele>358.0</ele><time>2026-03-28T14:11:47.206Z</time></trkpt><trkpt lat="49.1788367" lon="10.93188"><ele>358.0</ele><time>2026-03-28T14:11:57.206Z</time></trkpt><trkpt lat="49.1788467" lon="10.9320067"><ele>358.0</ele><time>2026-03-28T14:11:59.211Z</time></trkpt><trkpt lat="49.1788533" lon="10.9321583"><ele>358.0</ele><time>2026-03-28T14:12:01.209Z</time></trkpt><trkpt lat="49.178865" lon="10.9323267"><ele>358.0</ele><time>2026-03-28T14:12:03.214Z</time></trkpt><trkpt lat="49.1788817" lon="10.9325133"><ele>358.0</ele><time>2026-03-28T14:12:05.21Z</time></trkpt><trkpt lat="49.1788867" lon="10.9326133"><ele>358.00000000000006</ele><time>2026-03-28T14:12:06.208Z</time></trkpt><trkpt lat="49.17889" lon="10.9327217"><ele>358.0</ele><time>2026-03-28T14:12:07.211Z</time></trkpt><trkpt lat="49.178895" lon="10.9328333"><ele>358.0</ele><time>2026-03-28T14:12:08.212Z</time></trkpt><trkpt lat="49.1788983" lon="10.9329433"><ele>358.0</ele><time>2026-03-28T14:12:09.22Z</time></trkpt><trkpt lat="49.1789017" lon="10.93305"><ele>358.0</ele><time>2026-03-28T14:12:10.207Z</time></trkpt><trkpt lat="49.178905" lon="10.9331567"><ele>358.00000000000006</ele><time>2026-03-28T14:12:11.213Z</time></trkpt><trkpt lat="49.1789083" lon="10.933265"><ele>358.0</ele><time>2026-03-28T14:12:12.2Z</time></trkpt><trkpt lat="49.1789083" lon="10.9333767"><ele>358.00000000000006</ele><time>2026-03-28T14:12:13.214Z</time></trkpt><trkpt lat="49.1789133" lon="10.93349"><ele>358.0</ele><time>2026-03-28T14:12:14.215Z</time></trkpt><trkpt lat="49.17892" lon="10.9336033"><ele>358.0</ele><time>2026-03-28T14:12:15.207Z</time></trkpt><trkpt lat="49.1789267" lon="10.9337183"><ele>358.0</ele><time>2026-03-28T14:12:16.209Z</time></trkpt><trkpt lat="49.1789317" lon="10.93383"><ele>358.0</ele><time>2026-03-28T14:12:17.205Z</time></trkpt><trkpt lat="49.1789367" lon="10.9339433"><ele>358.00000000000006</ele><time>2026-03-28T14:12:18.22Z</time></trkpt><trkpt lat="49.1789433" lon="10.934055"><ele>358.0</ele><time>2026-03-28T14:12:19.213Z</time></trkpt><trkpt lat="49.1789483" lon="10.9341617"><ele>358.14285714285717</ele><time>2026-03-28T14:12:20.21Z</time></trkpt><trkpt lat="49.1789517" lon="10.93427"><ele>358.2857142857143</ele><time>2026-03-28T14:12:21.215Z</time></trkpt><trkpt lat="49.178955" lon="10.934375"><ele>358.42857142857144</ele><time>2026-03-28T14:12:22.212Z</time></trkpt><trkpt lat="49.1789617" lon="10.9344767"><ele>358.57142857142856</ele><time>2026-03-28T14:12:23.211Z</time></trkpt><trkpt lat="49.17897" lon="10.9345783"><ele>358.7142857142857</ele><time>2026-03-28T14:12:24.208Z</time></trkpt><trkpt lat="49.1789767" lon="10.9346833"><ele>358.8571428571429</ele><time>2026-03-28T14:12:25.212Z</time></trkpt><trkpt lat="49.178985" lon="10.9347833"><ele>359.0</ele><time>2026-03-28T14:12:26.211Z</time></trkpt><trkpt lat="49.1789967" lon="10.9349633"><ele>359.33333333333337</ele><time>2026-03-28T14:12:28.213Z</time></trkpt><trkpt lat="49.1789833" lon="10.9351383"><ele>359.6666666666667</ele><time>2026-03-28T14:12:30.201Z</time></trkpt><trkpt lat="49.1789567" lon="10.9353217"><ele>360.0</ele><time>2026-03-28T14:12:32.206Z</time></trkpt><trkpt lat="49.1789433" lon="10.9354183"><ele>360.3333333333333</ele><time>2026-03-28T14:12:33.206Z</time></trkpt><trkpt lat="49.17894" lon="10.935515"><ele>360.66666666666663</ele><time>2026-03-28T14:12:34.202Z</time></trkpt><trkpt lat="49.1789483" lon="10.9356167"><ele>361.0</ele><time>2026-03-28T14:12:35.211Z</time></trkpt><trkpt lat="49.1789683" lon="10.9357167"><ele>361.0</ele><time>2026-03-28T14:12:36.207Z</time></trkpt><trkpt lat="49.179" lon="10.9358183"><ele>361.0</ele><time>2026-03-28T14:12:37.215Z</time></trkpt><trkpt lat="49.179035" lon="10.9359267"><ele>361.0</ele><time>2026-03-28T14:12:38.209Z</time></trkpt><trkpt lat="49.1790733" lon="10.936045"><ele>361.0</ele><time>2026-03-28T14:12:39.209Z</time></trkpt><trkpt lat="49.1791083" lon="10.93617"><ele>361.0</ele><time>2026-03-28T14:12:40.214Z</time></trkpt><trkpt lat="49.179145" lon="10.9363117"><ele>361.0</ele><time>2026-03-28T14:12:41.206Z</time></trkpt><trkpt lat="49.1791867" lon="10.93647"><ele>362.8</ele><time>2026-03-28T14:12:42.214Z</time></trkpt><trkpt lat="49.17923" lon="10.9366217"><ele>364.6</ele><time>2026-03-28T14:12:43.198Z</time></trkpt><trkpt lat="49.1792733" lon="10.936755"><ele>366.4</ele><time>2026-03-28T14:12:44.201Z</time></trkpt><trkpt lat="49.1793133" lon="10.9368667"><ele>368.2</ele><time>2026-03-28T14:12:45.21Z</time></trkpt><trkpt lat="49.17935" lon="10.9369583"><ele>370.0</ele><time>2026-03-28T14:12:46.201Z</time></trkpt><trkpt lat="49.17942" lon="10.9371167"><ele>370.2</ele><time>2026-03-28T14:12:48.212Z</time></trkpt><trkpt lat="49.1794533" lon="10.93722"><ele>370.4</ele><time>2026-03-28T14:12:49.207Z</time></trkpt><trkpt lat="49.1794783" lon="10.9373567"><ele>370.6</ele><time>2026-03-28T14:12:50.21Z</time></trkpt><trkpt lat="49.179485" lon="10.9375417"><ele>370.8</ele><time>2026-03-28T14:12:51.216Z</time></trkpt><trkpt lat="49.1794933" lon="10.93775"><ele>371.0</ele><time>2026-03-28T14:12:52.206Z</time></trkpt><trkpt lat="49.1795117" lon="10.9379733"><ele>371.0</ele><time>2026-03-28T14:12:53.21Z</time></trkpt><trkpt lat="49.1795333" lon="10.9382133"><ele>371.0</ele><time>2026-03-28T14:12:54.211Z</time></trkpt><trkpt lat="49.179555" lon="10.9384683"><ele>371.0</ele><time>2026-03-28T14:12:55.209Z</time></trkpt><trkpt lat="49.1795767" lon="10.9387083"><ele>371.0</ele><time>2026-03-28T14:12:56.204Z</time></trkpt><trkpt lat="49.179595" lon="10.93894"><ele>371.0</ele><time>2026-03-28T14:12:57.205Z</time></trkpt><trkpt lat="49.1796067" lon="10.9391667"><ele>371.0</ele><time>2026-03-28T14:12:58.203Z</time></trkpt><trkpt lat="49.1796117" lon="10.9393933"><ele>371.0</ele><time>2026-03-28T14:12:59.208Z</time></trkpt><trkpt lat="49.1796117" lon="10.9396183"><ele>371.25</ele><time>2026-03-28T14:13:00.216Z</time></trkpt><trkpt lat="49.1796083" lon="10.93984"><ele>371.5</ele><time>2026-03-28T14:13:01.202Z</time></trkpt><trkpt lat="49.1796033" lon="10.9400633"><ele>371.75</ele><time>2026-03-28T14:13:02.205Z</time></trkpt><trkpt lat="49.1795967" lon="10.9402883"><ele>372.0</ele><time>2026-03-28T14:13:03.214Z</time></trkpt><trkpt lat="49.1795933" lon="10.9405133"><ele>372.0</ele><time>2026-03-28T14:13:04.214Z</time></trkpt><trkpt lat="49.17959" lon="10.94073"><ele>372.0</ele><time>2026-03-28T14:13:05.21Z</time></trkpt><trkpt lat="49.17959" lon="10.94094"><ele>372.0</ele><time>2026-03-28T14:13:06.212Z</time></trkpt><trkpt lat="49.1795967" lon="10.9411433"><ele>372.0</ele><time>2026-03-28T14:13:07.213Z</time></trkpt><trkpt lat="49.1796017" lon="10.9413417"><ele>372.25</ele><time>2026-03-28T14:13:08.201Z</time></trkpt><trkpt lat="49.1796067" lon="10.941535"><ele>372.5</ele><time>2026-03-28T14:13:09.212Z</time></trkpt><trkpt lat="49.1796067" lon="10.9417283"><ele>372.75</ele><time>2026-03-28T14:13:10.209Z</time></trkpt><trkpt lat="49.17961" lon="10.9419233"><ele>373.0</ele><time>2026-03-28T14:13:11.21Z</time></trkpt><trkpt lat="49.1796117" lon="10.9421233"><ele>373.0</ele><time>2026-03-28T14:13:12.215Z</time></trkpt><trkpt lat="49.179615" lon="10.9423233"><ele>373.0</ele><time>2026-03-28T14:13:13.209Z</time></trkpt><trkpt lat="49.1796233" lon="10.94253"><ele>373.0</ele><time>2026-03-28T14:13:14.218Z</time></trkpt><trkpt lat="49.1796333" lon="10.9427417"><ele>373.0</ele><time>2026-03-28T14:13:15.216Z</time></trkpt><trkpt lat="49.1796417" lon="10.9429583"><ele>374.0</ele><time>2026-03-28T14:13:16.209Z</time></trkpt><trkpt lat="49.17965" lon="10.94318"><ele>375.0</ele><time>2026-03-28T14:13:17.227Z</time></trkpt><trkpt lat="49.17966" lon="10.9434083"><ele>376.0</ele><time>2026-03-28T14:13:18.204Z</time></trkpt><trkpt lat="49.1796733" lon="10.9436417"><ele>377.0</ele><time>2026-03-28T14:13:19.214Z</time></trkpt><trkpt lat="49.1796883" lon="10.94388"><ele>378.0</ele><time>2026-03-28T14:13:20.211Z</time></trkpt><trkpt lat="49.1797033" lon="10.94412"><ele>379.0</ele><time>2026-03-28T14:13:21.213Z</time></trkpt><trkpt lat="49.1797133" lon="10.9443633"><ele>380.0</ele><time>2026-03-28T14:13:22.2Z</time></trkpt><trkpt lat="49.1797283" lon="10.9446117"><ele>380.33333333333337</ele><time>2026-03-28T14:13:23.212Z</time></trkpt><trkpt lat="49.1797417" lon="10.9448633"><ele>380.6666666666667</ele><time>2026-03-28T14:13:24.21Z</time></trkpt><trkpt lat="49.17976" lon="10.9451117"><ele>381.0</ele><time>2026-03-28T14:13:25.212Z</time></trkpt><trkpt lat="49.1797783" lon="10.94536"><ele>379.6666666666667</ele><time>2026-03-28T14:13:26.214Z</time></trkpt><trkpt lat="49.1797933" lon="10.9456117"><ele>378.33333333333337</ele><time>2026-03-28T14:13:27.215Z</time></trkpt><trkpt lat="49.1798" lon="10.9458633"><ele>377.0</ele><time>2026-03-28T14:13:28.216Z</time></trkpt><trkpt lat="49.1798017" lon="10.94612"><ele>375.6666666666667</ele><time>2026-03-28T14:13:29.231Z</time></trkpt><trkpt lat="49.1797967" lon="10.9463683"><ele>374.3333333333333</ele><time>2026-03-28T14:13:30.217Z</time></trkpt><trkpt lat="49.1797933" lon="10.9466033"><ele>373.0</ele><time>2026-03-28T14:13:31.214Z</time></trkpt><trkpt lat="49.1797883" lon="10.9468183"><ele>372.79999999999995</ele><time>2026-03-28T14:13:32.209Z</time></trkpt><trkpt lat="49.1797767" lon="10.947005"><ele>372.6</ele><time>2026-03-28T14:13:33.202Z</time></trkpt><trkpt lat="49.179745" lon="10.9471667"><ele>372.4</ele><time>2026-03-28T14:13:34.218Z</time></trkpt><trkpt lat="49.1796933" lon="10.9473017"><ele>372.20000000000005</ele><time>2026-03-28T14:13:35.211Z</time></trkpt><trkpt lat="49.1796167" lon="10.9474167"><ele>372.0</ele><time>2026-03-28T14:13:36.217Z</time></trkpt><trkpt lat="49.1795217" lon="10.947505"><ele>372.25</ele><time>2026-03-28T14:13:37.212Z</time></trkpt><trkpt lat="49.179415" lon="10.9475867"><ele>372.5</ele><time>2026-03-28T14:13:38.225Z</time></trkpt><trkpt lat="49.1793" lon="10.947675"><ele>372.75</ele><time>2026-03-28T14:13:39.211Z</time></trkpt><trkpt lat="49.1791783" lon="10.9477683"><ele>373.0</ele><time>2026-03-28T14:13:40.214Z</time></trkpt><trkpt lat="49.1790517" lon="10.9478633"><ele>370.0</ele><time>2026-03-28T14:13:41.216Z</time></trkpt><trkpt lat="49.1789233" lon="10.9479633"><ele>367.0</ele><time>2026-03-28T14:13:42.211Z</time></trkpt><trkpt lat="49.1788" lon="10.9480667"><ele>364.0</ele><time>2026-03-28T14:13:43.225Z</time></trkpt><trkpt lat="49.1786783" lon="10.948165"><ele>361.0</ele><time>2026-03-28T14:13:44.21Z</time></trkpt><trkpt lat="49.17856" lon="10.9482683"><ele>360.0</ele><time>2026-03-28T14:13:45.211Z</time></trkpt><trkpt lat="49.1784583" lon="10.9483817"><ele>359.0</ele><time>2026-03-28T14:13:46.215Z</time></trkpt><trkpt lat="49.1783817" lon="10.9485183"><ele>358.0</ele><time>2026-03-28T14:13:47.209Z</time></trkpt><trkpt lat="49.1783383" lon="10.9486817"><ele>357.0</ele><time>2026-03-28T14:13:48.214Z</time></trkpt><trkpt lat="49.1783267" lon="10.948865"><ele>357.0</ele><time>2026-03-28T14:13:49.207Z</time></trkpt><trkpt lat="49.178345" lon="10.9490533"><ele>357.0</ele><time>2026-03-28T14:13:50.207Z</time></trkpt><trkpt lat="49.1783767" lon="10.94925"><ele>357.0</ele><time>2026-03-28T14:13:51.213Z</time></trkpt><trkpt lat="49.17841" lon="10.94945"><ele>357.0</ele><time>2026-03-28T14:13:52.207Z</time></trkpt><trkpt lat="49.1784367" lon="10.9496483"><ele>357.25</ele><time>2026-03-28T14:13:53.207Z</time></trkpt><trkpt lat="49.17845" lon="10.949855"><ele>357.5</ele><time>2026-03-28T14:13:54.207Z</time></trkpt><trkpt lat="49.1784483" lon="10.9500583"><ele>357.75</ele><time>2026-03-28T14:13:55.207Z</time></trkpt><trkpt lat="49.17843" lon="10.9502483"><ele>358.0</ele><time>2026-03-28T14:13:56.212Z</time></trkpt><trkpt lat="49.1784017" lon="10.950425"><ele>358.59999999999997</ele><time>2026-03-28T14:13:57.21Z</time></trkpt><trkpt lat="49.1783683" lon="10.9505817"><ele>359.2</ele><time>2026-03-28T14:13:58.208Z</time></trkpt><trkpt lat="49.1783317" lon="10.950715"><ele>359.8</ele><time>2026-03-28T14:13:59.214Z</time></trkpt><trkpt lat="49.1782983" lon="10.950825"><ele>360.4</ele><time>2026-03-28T14:14:00.216Z</time></trkpt><trkpt lat="49.1782617" lon="10.950985"><ele>361.0</ele><time>2026-03-28T14:14:02.213Z</time></trkpt><trkpt lat="49.1783" lon="10.9511483"><ele>361.20000000000005</ele><time>2026-03-28T14:14:04.202Z</time></trkpt><trkpt lat="49.17835" lon="10.95125"><ele>361.40000000000003</ele><time>2026-03-28T14:14:05.209Z</time></trkpt><trkpt lat="49.17841" lon="10.9513667"><ele>361.6</ele><time>2026-03-28T14:14:06.209Z</time></trkpt><trkpt lat="49.1784833" lon="10.95151"><ele>361.8</ele><time>2026-03-28T14:14:07.218Z</time></trkpt><trkpt lat="49.1785667" lon="10.9516717"><ele>362.0</ele><time>2026-03-28T14:14:08.216Z</time></trkpt><trkpt lat="49.178655" lon="10.9518467"><ele>362.6666666666667</ele><time>2026-03-28T14:14:09.215Z</time></trkpt><trkpt lat="49.1787467" lon="10.9520367"><ele>363.3333333333333</ele><time>2026-03-28T14:14:10.212Z</time></trkpt><trkpt lat="49.1788367" lon="10.95223"><ele>364.0</ele><time>2026-03-28T14:14:11.218Z</time></trkpt><trkpt lat="49.1789267" lon="10.952425"><ele>370.0</ele><time>2026-03-28T14:14:12.207Z</time></trkpt><trkpt lat="49.17902" lon="10.9526283"><ele>376.0</ele><time>2026-03-28T14:14:13.209Z</time></trkpt><trkpt lat="49.1791133" lon="10.9528383"><ele>382.0</ele><time>2026-03-28T14:14:14.21Z</time></trkpt><trkpt lat="49.179205" lon="10.95305"><ele>382.0</ele><time>2026-03-28T14:14:15.208Z</time></trkpt><trkpt lat="49.179295" lon="10.9532667"><ele>382.0</ele><time>2026-03-28T14:14:16.202Z</time></trkpt><trkpt lat="49.1793817" lon="10.9534883"><ele>382.0</ele><time>2026-03-28T14:14:17.209Z</time></trkpt><trkpt lat="49.17946" lon="10.953725"><ele>382.0</ele><time>2026-03-28T14:14:18.209Z</time></trkpt><trkpt lat="49.1795333" lon="10.9539767"><ele>382.0</ele><time>2026-03-28T14:14:19.205Z</time></trkpt><trkpt lat="49.1795983" lon="10.9542367"><ele>382.0</ele><time>2026-03-28T14:14:20.205Z</time></trkpt><trkpt lat="49.1796517" lon="10.9544883"><ele>380.0</ele><time>2026-03-28T14:14:21.211Z</time></trkpt><trkpt lat="49.1796967" lon="10.9547367"><ele>378.0</ele><time>2026-03-28T14:14:22.208Z</time></trkpt><trkpt lat="49.1797417" lon="10.954975"><ele>376.0</ele><time>2026-03-28T14:14:23.211Z</time></trkpt><trkpt lat="49.17978" lon="10.9551967"><ele>375.75</ele><time>2026-03-28T14:14:24.206Z</time></trkpt><trkpt lat="49.1798167" lon="10.9553983"><ele>375.5</ele><time>2026-03-28T14:14:25.214Z</time></trkpt><trkpt lat="49.1798483" lon="10.9555767"><ele>375.25</ele><time>2026-03-28T14:14:26.21Z</time></trkpt><trkpt lat="49.179865" lon="10.955735"><ele>375.0</ele><time>2026-03-28T14:14:27.212Z</time></trkpt><trkpt lat="49.1798583" lon="10.9558867"><ele>375.0</ele><time>2026-03-28T14:14:28.216Z</time></trkpt><trkpt lat="49.1798383" lon="10.9560433"><ele>375.0</ele><time>2026-03-28T14:14:29.216Z</time></trkpt><trkpt lat="49.179815" lon="10.9562167"><ele>375.0</ele><time>2026-03-28T14:14:30.211Z</time></trkpt><trkpt lat="49.1797917" lon="10.9564167"><ele>375.0</ele><time>2026-03-28T14:14:31.211Z</time></trkpt><trkpt lat="49.179765" lon="10.9566333"><ele>375.25</ele><time>2026-03-28T14:14:32.201Z</time></trkpt><trkpt lat="49.1797383" lon="10.9568417"><ele>375.5</ele><time>2026-03-28T14:14:33.212Z</time></trkpt><trkpt lat="49.1797117" lon="10.95704"><ele>375.75</ele><time>2026-03-28T14:14:34.209Z</time></trkpt><trkpt lat="49.1796817" lon="10.9572233"><ele>376.0</ele><time>2026-03-28T14:14:35.205Z</time></trkpt><trkpt lat="49.17965" lon="10.9573933"><ele>375.8</ele><time>2026-03-28T14:14:36.215Z</time></trkpt><trkpt lat="49.179615" lon="10.9575533"><ele>375.6</ele><time>2026-03-28T14:14:37.215Z</time></trkpt><trkpt lat="49.1795883" lon="10.9577"><ele>375.4</ele><time>2026-03-28T14:14:38.212Z</time></trkpt><trkpt lat="49.1795633" lon="10.9578367"><ele>375.2</ele><time>2026-03-28T14:14:39.215Z</time></trkpt><trkpt lat="49.17954" lon="10.9579633"><ele>375.0</ele><time>2026-03-28T14:14:40.206Z</time></trkpt><trkpt lat="49.1795233" lon="10.95808"><ele>375.0</ele><time>2026-03-28T14:14:41.22Z</time></trkpt><trkpt lat="49.1795133" lon="10.95819"><ele>375.0</ele><time>2026-03-28T14:14:42.201Z</time></trkpt><trkpt lat="49.179505" lon="10.9583"><ele>375.0</ele><time>2026-03-28T14:14:43.22Z</time></trkpt><trkpt lat="49.179495" lon="10.958415"><ele>375.0</ele><time>2026-03-28T14:14:44.21Z</time></trkpt><trkpt lat="49.179485" lon="10.9585317"><ele>375.0</ele><time>2026-03-28T14:14:45.207Z</time></trkpt><trkpt lat="49.1794717" lon="10.958645"><ele>375.0</ele><time>2026-03-28T14:14:46.206Z</time></trkpt><trkpt lat="49.1794533" lon="10.9587567"><ele>375.0</ele><time>2026-03-28T14:14:47.215Z</time></trkpt><trkpt lat="49.1794367" lon="10.958865"><ele>375.0</ele><time>2026-03-28T14:14:48.21Z</time></trkpt><trkpt lat="49.17942" lon="10.9589767"><ele>375.0</ele><time>2026-03-28T14:14:49.208Z</time></trkpt><trkpt lat="49.1794033" lon="10.9590867"><ele>375.0</ele><time>2026-03-28T14:14:50.214Z</time></trkpt><trkpt lat="49.1793883" lon="10.9591983"><ele>375.0</ele><time>2026-03-28T14:14:51.213Z</time></trkpt><trkpt lat="49.17937" lon="10.959305"><ele>375.0</ele><time>2026-03-28T14:14:52.202Z</time></trkpt><trkpt lat="49.1793517" lon="10.9594117"><ele>375.0</ele><time>2026-03-28T14:14:53.204Z</time></trkpt><trkpt lat="49.17933" lon="10.959515"><ele>375.0</ele><time>2026-03-28T14:14:54.204Z</time></trkpt><trkpt lat="49.1793033" lon="10.9596117"><ele>376.0</ele><time>2026-03-28T14:14:55.209Z</time></trkpt><trkpt lat="49.1792783" lon="10.9597067"><ele>377.0</ele><time>2026-03-28T14:14:56.211Z</time></trkpt><trkpt lat="49.179255" lon="10.9597983"><ele>378.0</ele><time>2026-03-28T14:14:57.202Z</time></trkpt><trkpt lat="49.1792367" lon="10.9598967"><ele>379.0</ele><time>2026-03-28T14:14:58.212Z</time></trkpt><trkpt lat="49.17922" lon="10.9599983"><ele>380.0</ele><time>2026-03-28T14:14:59.21Z</time></trkpt><trkpt lat="49.17921" lon="10.960095"><ele>381.0</ele><time>2026-03-28T14:15:00.214Z</time></trkpt><trkpt lat="49.1792033" lon="10.9602717"><ele>382.0</ele><time>2026-03-28T14:15:02.218Z</time></trkpt><trkpt lat="49.1792033" lon="10.9604483"><ele>383.3333333333333</ele><time>2026-03-28T14:15:04.214Z</time></trkpt><trkpt lat="49.1792117" lon="10.960635"><ele>384.66666666666663</ele><time>2026-03-28T14:15:06.215Z</time></trkpt><trkpt lat="49.1792183" lon="10.9607317"><ele>386.0</ele><time>2026-03-28T14:15:07.222Z</time></trkpt><trkpt lat="49.179225" lon="10.9608283"><ele>387.3333333333333</ele><time>2026-03-28T14:15:08.212Z</time></trkpt><trkpt lat="49.179235" lon="10.960925"><ele>388.6666666666667</ele><time>2026-03-28T14:15:09.217Z</time></trkpt><trkpt lat="49.1792483" lon="10.96103"><ele>390.0</ele><time>2026-03-28T14:15:10.211Z</time></trkpt><trkpt lat="49.17926" lon="10.9611367"><ele>390.1666666666667</ele><time>2026-03-28T14:15:11.211Z</time></trkpt><trkpt lat="49.1792683" lon="10.9612483"><ele>390.33333333333337</ele><time>2026-03-28T14:15:12.217Z</time></trkpt><trkpt lat="49.1792817" lon="10.961365"><ele>390.5</ele><time>2026-03-28T14:15:13.194Z</time></trkpt><trkpt lat="49.179295" lon="10.9614817"><ele>390.6666666666667</ele><time>2026-03-28T14:15:14.222Z</time></trkpt><trkpt lat="49.1793067" lon="10.9615983"><ele>390.83333333333337</ele><time>2026-03-28T14:15:15.215Z</time></trkpt><trkpt lat="49.1793267" lon="10.96171"><ele>391.0</ele><time>2026-03-28T14:15:16.231Z</time></trkpt><trkpt lat="49.179345" lon="10.9618217"><ele>390.57142857142856</ele><time>2026-03-28T14:15:17.207Z</time></trkpt><trkpt lat="49.1793633" lon="10.9619333"><ele>390.1428571428571</ele><time>2026-03-28T14:15:18.211Z</time></trkpt><trkpt lat="49.1793833" lon="10.9620417"><ele>389.71428571428567</ele><time>2026-03-28T14:15:19.201Z</time></trkpt><trkpt lat="49.1794" lon="10.9621567"><ele>389.2857142857143</ele><time>2026-03-28T14:15:20.208Z</time></trkpt><trkpt lat="49.1794133" lon="10.962265"><ele>388.8571428571429</ele><time>2026-03-28T14:15:21.209Z</time></trkpt><trkpt lat="49.1794317" lon="10.96237"><ele>388.4285714285714</ele><time>2026-03-28T14:15:22.211Z</time></trkpt><trkpt lat="49.179445" lon="10.962475"><ele>388.0</ele><time>2026-03-28T14:15:23.217Z</time></trkpt><trkpt lat="49.1794567" lon="10.96258"><ele>386.33333333333337</ele><time>2026-03-28T14:15:24.208Z</time></trkpt><trkpt lat="49.1794667" lon="10.962685"><ele>384.6666666666667</ele><time>2026-03-28T14:15:25.209Z</time></trkpt><trkpt lat="49.179475" lon="10.9627933"><ele>383.0</ele><time>2026-03-28T14:15:26.21Z</time></trkpt><trkpt lat="49.1794867" lon="10.9629067"><ele>381.33333333333337</ele><time>2026-03-28T14:15:27.21Z</time></trkpt><trkpt lat="49.179505" lon="10.963035"><ele>379.6666666666667</ele><time>2026-03-28T14:15:28.212Z</time></trkpt><trkpt lat="49.1795233" lon="10.9631733"><ele>378.0</ele><time>2026-03-28T14:15:29.207Z</time></trkpt><trkpt lat="49.1795433" lon="10.9633183"><ele>377.1666666666667</ele><time>2026-03-28T14:15:30.215Z</time></trkpt><trkpt lat="49.179555" lon="10.96346"><ele>376.3333333333333</ele><time>2026-03-28T14:15:31.212Z</time></trkpt><trkpt lat="49.1795633" lon="10.963595"><ele>375.5</ele><time>2026-03-28T14:15:32.202Z</time></trkpt><trkpt lat="49.1795667" lon="10.9637217"><ele>374.66666666666663</ele><time>2026-03-28T14:15:33.2Z</time></trkpt><trkpt lat="49.179565" lon="10.963845"><ele>373.8333333333333</ele><time>2026-03-28T14:15:34.195Z</time></trkpt><trkpt lat="49.1795633" lon="10.9639583"><ele>373.0</ele><time>2026-03-28T14:15:35.204Z</time></trkpt><trkpt lat="49.1795633" lon="10.9640617"><ele>373.0</ele><time>2026-03-28T14:15:36.204Z</time></trkpt><trkpt lat="49.179565" lon="10.9641633"><ele>373.0</ele><time>2026-03-28T14:15:37.206Z</time></trkpt><trkpt lat="49.1795683" lon="10.9642667"><ele>373.0</ele><time>2026-03-28T14:15:38.201Z</time></trkpt><trkpt lat="49.1795783" lon="10.9643683"><ele>373.0</ele><time>2026-03-28T14:15:39.211Z</time></trkpt><trkpt lat="49.1795883" lon="10.9644783"><ele>373.0</ele><time>2026-03-28T14:15:40.205Z</time></trkpt><trkpt lat="49.1796" lon="10.9645833"><ele>373.0</ele><time>2026-03-28T14:15:41.211Z</time></trkpt><trkpt lat="49.1796083" lon="10.96468"><ele>373.0</ele><time>2026-03-28T14:15:42.202Z</time></trkpt><trkpt lat="49.1796333" lon="10.96484"><ele>372.5</ele><time>2026-03-28T14:15:44.202Z</time></trkpt><trkpt lat="49.179685" lon="10.9649367"><ele>372.0</ele><time>2026-03-28T14:15:46.209Z</time></trkpt><trkpt lat="49.1797833" lon="10.9649767"><ele>371.5</ele><time>2026-03-28T14:15:48.205Z</time></trkpt><trkpt lat="49.1798517" lon="10.9649867"><ele>371.0</ele><time>2026-03-28T14:15:49.224Z</time></trkpt><trkpt lat="49.1799267" lon="10.9649917"><ele>370.5</ele><time>2026-03-28T14:15:50.213Z</time></trkpt><trkpt lat="49.18001" lon="10.9649933"><ele>370.0</ele><time>2026-03-28T14:15:51.21Z</time></trkpt><trkpt lat="49.1800983" lon="10.9649983"><ele>371.3333333333333</ele><time>2026-03-28T14:15:52.207Z</time></trkpt><trkpt lat="49.1801883" lon="10.9650067"><ele>372.66666666666663</ele><time>2026-03-28T14:15:53.214Z</time></trkpt><trkpt lat="49.180275" lon="10.9650167"><ele>374.0</ele><time>2026-03-28T14:15:54.207Z</time></trkpt><trkpt lat="49.180365" lon="10.9650317"><ele>375.3333333333333</ele><time>2026-03-28T14:15:55.207Z</time></trkpt><trkpt lat="49.1804517" lon="10.96505"><ele>376.6666666666667</ele><time>2026-03-28T14:15:56.212Z</time></trkpt><trkpt lat="49.18054" lon="10.965055"><ele>378.0</ele><time>2026-03-28T14:15:57.214Z</time></trkpt><trkpt lat="49.1806333" lon="10.9650433"><ele>379.59999999999997</ele><time>2026-03-28T14:15:58.217Z</time></trkpt><trkpt lat="49.1807317" lon="10.9650267"><ele>381.2</ele><time>2026-03-28T14:15:59.211Z</time></trkpt><trkpt lat="49.1808217" lon="10.9650233"><ele>382.8</ele><time>2026-03-28T14:16:00.21Z</time></trkpt><trkpt lat="49.180905" lon="10.9650433"><ele>384.4</ele><time>2026-03-28T14:16:01.215Z</time></trkpt><trkpt lat="49.180985" lon="10.96509"><ele>386.0</ele><time>2026-03-28T14:16:02.214Z</time></trkpt><trkpt lat="49.18107" lon="10.965155"><ele>386.99999999999994</ele><time>2026-03-28T14:16:03.214Z</time></trkpt><trkpt lat="49.18115" lon="10.9652267"><ele>388.0</ele><time>2026-03-28T14:16:04.212Z</time></trkpt><trkpt lat="49.1812333" lon="10.9652917"><ele>389.0</ele><time>2026-03-28T14:16:05.214Z</time></trkpt><trkpt lat="49.1813133" lon="10.965345"><ele>390.0</ele><time>2026-03-28T14:16:06.209Z</time></trkpt><trkpt lat="49.181395" lon="10.9653833"><ele>390.99999999999994</ele><time>2026-03-28T14:16:07.208Z</time></trkpt><trkpt lat="49.1814783" lon="10.9653967"><ele>392.0</ele><time>2026-03-28T14:16:08.21Z</time></trkpt><trkpt lat="49.181565" lon="10.9653917"><ele>392.0</ele><time>2026-03-28T14:16:09.22Z</time></trkpt><trkpt lat="49.1816467" lon="10.96537"><ele>392.0</ele><time>2026-03-28T14:16:10.218Z</time></trkpt><trkpt lat="49.1817317" lon="10.9653283"><ele>392.0</ele><time>2026-03-28T14:16:11.217Z</time></trkpt><trkpt lat="49.181825" lon="10.96527"><ele>392.0</ele><time>2026-03-28T14:16:12.216Z</time></trkpt><trkpt lat="49.1819233" lon="10.9652167"><ele>392.0</ele><time>2026-03-28T14:16:13.206Z</time></trkpt><trkpt lat="49.1820233" lon="10.9651683"><ele>392.0</ele><time>2026-03-28T14:16:14.21Z</time></trkpt><trkpt lat="49.182125" lon="10.965125"><ele>392.0</ele><time>2026-03-28T14:16:15.218Z</time></trkpt><trkpt lat="49.182225" lon="10.9650783"><ele>392.0</ele><time>2026-03-28T14:16:16.21Z</time></trkpt><trkpt lat="49.1823267" lon="10.96503"><ele>392.0</ele><time>2026-03-28T14:16:17.21Z</time></trkpt><trkpt lat="49.1824283" lon="10.9649817"><ele>392.0</ele><time>2026-03-28T14:16:18.213Z</time></trkpt><trkpt lat="49.1825333" lon="10.964935"><ele>390.8</ele><time>2026-03-28T14:16:19.2Z</time></trkpt><trkpt lat="49.1826367" lon="10.9648883"><ele>389.6</ele><time>2026-03-28T14:16:20.205Z</time></trkpt><trkpt lat="49.1827383" lon="10.9648417"><ele>388.40000000000003</ele><time>2026-03-28T14:16:21.205Z</time></trkpt><trkpt lat="49.1828383" lon="10.964795"><ele>387.20000000000005</ele><time>2026-03-28T14:16:22.199Z</time></trkpt><trkpt lat="49.182935" lon="10.9647483"><ele>386.0</ele><time>2026-03-28T14:16:23.201Z</time></trkpt><trkpt lat="49.1830283" lon="10.9647033"><ele>385.99999999999994</ele><time>2026-03-28T14:16:24.203Z</time></trkpt><trkpt lat="49.1831183" lon="10.9646617"><ele>386.0</ele><time>2026-03-28T14:16:25.203Z</time></trkpt><trkpt lat="49.183205" lon="10.96462"><ele>386.0</ele><time>2026-03-28T14:16:26.213Z</time></trkpt><trkpt lat="49.1832817" lon="10.9645833"><ele>386.0</ele><time>2026-03-28T14:16:27.207Z</time></trkpt><trkpt lat="49.1833467" lon="10.9645567"><ele>385.99999999999994</ele><time>2026-03-28T14:16:28.206Z</time></trkpt><trkpt lat="49.1834417" lon="10.9645533"><ele>386.0</ele><time>2026-03-28T14:16:30.213Z</time></trkpt><trkpt lat="49.1835067" lon="10.9646667"><ele>386.0</ele><time>2026-03-28T14:16:32.206Z</time></trkpt><trkpt lat="49.1835317" lon="10.96477"><ele>386.0</ele><time>2026-03-28T14:16:33.217Z</time></trkpt><trkpt lat="49.1835583" lon="10.9649067"><ele>386.0</ele><time>2026-03-28T14:16:34.203Z</time></trkpt><trkpt lat="49.1835917" lon="10.9650683"><ele>386.0</ele><time>2026-03-28T14:16:35.211Z</time></trkpt><trkpt lat="49.183635" lon="10.965255"><ele>386.0</ele><time>2026-03-28T14:16:36.205Z</time></trkpt><trkpt lat="49.1836867" lon="10.96545"><ele>386.0</ele><time>2026-03-28T14:16:37.21Z</time></trkpt><trkpt lat="49.1837467" lon="10.965635"><ele>386.0</ele><time>2026-03-28T14:16:38.207Z</time></trkpt><trkpt lat="49.18382" lon="10.9658083"><ele>386.0</ele><time>2026-03-28T14:16:39.211Z</time></trkpt><trkpt lat="49.1839117" lon="10.96597"><ele>386.0</ele><time>2026-03-28T14:16:40.206Z</time></trkpt><trkpt lat="49.184005" lon="10.9661217"><ele>385.5</ele><time>2026-03-28T14:16:41.208Z</time></trkpt><trkpt lat="49.1840983" lon="10.966265"><ele>385.0</ele><time>2026-03-28T14:16:42.215Z</time></trkpt><trkpt lat="49.184195" lon="10.966395"><ele>384.5</ele><time>2026-03-28T14:16:43.202Z</time></trkpt><trkpt lat="49.184295" lon="10.9665083"><ele>384.0</ele><time>2026-03-28T14:16:44.209Z</time></trkpt><trkpt lat="49.1843983" lon="10.96661"><ele>384.0</ele><time>2026-03-28T14:16:45.207Z</time></trkpt><trkpt lat="49.1845033" lon="10.9666967"><ele>384.0</ele><time>2026-03-28T14:16:46.213Z</time></trkpt><trkpt lat="49.184605" lon="10.9667733"><ele>384.0</ele><time>2026-03-28T14:16:47.212Z</time></trkpt><trkpt lat="49.1847067" lon="10.9668483"><ele>384.0</ele><time>2026-03-28T14:16:48.208Z</time></trkpt><trkpt lat="49.1848033" lon="10.9669233"><ele>383.6</ele><time>2026-03-28T14:16:49.205Z</time></trkpt><trkpt lat="49.184895" lon="10.9670017"><ele>383.2</ele><time>2026-03-28T14:16:50.208Z</time></trkpt><trkpt lat="49.1849817" lon="10.9670833"><ele>382.8</ele><time>2026-03-28T14:16:51.208Z</time></trkpt><trkpt lat="49.1850633" lon="10.967165"><ele>382.40000000000003</ele><time>2026-03-28T14:16:52.206Z</time></trkpt><trkpt lat="49.1851383" lon="10.9672483"><ele>382.0</ele><time>2026-03-28T14:16:53.213Z</time></trkpt><trkpt lat="49.18521" lon="10.96733"><ele>382.0</ele><time>2026-03-28T14:16:54.214Z</time></trkpt><trkpt lat="49.1852767" lon="10.96741"><ele>382.0</ele><time>2026-03-28T14:16:55.209Z</time></trkpt><trkpt lat="49.185335" lon="10.9674917"><ele>382.0</ele><time>2026-03-28T14:16:56.201Z</time></trkpt><trkpt lat="49.1853867" lon="10.967575"><ele>382.0</ele><time>2026-03-28T14:16:57.204Z</time></trkpt><trkpt lat="49.1854383" lon="10.9676517"><ele>382.0</ele><time>2026-03-28T14:16:58.215Z</time></trkpt><trkpt lat="49.1854867" lon="10.9677233"><ele>382.0</ele><time>2026-03-28T14:16:59.209Z</time></trkpt><trkpt lat="49.1855317" lon="10.9677917"><ele>382.0</ele><time>2026-03-28T14:17:00.201Z</time></trkpt><trkpt lat="49.1856167" lon="10.967915"><ele>382.16666666666663</ele><time>2026-03-28T14:17:02.203Z</time></trkpt><trkpt lat="49.18569" lon="10.9680133"><ele>382.3333333333333</ele><time>2026-03-28T14:17:04.208Z</time></trkpt><trkpt lat="49.1857483" lon="10.96808"><ele>382.5</ele><time>2026-03-28T14:17:06.2Z</time></trkpt><trkpt lat="49.1858183" lon="10.968145"><ele>382.6666666666667</ele><time>2026-03-28T14:17:08.207Z</time></trkpt><trkpt lat="49.1859217" lon="10.9682317"><ele>382.83333333333337</ele><time>2026-03-28T14:17:10.207Z</time></trkpt><trkpt lat="49.1859833" lon="10.9682817"><ele>383.0</ele><time>2026-03-28T14:17:11.214Z</time></trkpt><trkpt lat="49.186055" lon="10.9683333"><ele>382.6666666666667</ele><time>2026-03-28T14:17:12.204Z</time></trkpt><trkpt lat="49.1861267" lon="10.9683817"><ele>382.33333333333337</ele><time>2026-03-28T14:17:13.204Z</time></trkpt><trkpt lat="49.1862033" lon="10.96843"><ele>382.0</ele><time>2026-03-28T14:17:14.211Z</time></trkpt><trkpt lat="49.1862883" lon="10.9684733"><ele>381.6666666666667</ele><time>2026-03-28T14:17:15.212Z</time></trkpt><trkpt lat="49.1863767" lon="10.9685167"><ele>381.3333333333333</ele><time>2026-03-28T14:17:16.214Z</time></trkpt><trkpt lat="49.1864667" lon="10.96856"><ele>381.0</ele><time>2026-03-28T14:17:17.201Z</time></trkpt><trkpt lat="49.1865517" lon="10.9686"><ele>381.6666666666667</ele><time>2026-03-28T14:17:18.211Z</time></trkpt><trkpt lat="49.1866317" lon="10.96864"><ele>382.33333333333337</ele><time>2026-03-28T14:17:19.209Z</time></trkpt><trkpt lat="49.1867183" lon="10.9686767"><ele>383.0</ele><time>2026-03-28T14:17:20.202Z</time></trkpt><trkpt lat="49.1868067" lon="10.9687167"><ele>383.6666666666667</ele><time>2026-03-28T14:17:21.215Z</time></trkpt><trkpt lat="49.1868933" lon="10.9687567"><ele>384.33333333333337</ele><time>2026-03-28T14:17:22.2Z</time></trkpt><trkpt lat="49.1869733" lon="10.9687917"><ele>385.0</ele><time>2026-03-28T14:17:23.21Z</time></trkpt><trkpt lat="49.1870467" lon="10.968825"><ele>385.00000000000006</ele><time>2026-03-28T14:17:24.21Z</time></trkpt><trkpt lat="49.1871183" lon="10.96885"><ele>385.0</ele><time>2026-03-28T14:17:25.201Z</time></trkpt><trkpt lat="49.1871867" lon="10.9688717"><ele>385.0</ele><time>2026-03-28T14:17:26.201Z</time></trkpt><trkpt lat="49.1872467" lon="10.9689033"><ele>385.0</ele><time>2026-03-28T14:17:27.21Z</time></trkpt><trkpt lat="49.18732" lon="10.9690233"><ele>385.00000000000006</ele><time>2026-03-28T14:17:29.2Z</time></trkpt><trkpt lat="49.1873333" lon="10.9692283"><ele>385.0</ele><time>2026-03-28T14:17:31.211Z</time></trkpt><trkpt lat="49.1873417" lon="10.969365"><ele>384.8</ele><time>2026-03-28T14:17:32.209Z</time></trkpt><trkpt lat="49.1873567" lon="10.969505"><ele>384.6</ele><time>2026-03-28T14:17:33.209Z</time></trkpt><trkpt lat="49.1873717" lon="10.9696483"><ele>384.4</ele><time>2026-03-28T14:17:34.209Z</time></trkpt><trkpt lat="49.1873917" lon="10.96979"><ele>384.2</ele><time>2026-03-28T14:17:35.207Z</time></trkpt><trkpt lat="49.1874167" lon="10.9699283"><ele>384.0</ele><time>2026-03-28T14:17:36.204Z</time></trkpt><trkpt lat="49.1874417" lon="10.9700633"><ele>384.0</ele><time>2026-03-28T14:17:37.218Z</time></trkpt><trkpt lat="49.187465" lon="10.9701917"><ele>384.0</ele><time>2026-03-28T14:17:38.216Z</time></trkpt><trkpt lat="49.187485" lon="10.9703133"><ele>384.0</ele><time>2026-03-28T14:17:39.209Z</time></trkpt><trkpt lat="49.1875067" lon="10.9704233"><ele>384.0</ele><time>2026-03-28T14:17:40.211Z</time></trkpt><trkpt lat="49.187575" lon="10.9705517"><ele>384.0</ele><time>2026-03-28T14:17:42.212Z</time></trkpt><trkpt lat="49.1876983" lon="10.97056"><ele>384.0</ele><time>2026-03-28T14:17:44.214Z</time></trkpt><trkpt lat="49.18777" lon="10.9705667"><ele>384.0</ele><time>2026-03-28T14:17:45.208Z</time></trkpt><trkpt lat="49.1878467" lon="10.9705833"><ele>384.0</ele><time>2026-03-28T14:17:46.203Z</time></trkpt><trkpt lat="49.1879217" lon="10.9706117"><ele>384.0</ele><time>2026-03-28T14:17:47.216Z</time></trkpt><trkpt lat="49.1879983" lon="10.9706517"><ele>384.0</ele><time>2026-03-28T14:17:48.207Z</time></trkpt><trkpt lat="49.1880833" lon="10.9706883"><ele>384.0</ele><time>2026-03-28T14:17:49.21Z</time></trkpt><trkpt lat="49.1881783" lon="10.9707317"><ele>383.79999999999995</ele><time>2026-03-28T14:17:50.209Z</time></trkpt><trkpt lat="49.1882667" lon="10.9707817"><ele>383.59999999999997</ele><time>2026-03-28T14:17:51.207Z</time></trkpt><trkpt lat="49.18836" lon="10.97084"><ele>383.4</ele><time>2026-03-28T14:17:52.212Z</time></trkpt><trkpt lat="49.18846" lon="10.9709017"><ele>383.2</ele><time>2026-03-28T14:17:53.205Z</time></trkpt><trkpt lat="49.1885667" lon="10.9709617"><ele>383.0</ele><time>2026-03-28T14:17:54.212Z</time></trkpt><trkpt lat="49.1886717" lon="10.9710183"><ele>383.0</ele><time>2026-03-28T14:17:55.202Z</time></trkpt><trkpt lat="49.1887733" lon="10.9710717"><ele>383.0</ele><time>2026-03-28T14:17:56.203Z</time></trkpt><trkpt lat="49.1888733" lon="10.9711167"><ele>383.0</ele><time>2026-03-28T14:17:57.212Z</time></trkpt><trkpt lat="49.1889767" lon="10.9711467"><ele>383.0</ele><time>2026-03-28T14:17:58.213Z</time></trkpt><trkpt lat="49.1890867" lon="10.9711667"><ele>383.0</ele><time>2026-03-28T14:17:59.209Z</time></trkpt><trkpt lat="49.189205" lon="10.971185"><ele>384.0</ele><time>2026-03-28T14:18:00.219Z</time></trkpt><trkpt lat="49.1893283" lon="10.971205"><ele>385.0</ele><time>2026-03-28T14:18:01.212Z</time></trkpt><trkpt lat="49.18945" lon="10.97123"><ele>386.0</ele><time>2026-03-28T14:18:02.201Z</time></trkpt><trkpt lat="49.1895717" lon="10.9712583"><ele>387.0</ele><time>2026-03-28T14:18:03.202Z</time></trkpt><trkpt lat="49.1896933" lon="10.9712933"><ele>387.0</ele><time>2026-03-28T14:18:04.211Z</time></trkpt><trkpt lat="49.189815" lon="10.97134"><ele>387.0</ele><time>2026-03-28T14:18:05.206Z</time></trkpt><trkpt lat="49.18994" lon="10.9714"><ele>387.0</ele><time>2026-03-28T14:18:06.212Z</time></trkpt><trkpt lat="49.1900683" lon="10.9714717"><ele>387.0</ele><time>2026-03-28T14:18:07.205Z</time></trkpt><trkpt lat="49.190195" lon="10.9715517"><ele>387.75</ele><time>2026-03-28T14:18:08.214Z</time></trkpt><trkpt lat="49.19032" lon="10.971635"><ele>388.5</ele><time>2026-03-28T14:18:09.203Z</time></trkpt><trkpt lat="49.1904433" lon="10.9717167"><ele>389.25</ele><time>2026-03-28T14:18:10.208Z</time></trkpt><trkpt lat="49.1905667" lon="10.9717967"><ele>390.0</ele><time>2026-03-28T14:18:11.206Z</time></trkpt><trkpt lat="49.1906883" lon="10.9718767"><ele>391.5</ele><time>2026-03-28T14:18:12.202Z</time></trkpt><trkpt lat="49.1908083" lon="10.9719567"><ele>393.0</ele><time>2026-03-28T14:18:13.203Z</time></trkpt><trkpt lat="49.19093" lon="10.9720383"><ele>394.5</ele><time>2026-03-28T14:18:14.208Z</time></trkpt><trkpt lat="49.19105" lon="10.9721233"><ele>396.0</ele><time>2026-03-28T14:18:15.211Z</time></trkpt><trkpt lat="49.1911667" lon="10.97221"><ele>396.0</ele><time>2026-03-28T14:18:16.207Z</time></trkpt><trkpt lat="49.1912767" lon="10.9722983"><ele>396.0</ele><time>2026-03-28T14:18:17.206Z</time></trkpt><trkpt lat="49.19139" lon="10.9723833"><ele>396.0</ele><time>2026-03-28T14:18:18.208Z</time></trkpt><trkpt lat="49.19151" lon="10.9724633"><ele>396.0</ele><time>2026-03-28T14:18:19.207Z</time></trkpt><trkpt lat="49.1916367" lon="10.972535"><ele>396.0</ele><time>2026-03-28T14:18:20.208Z</time></trkpt><trkpt lat="49.19177" lon="10.9725983"><ele>396.0</ele><time>2026-03-28T14:18:21.207Z</time></trkpt><trkpt lat="49.1919017" lon="10.97266"><ele>396.0</ele><time>2026-03-28T14:18:22.202Z</time></trkpt><trkpt lat="49.1920317" lon="10.9727183"><ele>396.0</ele><time>2026-03-28T14:18:23.213Z</time></trkpt><trkpt lat="49.1921567" lon="10.9727733"><ele>396.0</ele><time>2026-03-28T14:18:24.212Z</time></trkpt><trkpt lat="49.1922817" lon="10.9728233"><ele>396.0</ele><time>2026-03-28T14:18:25.22Z</time></trkpt><trkpt lat="49.19241" lon="10.97286"><ele>396.0</ele><time>2026-03-28T14:18:26.211Z</time></trkpt><trkpt lat="49.19254" lon="10.972885"><ele>396.0</ele><time>2026-03-28T14:18:27.204Z</time></trkpt><trkpt lat="49.1926733" lon="10.9728967"><ele>396.0</ele><time>2026-03-28T14:18:28.204Z</time></trkpt><trkpt lat="49.1928067" lon="10.9728967"><ele>396.0</ele><time>2026-03-28T14:18:29.219Z</time></trkpt><trkpt lat="49.1929433" lon="10.9728867"><ele>396.0</ele><time>2026-03-28T14:18:30.213Z</time></trkpt><trkpt lat="49.1930783" lon="10.9728717"><ele>396.0</ele><time>2026-03-28T14:18:31.214Z</time></trkpt><trkpt lat="49.193215" lon="10.97286"><ele>396.0</ele><time>2026-03-28T14:18:32.201Z</time></trkpt><trkpt lat="49.19335" lon="10.9728533"><ele>396.0</ele><time>2026-03-28T14:18:33.214Z</time></trkpt><trkpt lat="49.1934867" lon="10.9728533"><ele>396.0</ele><time>2026-03-28T14:18:34.209Z</time></trkpt><trkpt lat="49.1936233" lon="10.9728617"><ele>396.0</ele><time>2026-03-28T14:18:35.215Z</time></trkpt><trkpt lat="49.1937583" lon="10.97287"><ele>396.0</ele><time>2026-03-28T14:18:36.21Z</time></trkpt><trkpt lat="49.1938933" lon="10.972875"><ele>396.0</ele><time>2026-03-28T14:18:37.216Z</time></trkpt><trkpt lat="49.1940283" lon="10.9728767"><ele>396.0</ele><time>2026-03-28T14:18:38.21Z</time></trkpt><trkpt lat="49.1941617" lon="10.9728833"><ele>396.0</ele><time>2026-03-28T14:18:39.204Z</time></trkpt><trkpt lat="49.1942967" lon="10.97289"><ele>396.0</ele><time>2026-03-28T14:18:40.206Z</time></trkpt><trkpt lat="49.19443" lon="10.9728967"><ele>396.0</ele><time>2026-03-28T14:18:41.205Z</time></trkpt><trkpt lat="49.1945667" lon="10.9729017"><ele>396.0</ele><time>2026-03-28T14:18:42.212Z</time></trkpt><trkpt lat="49.1947117" lon="10.972905"><ele>396.0</ele><time>2026-03-28T14:18:43.213Z</time></trkpt><trkpt lat="49.19488" lon="10.9729167"><ele>395.66666666666663</ele><time>2026-03-28T14:18:44.215Z</time></trkpt><trkpt lat="49.1950817" lon="10.97293"><ele>395.3333333333333</ele><time>2026-03-28T14:18:45.213Z</time></trkpt><trkpt lat="49.195295" lon="10.9729433"><ele>395.0</ele><time>2026-03-28T14:18:46.212Z</time></trkpt><trkpt lat="49.1954983" lon="10.9729517"><ele>395.66666666666663</ele><time>2026-03-28T14:18:47.215Z</time></trkpt><trkpt lat="49.1956917" lon="10.9729567"><ele>396.33333333333337</ele><time>2026-03-28T14:18:48.212Z</time></trkpt><trkpt lat="49.1958683" lon="10.9729617"><ele>397.0</ele><time>2026-03-28T14:18:49.211Z</time></trkpt><trkpt lat="49.1960317" lon="10.9729683"><ele>397.0</ele><time>2026-03-28T14:18:50.196Z</time></trkpt><trkpt lat="49.196185" lon="10.9729733"><ele>397.0</ele><time>2026-03-28T14:18:51.212Z</time></trkpt><trkpt lat="49.1963267" lon="10.9729767"><ele>397.0</ele><time>2026-03-28T14:18:52.203Z</time></trkpt><trkpt lat="49.1964583" lon="10.9729833"><ele>397.0</ele><time>2026-03-28T14:18:53.216Z</time></trkpt><trkpt lat="49.1965817" lon="10.9729917"><ele>398.25</ele><time>2026-03-28T14:18:54.203Z</time></trkpt><trkpt lat="49.1967017" lon="10.9730083"><ele>399.5</ele><time>2026-03-28T14:18:55.204Z</time></trkpt><trkpt lat="49.1968217" lon="10.97303"><ele>400.75</ele><time>2026-03-28T14:18:56.204Z</time></trkpt><trkpt lat="49.19694" lon="10.9730567"><ele>402.0</ele><time>2026-03-28T14:18:57.217Z</time></trkpt><trkpt lat="49.19706" lon="10.9730933"><ele>402.0</ele><time>2026-03-28T14:18:58.21Z</time></trkpt><trkpt lat="49.197175" lon="10.9731383"><ele>402.0</ele><time>2026-03-28T14:18:59.211Z</time></trkpt><trkpt lat="49.1972883" lon="10.973185"><ele>402.0</ele><time>2026-03-28T14:19:00.215Z</time></trkpt><trkpt lat="49.1973983" lon="10.973235"><ele>402.0</ele><time>2026-03-28T14:19:01.204Z</time></trkpt><trkpt lat="49.197505" lon="10.9732833"><ele>401.6</ele><time>2026-03-28T14:19:02.213Z</time></trkpt><trkpt lat="49.1976067" lon="10.973325"><ele>401.20000000000005</ele><time>2026-03-28T14:19:03.215Z</time></trkpt><trkpt lat="49.1977033" lon="10.97337"><ele>400.8</ele><time>2026-03-28T14:19:04.207Z</time></trkpt><trkpt lat="49.1977967" lon="10.973415"><ele>400.4</ele><time>2026-03-28T14:19:05.213Z</time></trkpt><trkpt lat="49.1978867" lon="10.9734583"><ele>400.0</ele><time>2026-03-28T14:19:06.213Z</time></trkpt><trkpt lat="49.1979733" lon="10.9735033"><ele>400.83333333333337</ele><time>2026-03-28T14:19:07.206Z</time></trkpt><trkpt lat="49.1980533" lon="10.9735367"><ele>401.6666666666667</ele><time>2026-03-28T14:19:08.204Z</time></trkpt><trkpt lat="49.1981333" lon="10.97357"><ele>402.5</ele><time>2026-03-28T14:19:09.207Z</time></trkpt><trkpt lat="49.1982117" lon="10.9735983"><ele>403.33333333333337</ele><time>2026-03-28T14:19:10.212Z</time></trkpt><trkpt lat="49.1982833" lon="10.9736217"><ele>404.1666666666667</ele><time>2026-03-28T14:19:11.211Z</time></trkpt><trkpt lat="49.1983983" lon="10.9736567"><ele>405.0</ele><time>2026-03-28T14:19:13.206Z</time></trkpt><trkpt lat="49.1984917" lon="10.9736883"><ele>405.0</ele><time>2026-03-28T14:19:15.209Z</time></trkpt><trkpt lat="49.1985817" lon="10.9737233"><ele>405.0</ele><time>2026-03-28T14:19:17.213Z</time></trkpt><trkpt lat="49.1986717" lon="10.973765"><ele>405.0</ele><time>2026-03-28T14:19:19.211Z</time></trkpt><trkpt lat="49.1987583" lon="10.9738083"><ele>405.0</ele><time>2026-03-28T14:19:21.209Z</time></trkpt><trkpt lat="49.1988367" lon="10.973865"><ele>405.0</ele><time>2026-03-28T14:19:23.208Z</time></trkpt><trkpt lat="49.198895" lon="10.973905"><ele>405.0</ele><time>2026-03-28T14:19:25.201Z</time></trkpt><trkpt lat="49.19898" lon="10.9739317"><ele>404.4</ele><time>2026-03-28T14:19:28.209Z</time></trkpt><trkpt lat="49.1990483" lon="10.973955"><ele>403.8</ele><time>2026-03-28T14:19:31.217Z</time></trkpt><trkpt lat="49.1991283" lon="10.9739867"><ele>403.20000000000005</ele><time>2026-03-28T14:19:33.213Z</time></trkpt><trkpt lat="49.19922" lon="10.9740383"><ele>402.6</ele><time>2026-03-28T14:19:35.214Z</time></trkpt><trkpt lat="49.1993233" lon="10.9741017"><ele>402.0</ele><time>2026-03-28T14:19:37.21Z</time></trkpt><trkpt lat="49.19944" lon="10.9741733"><ele>402.5</ele><time>2026-03-28T14:19:39.208Z</time></trkpt><trkpt lat="49.19951" lon="10.974215"><ele>403.0</ele><time>2026-03-28T14:19:40.215Z</time></trkpt><trkpt lat="49.199595" lon="10.9742683"><ele>403.5</ele><time>2026-03-28T14:19:41.214Z</time></trkpt><trkpt lat="49.1996833" lon="10.9743267"><ele>404.0</ele><time>2026-03-28T14:19:42.222Z</time></trkpt><trkpt lat="49.1997667" lon="10.974375"><ele>404.5</ele><time>2026-03-28T14:19:43.21Z</time></trkpt><trkpt lat="49.1998483" lon="10.97442"><ele>405.0</ele><time>2026-03-28T14:19:44.21Z</time></trkpt><trkpt lat="49.1999267" lon="10.974465"><ele>405.0</ele><time>2026-03-28T14:19:45.21Z</time></trkpt><trkpt lat="49.2000033" lon="10.9745083"><ele>405.0</ele><time>2026-03-28T14:19:46.21Z</time></trkpt><trkpt lat="49.2000833" lon="10.9745517"><ele>405.0</ele><time>2026-03-28T14:19:47.215Z</time></trkpt><trkpt lat="49.200165" lon="10.9745867"><ele>405.0</ele><time>2026-03-28T14:19:48.214Z</time></trkpt><trkpt lat="49.200245" lon="10.97462"><ele>405.0</ele><time>2026-03-28T14:19:49.21Z</time></trkpt><trkpt lat="49.2003267" lon="10.9746517"><ele>405.0</ele><time>2026-03-28T14:19:50.212Z</time></trkpt><trkpt lat="49.2004083" lon="10.9746833"><ele>405.0</ele><time>2026-03-28T14:19:51.205Z</time></trkpt><trkpt lat="49.20049" lon="10.974715"><ele>405.0</ele><time>2026-03-28T14:19:52.216Z</time></trkpt><trkpt lat="49.2005733" lon="10.9747533"><ele>405.0</ele><time>2026-03-28T14:19:53.209Z</time></trkpt><trkpt lat="49.2006533" lon="10.97479"><ele>405.0</ele><time>2026-03-28T14:19:54.216Z</time></trkpt><trkpt lat="49.2007383" lon="10.9748283"><ele>405.0</ele><time>2026-03-28T14:19:55.211Z</time></trkpt><trkpt lat="49.2008217" lon="10.9748633"><ele>405.0</ele><time>2026-03-28T14:19:56.209Z</time></trkpt><trkpt lat="49.2009" lon="10.9748967"><ele>404.8333333333333</ele><time>2026-03-28T14:19:57.209Z</time></trkpt><trkpt lat="49.200975" lon="10.9749333"><ele>404.66666666666663</ele><time>2026-03-28T14:19:58.205Z</time></trkpt><trkpt lat="49.2010517" lon="10.9749817"><ele>404.5</ele><time>2026-03-28T14:19:59.203Z</time></trkpt><trkpt lat="49.201125" lon="10.975035"><ele>404.3333333333333</ele><time>2026-03-28T14:20:00.225Z</time></trkpt><trkpt lat="49.201195" lon="10.975095"><ele>404.16666666666663</ele><time>2026-03-28T14:20:01.203Z</time></trkpt><trkpt lat="49.2012633" lon="10.9751533"><ele>404.0</ele><time>2026-03-28T14:20:02.206Z</time></trkpt><trkpt lat="49.2013333" lon="10.9752083"><ele>403.99999999999994</ele><time>2026-03-28T14:20:03.212Z</time></trkpt><trkpt lat="49.2014083" lon="10.975255"><ele>404.0</ele><time>2026-03-28T14:20:04.212Z</time></trkpt><trkpt lat="49.201485" lon="10.9752883"><ele>404.0</ele><time>2026-03-28T14:20:05.204Z</time></trkpt><trkpt lat="49.20156" lon="10.9753133"><ele>404.0</ele><time>2026-03-28T14:20:06.202Z</time></trkpt><trkpt lat="49.2016417" lon="10.97533"><ele>403.99999999999994</ele><time>2026-03-28T14:20:07.212Z</time></trkpt><trkpt lat="49.2017267" lon="10.9753417"><ele>404.0</ele><time>2026-03-28T14:20:08.215Z</time></trkpt><trkpt lat="49.2018017" lon="10.9753583"><ele>403.66666666666663</ele><time>2026-03-28T14:20:09.208Z</time></trkpt><trkpt lat="49.2018733" lon="10.975375"><ele>403.3333333333333</ele><time>2026-03-28T14:20:10.212Z</time></trkpt><trkpt lat="49.2019517" lon="10.9753917"><ele>403.0</ele><time>2026-03-28T14:20:11.21Z</time></trkpt><trkpt lat="49.2020233" lon="10.9754083"><ele>402.66666666666663</ele><time>2026-03-28T14:20:12.204Z</time></trkpt><trkpt lat="49.2020967" lon="10.9754133"><ele>402.3333333333333</ele><time>2026-03-28T14:20:13.201Z</time></trkpt><trkpt lat="49.2021733" lon="10.9754133"><ele>402.0</ele><time>2026-03-28T14:20:14.204Z</time></trkpt><trkpt lat="49.2022517" lon="10.9754117"><ele>399.6</ele><time>2026-03-28T14:20:15.204Z</time></trkpt><trkpt lat="49.2023417" lon="10.9753933"><ele>397.20000000000005</ele><time>2026-03-28T14:20:16.218Z</time></trkpt><trkpt lat="49.2024383" lon="10.9753567"><ele>394.8</ele><time>2026-03-28T14:20:17.213Z</time></trkpt><trkpt lat="49.202535" lon="10.975315"><ele>392.4</ele><time>2026-03-28T14:20:18.208Z</time></trkpt><trkpt lat="49.202635" lon="10.9752717"><ele>390.0</ele><time>2026-03-28T14:20:19.214Z</time></trkpt><trkpt lat="49.2027317" lon="10.9752333"><ele>390.0</ele><time>2026-03-28T14:20:20.22Z</time></trkpt><trkpt lat="49.2028283" lon="10.975205"><ele>390.0</ele><time>2026-03-28T14:20:21.21Z</time></trkpt><trkpt lat="49.2029317" lon="10.9751867"><ele>390.0</ele><time>2026-03-28T14:20:22.211Z</time></trkpt><trkpt lat="49.203045" lon="10.9751783"><ele>390.0</ele><time>2026-03-28T14:20:23.205Z</time></trkpt><trkpt lat="49.2031633" lon="10.9751783"><ele>390.0</ele><time>2026-03-28T14:20:24.203Z</time></trkpt><trkpt lat="49.2032817" lon="10.9751867"><ele>389.75</ele><time>2026-03-28T14:20:25.213Z</time></trkpt><trkpt lat="49.2034" lon="10.9752017"><ele>389.5</ele><time>2026-03-28T14:20:26.209Z</time></trkpt><trkpt lat="49.2035183" lon="10.975235"><ele>389.25</ele><time>2026-03-28T14:20:27.221Z</time></trkpt><trkpt lat="49.20363" lon="10.9752883"><ele>389.0</ele><time>2026-03-28T14:20:28.21Z</time></trkpt><trkpt lat="49.2037383" lon="10.975355"><ele>389.0</ele><time>2026-03-28T14:20:29.201Z</time></trkpt><trkpt lat="49.2038433" lon="10.9754267"><ele>389.0</ele><time>2026-03-28T14:20:30.21Z</time></trkpt><trkpt lat="49.203945" lon="10.9754983"><ele>389.0</ele><time>2026-03-28T14:20:31.207Z</time></trkpt><trkpt lat="49.204045" lon="10.975565"><ele>389.0</ele><time>2026-03-28T14:20:32.206Z</time></trkpt><trkpt lat="49.2041467" lon="10.9756267"><ele>389.0</ele><time>2026-03-28T14:20:33.204Z</time></trkpt><trkpt lat="49.20425" lon="10.9756733"><ele>388.0</ele><time>2026-03-28T14:20:34.214Z</time></trkpt><trkpt lat="49.2043567" lon="10.9757033"><ele>387.0</ele><time>2026-03-28T14:20:35.207Z</time></trkpt><trkpt lat="49.204465" lon="10.975715"><ele>386.0</ele><time>2026-03-28T14:20:36.211Z</time></trkpt><trkpt lat="49.2045717" lon="10.9757167"><ele>385.0</ele><time>2026-03-28T14:20:37.214Z</time></trkpt><trkpt lat="49.2046783" lon="10.9757117"><ele>384.0</ele><time>2026-03-28T14:20:38.205Z</time></trkpt><trkpt lat="49.204785" lon="10.9757033"><ele>383.4</ele><time>2026-03-28T14:20:39.213Z</time></trkpt><trkpt lat="49.20489" lon="10.9756983"><ele>382.79999999999995</ele><time>2026-03-28T14:20:40.202Z</time></trkpt><trkpt lat="49.2049917" lon="10.9757017"><ele>382.20000000000005</ele><time>2026-03-28T14:20:41.217Z</time></trkpt><trkpt lat="49.2050917" lon="10.97572"><ele>381.6</ele><time>2026-03-28T14:20:42.201Z</time></trkpt><trkpt lat="49.20519" lon="10.9757517"><ele>381.0</ele><time>2026-03-28T14:20:43.21Z</time></trkpt><trkpt lat="49.2052833" lon="10.9757883"><ele>381.0</ele><time>2026-03-28T14:20:44.202Z</time></trkpt><trkpt lat="49.2053667" lon="10.9758217"><ele>381.0</ele><time>2026-03-28T14:20:45.208Z</time></trkpt><trkpt lat="49.205445" lon="10.9758517"><ele>381.0</ele><time>2026-03-28T14:20:46.206Z</time></trkpt><trkpt lat="49.2055183" lon="10.97587"><ele>381.0</ele><time>2026-03-28T14:20:47.208Z</time></trkpt><trkpt lat="49.2055817" lon="10.9758817"><ele>381.0</ele><time>2026-03-28T14:20:48.215Z</time></trkpt><trkpt lat="49.2056983" lon="10.97591"><ele>381.0</ele><time>2026-03-28T14:20:50.208Z</time></trkpt><trkpt lat="49.2057583" lon="10.975945"><ele>380.6</ele><time>2026-03-28T14:20:51.209Z</time></trkpt><trkpt lat="49.20582" lon="10.976005"><ele>380.20000000000005</ele><time>2026-03-28T14:20:52.207Z</time></trkpt><trkpt lat="49.2058883" lon="10.97609"><ele>379.79999999999995</ele><time>2026-03-28T14:20:53.209Z</time></trkpt><trkpt lat="49.2059667" lon="10.9761867"><ele>379.4</ele><time>2026-03-28T14:20:54.206Z</time></trkpt><trkpt lat="49.2060533" lon="10.9762833"><ele>379.0</ele><time>2026-03-28T14:20:55.209Z</time></trkpt><trkpt lat="49.20615" lon="10.97638"><ele>379.0</ele><time>2026-03-28T14:20:56.206Z</time></trkpt><trkpt lat="49.2062467" lon="10.9764767"><ele>379.0</ele><time>2026-03-28T14:20:57.209Z</time></trkpt><trkpt lat="49.20634" lon="10.97657"><ele>379.0</ele><time>2026-03-28T14:20:58.197Z</time></trkpt><trkpt lat="49.20643" lon="10.97666"><ele>379.0</ele><time>2026-03-28T14:20:59.203Z</time></trkpt><trkpt lat="49.2065167" lon="10.9767417"><ele>379.0</ele><time>2026-03-28T14:21:00.204Z</time></trkpt><trkpt lat="49.2065983" lon="10.97682"><ele>378.66666666666663</ele><time>2026-03-28T14:21:01.206Z</time></trkpt><trkpt lat="49.2066767" lon="10.976895"><ele>378.3333333333333</ele><time>2026-03-28T14:21:02.208Z</time></trkpt><trkpt lat="49.2067533" lon="10.9769667"><ele>378.0</ele><time>2026-03-28T14:21:03.205Z</time></trkpt><trkpt lat="49.2068267" lon="10.977025"><ele>377.6666666666667</ele><time>2026-03-28T14:21:04.206Z</time></trkpt><trkpt lat="49.2069" lon="10.97707"><ele>377.33333333333337</ele><time>2026-03-28T14:21:05.202Z</time></trkpt><trkpt lat="49.2069717" lon="10.9771083"><ele>377.0</ele><time>2026-03-28T14:21:06.212Z</time></trkpt><trkpt lat="49.2070333" lon="10.97714"><ele>376.99999999999994</ele><time>2026-03-28T14:21:07.208Z</time></trkpt><trkpt lat="49.20711" lon="10.977135"><ele>377.0</ele><time>2026-03-28T14:21:09.21Z</time></trkpt><trkpt lat="49.2071283" lon="10.9770417"><ele>377.0</ele><time>2026-03-28T14:21:11.208Z</time></trkpt><trkpt lat="49.2071183" lon="10.97689"><ele>377.0</ele><time>2026-03-28T14:21:13.21Z</time></trkpt><trkpt lat="49.2071183" lon="10.9767933"><ele>377.0</ele><time>2026-03-28T14:21:14.209Z</time></trkpt><trkpt lat="49.2071283" lon="10.9766867"><ele>376.99999999999994</ele><time>2026-03-28T14:21:15.213Z</time></trkpt><trkpt lat="49.207145" lon="10.97658"><ele>377.0</ele><time>2026-03-28T14:21:16.201Z</time></trkpt><trkpt lat="49.20716" lon="10.976465"><ele>377.1666666666667</ele><time>2026-03-28T14:21:17.209Z</time></trkpt><trkpt lat="49.207175" lon="10.976345"><ele>377.33333333333337</ele><time>2026-03-28T14:21:18.206Z</time></trkpt><trkpt lat="49.20719" lon="10.9762267"><ele>377.5</ele><time>2026-03-28T14:21:19.208Z</time></trkpt><trkpt lat="49.2072033" lon="10.9761117"><ele>377.6666666666667</ele><time>2026-03-28T14:21:20.214Z</time></trkpt><trkpt lat="49.2072167" lon="10.9759933"><ele>377.8333333333333</ele><time>2026-03-28T14:21:21.213Z</time></trkpt><trkpt lat="49.2072333" lon="10.975875"><ele>378.0</ele><time>2026-03-28T14:21:22.212Z</time></trkpt><trkpt lat="49.2072483" lon="10.9757567"><ele>378.0</ele><time>2026-03-28T14:21:23.205Z</time></trkpt><trkpt lat="49.2072617" lon="10.9756383"><ele>378.0</ele><time>2026-03-28T14:21:24.211Z</time></trkpt><trkpt lat="49.20727" lon="10.9755183"><ele>378.0</ele><time>2026-03-28T14:21:25.205Z</time></trkpt><trkpt lat="49.2072767" lon="10.9753967"><ele>378.0</ele><time>2026-03-28T14:21:26.198Z</time></trkpt><trkpt lat="49.2072883" lon="10.9752767"><ele>378.0</ele><time>2026-03-28T14:21:27.208Z</time></trkpt><trkpt lat="49.2073" lon="10.9751583"><ele>378.0</ele><time>2026-03-28T14:21:28.213Z</time></trkpt><trkpt lat="49.2073117" lon="10.9750417"><ele>378.0</ele><time>2026-03-28T14:21:29.21Z</time></trkpt><trkpt lat="49.2073217" lon="10.9749267"><ele>378.0</ele><time>2026-03-28T14:21:30.211Z</time></trkpt><trkpt lat="49.2073267" lon="10.9748183"><ele>378.0</ele><time>2026-03-28T14:21:31.197Z</time></trkpt><trkpt lat="49.2073333" lon="10.9747133"><ele>378.0</ele><time>2026-03-28T14:21:32.216Z</time></trkpt><trkpt lat="49.20734" lon="10.9746117"><ele>378.0</ele><time>2026-03-28T14:21:33.21Z</time></trkpt><trkpt lat="49.2073517" lon="10.974515"><ele>378.0</ele><time>2026-03-28T14:21:34.207Z</time></trkpt><trkpt lat="49.2073667" lon="10.97442"><ele>378.0</ele><time>2026-03-28T14:21:35.211Z</time></trkpt><trkpt lat="49.20739" lon="10.97433"><ele>377.6666666666667</ele><time>2026-03-28T14:21:36.2Z</time></trkpt><trkpt lat="49.2074217" lon="10.9742417"><ele>377.3333333333333</ele><time>2026-03-28T14:21:37.21Z</time></trkpt><trkpt lat="49.207455" lon="10.9741467"><ele>377.0</ele><time>2026-03-28T14:21:38.213Z</time></trkpt><trkpt lat="49.20749" lon="10.9740383"><ele>376.66666666666663</ele><time>2026-03-28T14:21:39.216Z</time></trkpt><trkpt lat="49.20752" lon="10.9739183"><ele>376.3333333333333</ele><time>2026-03-28T14:21:40.219Z</time></trkpt><trkpt lat="49.20754" lon="10.9737817"><ele>376.0</ele><time>2026-03-28T14:21:41.211Z</time></trkpt><trkpt lat="49.2075517" lon="10.9736267"><ele>376.0</ele><time>2026-03-28T14:21:42.207Z</time></trkpt><trkpt lat="49.207565" lon="10.97346"><ele>376.0</ele><time>2026-03-28T14:21:43.21Z</time></trkpt><trkpt lat="49.20758" lon="10.9732917"><ele>376.0</ele><time>2026-03-28T14:21:44.214Z</time></trkpt><trkpt lat="49.207595" lon="10.9731217"><ele>376.0</ele><time>2026-03-28T14:21:45.209Z</time></trkpt><trkpt lat="49.2076117" lon="10.9729517"><ele>376.0</ele><time>2026-03-28T14:21:46.203Z</time></trkpt><trkpt lat="49.20763" lon="10.9727783"><ele>376.0</ele><time>2026-03-28T14:21:47.212Z</time></trkpt><trkpt lat="49.2076483" lon="10.9726117"><ele>376.0</ele><time>2026-03-28T14:21:48.209Z</time></trkpt><trkpt lat="49.2076667" lon="10.9724517"><ele>376.0</ele><time>2026-03-28T14:21:49.213Z</time></trkpt><trkpt lat="49.2076883" lon="10.972295"><ele>376.0</ele><time>2026-03-28T14:21:50.218Z</time></trkpt><trkpt lat="49.2077133" lon="10.9721367"><ele>376.0</ele><time>2026-03-28T14:21:51.213Z</time></trkpt><trkpt lat="49.2077367" lon="10.9719767"><ele>376.20000000000005</ele><time>2026-03-28T14:21:52.215Z</time></trkpt><trkpt lat="49.2077533" lon="10.971815"><ele>376.40000000000003</ele><time>2026-03-28T14:21:53.218Z</time></trkpt><trkpt lat="49.2077583" lon="10.971655"><ele>376.6</ele><time>2026-03-28T14:21:54.213Z</time></trkpt><trkpt lat="49.2077533" lon="10.9715"><ele>376.8</ele><time>2026-03-28T14:21:55.215Z</time></trkpt><trkpt lat="49.2077417" lon="10.9713433"><ele>377.0</ele><time>2026-03-28T14:21:56.206Z</time></trkpt><trkpt lat="49.2077283" lon="10.971185"><ele>377.0</ele><time>2026-03-28T14:21:57.209Z</time></trkpt><trkpt lat="49.2077167" lon="10.9710217"><ele>377.0</ele><time>2026-03-28T14:21:58.21Z</time></trkpt><trkpt lat="49.2077117" lon="10.970855"><ele>377.0</ele><time>2026-03-28T14:21:59.209Z</time></trkpt><trkpt lat="49.2077167" lon="10.970675"><ele>377.0</ele><time>2026-03-28T14:22:00.21Z</time></trkpt><trkpt lat="49.2077283" lon="10.9704917"><ele>377.20000000000005</ele><time>2026-03-28T14:22:01.215Z</time></trkpt><trkpt lat="49.2077383" lon="10.9703167"><ele>377.4</ele><time>2026-03-28T14:22:02.204Z</time></trkpt><trkpt lat="49.2077483" lon="10.9701483"><ele>377.6</ele><time>2026-03-28T14:22:03.217Z</time></trkpt><trkpt lat="49.2077617" lon="10.969985"><ele>377.79999999999995</ele><time>2026-03-28T14:22:04.211Z</time></trkpt><trkpt lat="49.2077733" lon="10.969825"><ele>378.0</ele><time>2026-03-28T14:22:05.205Z</time></trkpt><trkpt lat="49.2077867" lon="10.9696683"><ele>378.0</ele><time>2026-03-28T14:22:06.203Z</time></trkpt><trkpt lat="49.2078" lon="10.9695117"><ele>378.0</ele><time>2026-03-28T14:22:07.214Z</time></trkpt><trkpt lat="49.2078183" lon="10.96936"><ele>378.0</ele><time>2026-03-28T14:22:08.209Z</time></trkpt><trkpt lat="49.2078433" lon="10.969215"><ele>378.0</ele><time>2026-03-28T14:22:09.214Z</time></trkpt><trkpt lat="49.20788" lon="10.969075"><ele>378.0</ele><time>2026-03-28T14:22:10.199Z</time></trkpt><trkpt lat="49.207915" lon="10.96894"><ele>378.2</ele><time>2026-03-28T14:22:11.203Z</time></trkpt><trkpt lat="49.20794" lon="10.9688067"><ele>378.4</ele><time>2026-03-28T14:22:12.201Z</time></trkpt><trkpt lat="49.2079517" lon="10.9686733"><ele>378.59999999999997</ele><time>2026-03-28T14:22:13.2Z</time></trkpt><trkpt lat="49.20795" lon="10.9685383"><ele>378.79999999999995</ele><time>2026-03-28T14:22:14.204Z</time></trkpt><trkpt lat="49.2079367" lon="10.968395"><ele>379.0</ele><time>2026-03-28T14:22:15.197Z</time></trkpt><trkpt lat="49.207915" lon="10.9682583"><ele>379.0</ele><time>2026-03-28T14:22:16.201Z</time></trkpt><trkpt lat="49.20789" lon="10.9681367"><ele>379.0</ele><time>2026-03-28T14:22:17.211Z</time></trkpt><trkpt lat="49.2078617" lon="10.96803"><ele>379.0</ele><time>2026-03-28T14:22:18.207Z</time></trkpt><trkpt lat="49.20784" lon="10.9679333"><ele>379.0</ele><time>2026-03-28T14:22:19.212Z</time></trkpt><trkpt lat="49.207835" lon="10.9677483"><ele>379.0</ele><time>2026-03-28T14:22:21.219Z</time></trkpt><trkpt lat="49.2079033" lon="10.9676017"><ele>379.00000000000006</ele><time>2026-03-28T14:22:23.211Z</time></trkpt><trkpt lat="49.2079583" lon="10.9675367"><ele>379.0</ele><time>2026-03-28T14:22:24.2Z</time></trkpt><trkpt lat="49.20802" lon="10.9674767"><ele>379.0</ele><time>2026-03-28T14:22:25.209Z</time></trkpt><trkpt lat="49.2080867" lon="10.9674317"><ele>379.0</ele><time>2026-03-28T14:22:26.212Z</time></trkpt><trkpt lat="49.208155" lon="10.9674117"><ele>379.0</ele><time>2026-03-28T14:22:27.207Z</time></trkpt><trkpt lat="49.2082317" lon="10.9674133"><ele>379.00000000000006</ele><time>2026-03-28T14:22:28.212Z</time></trkpt><trkpt lat="49.208315" lon="10.96743"><ele>379.0</ele><time>2026-03-28T14:22:29.208Z</time></trkpt><trkpt lat="49.208405" lon="10.967445"><ele>379.8333333333333</ele><time>2026-03-28T14:22:30.214Z</time></trkpt><trkpt lat="49.2084983" lon="10.9674383"><ele>380.66666666666663</ele><time>2026-03-28T14:22:31.197Z</time></trkpt><trkpt lat="49.20859" lon="10.967415"><ele>381.5</ele><time>2026-03-28T14:22:32.201Z</time></trkpt><trkpt lat="49.208675" lon="10.9673767"><ele>382.3333333333333</ele><time>2026-03-28T14:22:33.199Z</time></trkpt><trkpt lat="49.2087567" lon="10.9673317"><ele>383.1666666666667</ele><time>2026-03-28T14:22:34.206Z</time></trkpt><trkpt lat="49.2088317" lon="10.9672817"><ele>384.0</ele><time>2026-03-28T14:22:35.212Z</time></trkpt><trkpt lat="49.2089" lon="10.9672283"><ele>383.99999999999994</ele><time>2026-03-28T14:22:36.206Z</time></trkpt><trkpt lat="49.2089633" lon="10.9671633"><ele>384.0</ele><time>2026-03-28T14:22:37.214Z</time></trkpt><trkpt lat="49.209015" lon="10.967085"><ele>384.0</ele><time>2026-03-28T14:22:38.206Z</time></trkpt><trkpt lat="49.2090533" lon="10.966995"><ele>384.0</ele><time>2026-03-28T14:22:39.222Z</time></trkpt><trkpt lat="49.2090833" lon="10.9669"><ele>384.0</ele><time>2026-03-28T14:22:40.206Z</time></trkpt><trkpt lat="49.209105" lon="10.9667983"><ele>383.99999999999994</ele><time>2026-03-28T14:22:41.211Z</time></trkpt><trkpt lat="49.2091183" lon="10.9666967"><ele>384.0</ele><time>2026-03-28T14:22:42.205Z</time></trkpt><trkpt lat="49.2091283" lon="10.966595"><ele>384.4</ele><time>2026-03-28T14:22:43.2Z</time></trkpt><trkpt lat="49.2091333" lon="10.966495"><ele>384.79999999999995</ele><time>2026-03-28T14:22:44.207Z</time></trkpt><trkpt lat="49.2091567" lon="10.9663283"><ele>385.20000000000005</ele><time>2026-03-28T14:22:46.209Z</time></trkpt><trkpt lat="49.2092233" lon="10.966225"><ele>385.6</ele><time>2026-03-28T14:22:48.208Z</time></trkpt><trkpt lat="49.20934" lon="10.96623"><ele>386.0</ele><time>2026-03-28T14:22:50.206Z</time></trkpt><trkpt lat="49.2094167" lon="10.966275"><ele>386.0</ele><time>2026-03-28T14:22:51.215Z</time></trkpt><trkpt lat="49.2095033" lon="10.96635"><ele>386.0</ele><time>2026-03-28T14:22:52.207Z</time></trkpt><trkpt lat="49.2096117" lon="10.96644"><ele>386.0</ele><time>2026-03-28T14:22:53.216Z</time></trkpt><trkpt lat="49.209725" lon="10.9665267"><ele>386.0</ele><time>2026-03-28T14:22:54.206Z</time></trkpt><trkpt lat="49.2098333" lon="10.9666033"><ele>384.49999999999994</ele><time>2026-03-28T14:22:55.21Z</time></trkpt><trkpt lat="49.20993" lon="10.9666617"><ele>383.0</ele><time>2026-03-28T14:22:56.211Z</time></trkpt><trkpt lat="49.210015" lon="10.9667067"><ele>381.5</ele><time>2026-03-28T14:22:57.211Z</time></trkpt><trkpt lat="49.210095" lon="10.9667467"><ele>380.0</ele><time>2026-03-28T14:22:58.21Z</time></trkpt><trkpt lat="49.210175" lon="10.9667917"><ele>378.5</ele><time>2026-03-28T14:22:59.211Z</time></trkpt><trkpt lat="49.2102517" lon="10.9668483"><ele>377.0</ele><time>2026-03-28T14:23:00.205Z</time></trkpt><trkpt lat="49.21032" lon="10.9669233"><ele>377.0</ele><time>2026-03-28T14:23:01.205Z</time></trkpt><trkpt lat="49.21038" lon="10.967015"><ele>377.0</ele><time>2026-03-28T14:23:02.217Z</time></trkpt><trkpt lat="49.21043" lon="10.9671167"><ele>377.0</ele><time>2026-03-28T14:23:03.207Z</time></trkpt><trkpt lat="49.2104783" lon="10.967215"><ele>377.0</ele><time>2026-03-28T14:23:04.207Z</time></trkpt><trkpt lat="49.2105333" lon="10.9672967"><ele>377.0</ele><time>2026-03-28T14:23:05.211Z</time></trkpt><trkpt lat="49.2105967" lon="10.9673583"><ele>377.0</ele><time>2026-03-28T14:23:06.2Z</time></trkpt><trkpt lat="49.21067" lon="10.9674"><ele>377.0</ele><time>2026-03-28T14:23:07.205Z</time></trkpt><trkpt lat="49.2107567" lon="10.967435"><ele>377.0</ele><time>2026-03-28T14:23:08.211Z</time></trkpt><trkpt lat="49.2108617" lon="10.96746"><ele>377.0</ele><time>2026-03-28T14:23:09.213Z</time></trkpt><trkpt lat="49.2109683" lon="10.9674767"><ele>377.0</ele><time>2026-03-28T14:23:10.212Z</time></trkpt><trkpt lat="49.2110717" lon="10.9674783"><ele>377.0</ele><time>2026-03-28T14:23:11.222Z</time></trkpt><trkpt lat="49.2111833" lon="10.9674667"><ele>377.0</ele><time>2026-03-28T14:23:12.203Z</time></trkpt><trkpt lat="49.211305" lon="10.9674533"><ele>377.0</ele><time>2026-03-28T14:23:13.215Z</time></trkpt><trkpt lat="49.2114217" lon="10.967445"><ele>377.0</ele><time>2026-03-28T14:23:14.207Z</time></trkpt><trkpt lat="49.2115267" lon="10.9674483"><ele>377.0</ele><time>2026-03-28T14:23:15.214Z</time></trkpt><trkpt lat="49.2116167" lon="10.9674733"><ele>377.0</ele><time>2026-03-28T14:23:16.212Z</time></trkpt><trkpt lat="49.2116933" lon="10.9675233"><ele>377.1666666666667</ele><time>2026-03-28T14:23:17.212Z</time></trkpt><trkpt lat="49.2117483" lon="10.96759"><ele>377.33333333333337</ele><time>2026-03-28T14:23:18.211Z</time></trkpt><trkpt lat="49.21179" lon="10.9676683"><ele>377.5</ele><time>2026-03-28T14:23:19.208Z</time></trkpt><trkpt lat="49.2118233" lon="10.96777"><ele>377.6666666666667</ele><time>2026-03-28T14:23:20.209Z</time></trkpt><trkpt lat="49.2118583" lon="10.9678983"><ele>377.8333333333333</ele><time>2026-03-28T14:23:21.205Z</time></trkpt><trkpt lat="49.2118917" lon="10.96803"><ele>378.0</ele><time>2026-03-28T14:23:22.201Z</time></trkpt><trkpt lat="49.21192" lon="10.9681517"><ele>378.0</ele><time>2026-03-28T14:23:23.211Z</time></trkpt><trkpt lat="49.2119467" lon="10.96826"><ele>378.0</ele><time>2026-03-28T14:23:24.212Z</time></trkpt><trkpt lat="49.21197" lon="10.96835"><ele>378.0</ele><time>2026-03-28T14:23:25.208Z</time></trkpt><trkpt lat="49.2119983" lon="10.9684567"><ele>378.0</ele><time>2026-03-28T14:23:27.214Z</time></trkpt><trkpt lat="49.21201" lon="10.9685717"><ele>378.0</ele><time>2026-03-28T14:23:33.21Z</time></trkpt><trkpt lat="49.2119817" lon="10.968665"><ele>378.0</ele><time>2026-03-28T14:23:34.206Z</time></trkpt><trkpt lat="49.21193" lon="10.9687783"><ele>378.0</ele><time>2026-03-28T14:23:35.214Z</time></trkpt><trkpt lat="49.2118683" lon="10.9688967"><ele>378.1666666666667</ele><time>2026-03-28T14:23:36.206Z</time></trkpt><trkpt lat="49.21182" lon="10.9689983"><ele>378.3333333333333</ele><time>2026-03-28T14:23:37.208Z</time></trkpt><trkpt lat="49.2117817" lon="10.969085"><ele>378.5</ele><time>2026-03-28T14:23:38.209Z</time></trkpt><trkpt lat="49.2117817" lon="10.96921"><ele>378.66666666666663</ele><time>2026-03-28T14:23:40.213Z</time></trkpt><trkpt lat="49.2118867" lon="10.96921"><ele>378.8333333333333</ele><time>2026-03-28T14:23:42.208Z</time></trkpt><trkpt lat="49.2119867" lon="10.969165"><ele>379.0</ele><time>2026-03-28T14:23:43.203Z</time></trkpt><trkpt lat="49.2120967" lon="10.9691017"><ele>379.0</ele><time>2026-03-28T14:23:44.212Z</time></trkpt><trkpt lat="49.2122183" lon="10.9690167"><ele>379.0</ele><time>2026-03-28T14:23:45.204Z</time></trkpt><trkpt lat="49.2123567" lon="10.9689183"><ele>379.0</ele><time>2026-03-28T14:23:46.214Z</time></trkpt><trkpt lat="49.2125117" lon="10.9688133"><ele>379.3333333333333</ele><time>2026-03-28T14:23:47.21Z</time></trkpt><trkpt lat="49.212665" lon="10.96872"><ele>379.6666666666667</ele><time>2026-03-28T14:23:48.209Z</time></trkpt><trkpt lat="49.2128067" lon="10.96864"><ele>380.0</ele><time>2026-03-28T14:23:49.216Z</time></trkpt><trkpt lat="49.212935" lon="10.9685667"><ele>380.0</ele><time>2026-03-28T14:23:50.198Z</time></trkpt><trkpt lat="49.213055" lon="10.9684967"><ele>380.0</ele><time>2026-03-28T14:23:51.217Z</time></trkpt><trkpt lat="49.2131717" lon="10.9684267"><ele>380.0</ele><time>2026-03-28T14:23:52.205Z</time></trkpt><trkpt lat="49.2132883" lon="10.968355"><ele>380.0</ele><time>2026-03-28T14:23:53.204Z</time></trkpt><trkpt lat="49.2133983" lon="10.9682767"><ele>380.6</ele><time>2026-03-28T14:23:54.217Z</time></trkpt><trkpt lat="49.2135" lon="10.9681917"><ele>381.2</ele><time>2026-03-28T14:23:55.208Z</time></trkpt><trkpt lat="49.2135933" lon="10.9681067"><ele>381.79999999999995</ele><time>2026-03-28T14:23:56.212Z</time></trkpt><trkpt lat="49.2136817" lon="10.9680233"><ele>382.4</ele><time>2026-03-28T14:23:57.203Z</time></trkpt><trkpt lat="49.2137733" lon="10.96795"><ele>383.0</ele><time>2026-03-28T14:23:58.203Z</time></trkpt><trkpt lat="49.2138667" lon="10.9678883"><ele>383.0</ele><time>2026-03-28T14:23:59.21Z</time></trkpt><trkpt lat="49.2139567" lon="10.9678467"><ele>383.0</ele><time>2026-03-28T14:24:00.211Z</time></trkpt><trkpt lat="49.2140417" lon="10.9678233"><ele>383.0</ele><time>2026-03-28T14:24:01.208Z</time></trkpt><trkpt lat="49.2141283" lon="10.9678067"><ele>383.0</ele><time>2026-03-28T14:24:02.21Z</time></trkpt><trkpt lat="49.2142133" lon="10.9678"><ele>383.0</ele><time>2026-03-28T14:24:03.21Z</time></trkpt><trkpt lat="49.2143017" lon="10.9677933"><ele>383.0</ele><time>2026-03-28T14:24:04.202Z</time></trkpt><trkpt lat="49.2143883" lon="10.9677883"><ele>385.1666666666667</ele><time>2026-03-28T14:24:05.211Z</time></trkpt><trkpt lat="49.2144767" lon="10.9677933"><ele>387.33333333333337</ele><time>2026-03-28T14:24:06.211Z</time></trkpt><trkpt lat="49.2145633" lon="10.967795"><ele>389.5</ele><time>2026-03-28T14:24:07.204Z</time></trkpt><trkpt lat="49.2146483" lon="10.9677917"><ele>391.6666666666667</ele><time>2026-03-28T14:24:08.214Z</time></trkpt><trkpt lat="49.2147317" lon="10.96778"><ele>393.8333333333333</ele><time>2026-03-28T14:24:09.204Z</time></trkpt><trkpt lat="49.2148117" lon="10.9677583"><ele>396.0</ele><time>2026-03-28T14:24:10.213Z</time></trkpt><trkpt lat="49.2148967" lon="10.96774"><ele>396.6666666666667</ele><time>2026-03-28T14:24:11.211Z</time></trkpt><trkpt lat="49.21498" lon="10.9677067"><ele>397.33333333333337</ele><time>2026-03-28T14:24:12.207Z</time></trkpt><trkpt lat="49.2150583" lon="10.9676717"><ele>398.0</ele><time>2026-03-28T14:24:13.207Z</time></trkpt><trkpt lat="49.215135" lon="10.967635"><ele>398.6666666666667</ele><time>2026-03-28T14:24:14.21Z</time></trkpt><trkpt lat="49.2152167" lon="10.9675883"><ele>399.33333333333337</ele><time>2026-03-28T14:24:15.207Z</time></trkpt><trkpt lat="49.2152933" lon="10.96753"><ele>400.0</ele><time>2026-03-28T14:24:16.214Z</time></trkpt><trkpt lat="49.215365" lon="10.9674667"><ele>400.00000000000006</ele><time>2026-03-28T14:24:17.219Z</time></trkpt><trkpt lat="49.2154383" lon="10.9674017"><ele>400.0</ele><time>2026-03-28T14:24:18.214Z</time></trkpt><trkpt lat="49.2155117" lon="10.9673317"><ele>400.0</ele><time>2026-03-28T14:24:19.209Z</time></trkpt><trkpt lat="49.21559" lon="10.9672583"><ele>400.0</ele><time>2026-03-28T14:24:20.205Z</time></trkpt><trkpt lat="49.2156683" lon="10.9671817"><ele>400.00000000000006</ele><time>2026-03-28T14:24:21.209Z</time></trkpt><trkpt lat="49.2157433" lon="10.9671017"><ele>400.0</ele><time>2026-03-28T14:24:22.207Z</time></trkpt><trkpt lat="49.21582" lon="10.96702"><ele>399.8</ele><time>2026-03-28T14:24:23.218Z</time></trkpt><trkpt lat="49.215895" lon="10.9669383"><ele>399.6</ele><time>2026-03-28T14:24:24.205Z</time></trkpt><trkpt lat="49.2159733" lon="10.966845"><ele>399.4</ele><time>2026-03-28T14:24:25.205Z</time></trkpt><trkpt lat="49.21605" lon="10.9667467"><ele>399.2</ele><time>2026-03-28T14:24:26.208Z</time></trkpt><trkpt lat="49.21612" lon="10.9666517"><ele>399.0</ele><time>2026-03-28T14:24:27.208Z</time></trkpt><trkpt lat="49.216185" lon="10.9665567"><ele>399.0</ele><time>2026-03-28T14:24:28.219Z</time></trkpt><trkpt lat="49.2162517" lon="10.9664667"><ele>399.0</ele><time>2026-03-28T14:24:29.211Z</time></trkpt><trkpt lat="49.2163217" lon="10.9663767"><ele>399.0</ele><time>2026-03-28T14:24:30.216Z</time></trkpt><trkpt lat="49.216395" lon="10.9662833"><ele>399.0</ele><time>2026-03-28T14:24:31.206Z</time></trkpt><trkpt lat="49.2164717" lon="10.9661983"><ele>399.0</ele><time>2026-03-28T14:24:32.203Z</time></trkpt><trkpt lat="49.21655" lon="10.9661317"><ele>397.3333333333333</ele><time>2026-03-28T14:24:33.214Z</time></trkpt><trkpt lat="49.2166317" lon="10.9660833"><ele>395.66666666666663</ele><time>2026-03-28T14:24:34.201Z</time></trkpt><trkpt lat="49.2167167" lon="10.9660483"><ele>394.0</ele><time>2026-03-28T14:24:35.215Z</time></trkpt><trkpt lat="49.2168033" lon="10.9660233"><ele>392.3333333333333</ele><time>2026-03-28T14:24:36.211Z</time></trkpt><trkpt lat="49.2168917" lon="10.965995"><ele>390.66666666666663</ele><time>2026-03-28T14:24:37.211Z</time></trkpt><trkpt lat="49.2169767" lon="10.9659567"><ele>389.0</ele><time>2026-03-28T14:24:38.204Z</time></trkpt><trkpt lat="49.2170583" lon="10.9659117"><ele>390.16666666666663</ele><time>2026-03-28T14:24:39.21Z</time></trkpt><trkpt lat="49.2171317" lon="10.9658533"><ele>391.3333333333333</ele><time>2026-03-28T14:24:40.203Z</time></trkpt><trkpt lat="49.2171917" lon="10.96579"><ele>392.5</ele><time>2026-03-28T14:24:41.21Z</time></trkpt><trkpt lat="49.2172583" lon="10.9657217"><ele>393.66666666666663</ele><time>2026-03-28T14:24:42.214Z</time></trkpt><trkpt lat="49.2173267" lon="10.9656533"><ele>394.8333333333333</ele><time>2026-03-28T14:24:43.214Z</time></trkpt><trkpt lat="49.2173917" lon="10.9655833"><ele>396.0</ele><time>2026-03-28T14:24:44.218Z</time></trkpt><trkpt lat="49.2174533" lon="10.9655133"><ele>396.6666666666667</ele><time>2026-03-28T14:24:45.208Z</time></trkpt><trkpt lat="49.2175133" lon="10.96544"><ele>397.33333333333337</ele><time>2026-03-28T14:24:46.218Z</time></trkpt><trkpt lat="49.21757" lon="10.96536"><ele>398.0</ele><time>2026-03-28T14:24:47.219Z</time></trkpt><trkpt lat="49.2176283" lon="10.9652783"><ele>398.6666666666667</ele><time>2026-03-28T14:24:48.209Z</time></trkpt><trkpt lat="49.217685" lon="10.9651867"><ele>399.33333333333337</ele><time>2026-03-28T14:24:49.218Z</time></trkpt><trkpt lat="49.2177367" lon="10.9650933"><ele>400.0</ele><time>2026-03-28T14:24:50.212Z</time></trkpt><trkpt lat="49.2177817" lon="10.9650017"><ele>400.0</ele><time>2026-03-28T14:24:51.211Z</time></trkpt><trkpt lat="49.2178233" lon="10.96492"><ele>400.0</ele><time>2026-03-28T14:24:52.212Z</time></trkpt><trkpt lat="49.2178983" lon="10.9647933"><ele>400.0</ele><time>2026-03-28T14:24:54.21Z</time></trkpt><trkpt lat="49.2179783" lon="10.964695"><ele>400.0</ele><time>2026-03-28T14:24:56.214Z</time></trkpt><trkpt lat="49.2180617" lon="10.9646333"><ele>400.0</ele><time>2026-03-28T14:24:58.206Z</time></trkpt><trkpt lat="49.218175" lon="10.9645917"><ele>400.5714285714286</ele><time>2026-03-28T14:25:00.21Z</time></trkpt><trkpt lat="49.2182483" lon="10.9645683"><ele>401.14285714285717</ele><time>2026-03-28T14:25:01.207Z</time></trkpt><trkpt lat="49.2183217" lon="10.9645483"><ele>401.7142857142857</ele><time>2026-03-28T14:25:02.204Z</time></trkpt><trkpt lat="49.2183933" lon="10.9645233"><ele>402.28571428571433</ele><time>2026-03-28T14:25:03.215Z</time></trkpt><trkpt lat="49.218465" lon="10.9645033"><ele>402.85714285714283</ele><time>2026-03-28T14:25:04.211Z</time></trkpt><trkpt lat="49.21854" lon="10.964485"><ele>403.42857142857144</ele><time>2026-03-28T14:25:05.208Z</time></trkpt><trkpt lat="49.2186167" lon="10.9644683"><ele>404.0</ele><time>2026-03-28T14:25:06.198Z</time></trkpt><trkpt lat="49.2186933" lon="10.9644533"><ele>403.99999999999994</ele><time>2026-03-28T14:25:07.208Z</time></trkpt><trkpt lat="49.21877" lon="10.9644417"><ele>404.0</ele><time>2026-03-28T14:25:08.212Z</time></trkpt><trkpt lat="49.2188483" lon="10.964435"><ele>404.0</ele><time>2026-03-28T14:25:09.219Z</time></trkpt><trkpt lat="49.2189267" lon="10.9644383"><ele>404.0</ele><time>2026-03-28T14:25:10.204Z</time></trkpt><trkpt lat="49.2190033" lon="10.964445"><ele>403.99999999999994</ele><time>2026-03-28T14:25:11.214Z</time></trkpt><trkpt lat="49.2190817" lon="10.9644467"><ele>404.0</ele><time>2026-03-28T14:25:12.207Z</time></trkpt><trkpt lat="49.21916" lon="10.96445"><ele>404.66666666666663</ele><time>2026-03-28T14:25:13.203Z</time></trkpt><trkpt lat="49.219235" lon="10.9644567"><ele>405.3333333333333</ele><time>2026-03-28T14:25:14.214Z</time></trkpt><trkpt lat="49.219305" lon="10.96446"><ele>406.0</ele><time>2026-03-28T14:25:15.208Z</time></trkpt><trkpt lat="49.2193717" lon="10.9644633"><ele>406.66666666666663</ele><time>2026-03-28T14:25:16.213Z</time></trkpt><trkpt lat="49.2194733" lon="10.9644683"><ele>407.3333333333333</ele><time>2026-03-28T14:25:18.211Z</time></trkpt><trkpt lat="49.219555" lon="10.9644683"><ele>408.0</ele><time>2026-03-28T14:25:20.207Z</time></trkpt><trkpt lat="49.2196433" lon="10.9644383"><ele>408.0</ele><time>2026-03-28T14:25:22.21Z</time></trkpt><trkpt lat="49.219725" lon="10.96436"><ele>408.0</ele><time>2026-03-28T14:25:24.213Z</time></trkpt><trkpt lat="49.21981" lon="10.9642383"><ele>408.0</ele><time>2026-03-28T14:25:26.203Z</time></trkpt><trkpt lat="49.2198483" lon="10.9641617"><ele>408.0</ele><time>2026-03-28T14:25:27.217Z</time></trkpt><trkpt lat="49.219905" lon="10.9639917"><ele>408.0</ele><time>2026-03-28T14:25:29.208Z</time></trkpt><trkpt lat="49.2199233" lon="10.9638933"><ele>408.79999999999995</ele><time>2026-03-28T14:25:30.201Z</time></trkpt><trkpt lat="49.2199467" lon="10.96371"><ele>409.6</ele><time>2026-03-28T14:25:32.215Z</time></trkpt><trkpt lat="49.2199517" lon="10.9635483"><ele>410.4</ele><time>2026-03-28T14:25:34.216Z</time></trkpt><trkpt lat="49.2199433" lon="10.9634183"><ele>411.20000000000005</ele><time>2026-03-28T14:25:36.215Z</time></trkpt><trkpt lat="49.2199167" lon="10.963265"><ele>412.0</ele><time>2026-03-28T14:25:38.214Z</time></trkpt><trkpt lat="49.2198967" lon="10.9631633"><ele>412.00000000000006</ele><time>2026-03-28T14:25:39.211Z</time></trkpt><trkpt lat="49.2198767" lon="10.9630517"><ele>412.0</ele><time>2026-03-28T14:25:40.206Z</time></trkpt><trkpt lat="49.2198583" lon="10.9629383"><ele>412.0</ele><time>2026-03-28T14:25:41.219Z</time></trkpt><trkpt lat="49.2198367" lon="10.9628217"><ele>412.0</ele><time>2026-03-28T14:25:42.214Z</time></trkpt><trkpt lat="49.2198167" lon="10.9627033"><ele>412.00000000000006</ele><time>2026-03-28T14:25:43.205Z</time></trkpt><trkpt lat="49.21979" lon="10.9625783"><ele>412.0</ele><time>2026-03-28T14:25:44.22Z</time></trkpt><trkpt lat="49.2197633" lon="10.9624617"><ele>411.1666666666667</ele><time>2026-03-28T14:25:45.22Z</time></trkpt><trkpt lat="49.2197317" lon="10.9623433"><ele>410.33333333333337</ele><time>2026-03-28T14:25:46.211Z</time></trkpt><trkpt lat="49.2196917" lon="10.9622283"><ele>409.5</ele><time>2026-03-28T14:25:47.219Z</time></trkpt><trkpt lat="49.2196483" lon="10.962115"><ele>408.66666666666663</ele><time>2026-03-28T14:25:48.215Z</time></trkpt><trkpt lat="49.2196133" lon="10.962005"><ele>407.8333333333333</ele><time>2026-03-28T14:25:49.218Z</time></trkpt><trkpt lat="49.2195783" lon="10.9618933"><ele>407.0</ele><time>2026-03-28T14:25:50.213Z</time></trkpt><trkpt lat="49.21954" lon="10.9617883"><ele>406.16666666666663</ele><time>2026-03-28T14:25:51.204Z</time></trkpt><trkpt lat="49.2195017" lon="10.9616817"><ele>405.3333333333333</ele><time>2026-03-28T14:25:52.208Z</time></trkpt><trkpt lat="49.219455" lon="10.96157"><ele>404.5</ele><time>2026-03-28T14:25:53.207Z</time></trkpt><trkpt lat="49.21941" lon="10.96146"><ele>403.66666666666663</ele><time>2026-03-28T14:25:54.214Z</time></trkpt><trkpt lat="49.2193683" lon="10.961345"><ele>402.8333333333333</ele><time>2026-03-28T14:25:55.217Z</time></trkpt><trkpt lat="49.2193283" lon="10.961225"><ele>402.0</ele><time>2026-03-28T14:25:56.216Z</time></trkpt><trkpt lat="49.2192833" lon="10.9611067"><ele>402.0</ele><time>2026-03-28T14:25:57.218Z</time></trkpt><trkpt lat="49.219235" lon="10.9609883"><ele>402.0</ele><time>2026-03-28T14:25:58.217Z</time></trkpt><trkpt lat="49.2191883" lon="10.9608817"><ele>402.0</ele><time>2026-03-28T14:25:59.207Z</time></trkpt><trkpt lat="49.2191367" lon="10.96078"><ele>402.0</ele><time>2026-03-28T14:26:00.212Z</time></trkpt><trkpt lat="49.2190867" lon="10.9606767"><ele>402.0</ele><time>2026-03-28T14:26:01.213Z</time></trkpt><trkpt lat="49.2190417" lon="10.96057"><ele>402.0</ele><time>2026-03-28T14:26:02.218Z</time></trkpt><trkpt lat="49.2189983" lon="10.9604617"><ele>400.6666666666667</ele><time>2026-03-28T14:26:03.22Z</time></trkpt><trkpt lat="49.2189483" lon="10.96035"><ele>399.33333333333337</ele><time>2026-03-28T14:26:04.214Z</time></trkpt><trkpt lat="49.2189017" lon="10.9602317"><ele>398.0</ele><time>2026-03-28T14:26:05.211Z</time></trkpt><trkpt lat="49.21886" lon="10.96011"><ele>396.6666666666667</ele><time>2026-03-28T14:26:06.218Z</time></trkpt><trkpt lat="49.2188217" lon="10.9599933"><ele>395.33333333333337</ele><time>2026-03-28T14:26:07.213Z</time></trkpt><trkpt lat="49.2187833" lon="10.9598717"><ele>394.0</ele><time>2026-03-28T14:26:08.218Z</time></trkpt><trkpt lat="49.2187417" lon="10.9597433"><ele>394.0</ele><time>2026-03-28T14:26:09.213Z</time></trkpt><trkpt lat="49.2187033" lon="10.95961"><ele>394.0</ele><time>2026-03-28T14:26:10.21Z</time></trkpt><trkpt lat="49.218665" lon="10.9594717"><ele>394.0</ele><time>2026-03-28T14:26:11.215Z</time></trkpt><trkpt lat="49.2186283" lon="10.95933"><ele>394.0</ele><time>2026-03-28T14:26:12.217Z</time></trkpt><trkpt lat="49.2185933" lon="10.9591783"><ele>394.0</ele><time>2026-03-28T14:26:13.215Z</time></trkpt><trkpt lat="49.2185633" lon="10.9590217"><ele>394.0</ele><time>2026-03-28T14:26:14.217Z</time></trkpt><trkpt lat="49.2185383" lon="10.9588617"><ele>394.0</ele><time>2026-03-28T14:26:15.206Z</time></trkpt><trkpt lat="49.21852" lon="10.9586967"><ele>394.0</ele><time>2026-03-28T14:26:16.207Z</time></trkpt><trkpt lat="49.2185017" lon="10.9585233"><ele>394.0</ele><time>2026-03-28T14:26:17.207Z</time></trkpt><trkpt lat="49.2184867" lon="10.95835"><ele>394.0</ele><time>2026-03-28T14:26:18.209Z</time></trkpt><trkpt lat="49.2184767" lon="10.9581783"><ele>394.5</ele><time>2026-03-28T14:26:19.215Z</time></trkpt><trkpt lat="49.2184617" lon="10.958005"><ele>395.0</ele><time>2026-03-28T14:26:20.214Z</time></trkpt><trkpt lat="49.2184467" lon="10.95783"><ele>395.5</ele><time>2026-03-28T14:26:21.215Z</time></trkpt><trkpt lat="49.2184233" lon="10.9576533"><ele>396.0</ele><time>2026-03-28T14:26:22.212Z</time></trkpt><trkpt lat="49.2183967" lon="10.9574833"><ele>396.4</ele><time>2026-03-28T14:26:23.218Z</time></trkpt><trkpt lat="49.2183733" lon="10.957315"><ele>396.8</ele><time>2026-03-28T14:26:24.216Z</time></trkpt><trkpt lat="49.218345" lon="10.9571483"><ele>397.2</ele><time>2026-03-28T14:26:25.209Z</time></trkpt><trkpt lat="49.21832" lon="10.9569883"><ele>397.59999999999997</ele><time>2026-03-28T14:26:26.213Z</time></trkpt><trkpt lat="49.218295" lon="10.9568367"><ele>398.0</ele><time>2026-03-28T14:26:27.209Z</time></trkpt><trkpt lat="49.2182783" lon="10.956695"><ele>398.16666666666663</ele><time>2026-03-28T14:26:28.213Z</time></trkpt><trkpt lat="49.2182633" lon="10.9565583"><ele>398.3333333333333</ele><time>2026-03-28T14:26:29.212Z</time></trkpt><trkpt lat="49.2182517" lon="10.9564233"><ele>398.5</ele><time>2026-03-28T14:26:30.208Z</time></trkpt><trkpt lat="49.2182367" lon="10.956285"><ele>398.66666666666663</ele><time>2026-03-28T14:26:31.208Z</time></trkpt><trkpt lat="49.21823" lon="10.9561483"><ele>398.8333333333333</ele><time>2026-03-28T14:26:32.211Z</time></trkpt><trkpt lat="49.2182317" lon="10.9560167"><ele>399.0</ele><time>2026-03-28T14:26:33.211Z</time></trkpt><trkpt lat="49.21824" lon="10.9558867"><ele>399.6</ele><time>2026-03-28T14:26:34.205Z</time></trkpt><trkpt lat="49.21824" lon="10.9557517"><ele>400.2</ele><time>2026-03-28T14:26:35.213Z</time></trkpt><trkpt lat="49.2182417" lon="10.9556233"><ele>400.8</ele><time>2026-03-28T14:26:36.216Z</time></trkpt><trkpt lat="49.2182367" lon="10.95548"><ele>401.40000000000003</ele><time>2026-03-28T14:26:37.236Z</time></trkpt><trkpt lat="49.218225" lon="10.95533"><ele>402.0</ele><time>2026-03-28T14:26:38.209Z</time></trkpt><trkpt lat="49.2182117" lon="10.9551867"><ele>402.0</ele><time>2026-03-28T14:26:39.207Z</time></trkpt><trkpt lat="49.21819" lon="10.9550383"><ele>402.0</ele><time>2026-03-28T14:26:40.204Z</time></trkpt><trkpt lat="49.2181633" lon="10.9548933"><ele>402.0</ele><time>2026-03-28T14:26:41.21Z</time></trkpt><trkpt lat="49.21813" lon="10.954745"><ele>402.0</ele><time>2026-03-28T14:26:42.215Z</time></trkpt><trkpt lat="49.2180967" lon="10.954595"><ele>402.0</ele><time>2026-03-28T14:26:43.212Z</time></trkpt><trkpt lat="49.2180583" lon="10.9544417"><ele>401.6</ele><time>2026-03-28T14:26:44.217Z</time></trkpt><trkpt lat="49.2180217" lon="10.9542883"><ele>401.20000000000005</ele><time>2026-03-28T14:26:45.207Z</time></trkpt><trkpt lat="49.2179867" lon="10.954135"><ele>400.8</ele><time>2026-03-28T14:26:46.201Z</time></trkpt><trkpt lat="49.2179533" lon="10.953975"><ele>400.4</ele><time>2026-03-28T14:26:47.217Z</time></trkpt><trkpt lat="49.2179267" lon="10.953815"><ele>400.0</ele><time>2026-03-28T14:26:48.211Z</time></trkpt><trkpt lat="49.2179033" lon="10.95366"><ele>399.0</ele><time>2026-03-28T14:26:49.216Z</time></trkpt><trkpt lat="49.21789" lon="10.9534967"><ele>398.0</ele><time>2026-03-28T14:26:50.205Z</time></trkpt><trkpt lat="49.21789" lon="10.953325"><ele>397.0</ele><time>2026-03-28T14:26:51.215Z</time></trkpt><trkpt lat="49.2179033" lon="10.953155"><ele>396.0</ele><time>2026-03-28T14:26:52.209Z</time></trkpt><trkpt lat="49.2179183" lon="10.952985"><ele>395.0</ele><time>2026-03-28T14:26:53.206Z</time></trkpt><trkpt lat="49.2179367" lon="10.95282"><ele>393.6</ele><time>2026-03-28T14:26:54.212Z</time></trkpt><trkpt lat="49.2179583" lon="10.9526583"><ele>392.2</ele><time>2026-03-28T14:26:55.205Z</time></trkpt><trkpt lat="49.21798" lon="10.952495"><ele>390.79999999999995</ele><time>2026-03-28T14:26:56.211Z</time></trkpt><trkpt lat="49.218" lon="10.95233"><ele>389.4</ele><time>2026-03-28T14:26:57.209Z</time></trkpt><trkpt lat="49.2180183" lon="10.9521633"><ele>388.0</ele><time>2026-03-28T14:26:58.209Z</time></trkpt><trkpt lat="49.2180367" lon="10.9519967"><ele>388.0</ele><time>2026-03-28T14:26:59.21Z</time></trkpt><trkpt lat="49.218055" lon="10.9518267"><ele>388.0</ele><time>2026-03-28T14:27:00.212Z</time></trkpt><trkpt lat="49.2180733" lon="10.951655"><ele>388.0</ele><time>2026-03-28T14:27:01.216Z</time></trkpt><trkpt lat="49.2180917" lon="10.95148"><ele>388.0</ele><time>2026-03-28T14:27:02.215Z</time></trkpt><trkpt lat="49.218115" lon="10.951305"><ele>388.0</ele><time>2026-03-28T14:27:03.219Z</time></trkpt><trkpt lat="49.2181417" lon="10.9511283"><ele>388.0</ele><time>2026-03-28T14:27:04.204Z</time></trkpt><trkpt lat="49.2181717" lon="10.9509467"><ele>388.0</ele><time>2026-03-28T14:27:05.217Z</time></trkpt><trkpt lat="49.2182" lon="10.9507633"><ele>388.0</ele><time>2026-03-28T14:27:06.212Z</time></trkpt><trkpt lat="49.2182267" lon="10.9505783"><ele>387.75</ele><time>2026-03-28T14:27:07.219Z</time></trkpt><trkpt lat="49.2182583" lon="10.9503933"><ele>387.5</ele><time>2026-03-28T14:27:08.21Z</time></trkpt><trkpt lat="49.2182933" lon="10.9502033"><ele>387.25</ele><time>2026-03-28T14:27:09.214Z</time></trkpt><trkpt lat="49.2183333" lon="10.950015"><ele>387.0</ele><time>2026-03-28T14:27:10.214Z</time></trkpt><trkpt lat="49.21838" lon="10.9498283"><ele>387.0</ele><time>2026-03-28T14:27:11.216Z</time></trkpt><trkpt lat="49.2184333" lon="10.9496483"><ele>387.0</ele><time>2026-03-28T14:27:12.211Z</time></trkpt><trkpt lat="49.218495" lon="10.9494783"><ele>387.0</ele><time>2026-03-28T14:27:13.212Z</time></trkpt><trkpt lat="49.218565" lon="10.9493217"><ele>387.0</ele><time>2026-03-28T14:27:14.201Z</time></trkpt><trkpt lat="49.2186483" lon="10.9491667"><ele>386.75</ele><time>2026-03-28T14:27:15.209Z</time></trkpt><trkpt lat="49.2187383" lon="10.949015"><ele>386.5</ele><time>2026-03-28T14:27:16.202Z</time></trkpt><trkpt lat="49.2188267" lon="10.9488717"><ele>386.25</ele><time>2026-03-28T14:27:17.216Z</time></trkpt><trkpt lat="49.21891" lon="10.948735"><ele>386.0</ele><time>2026-03-28T14:27:18.215Z</time></trkpt><trkpt lat="49.2189883" lon="10.9486083"><ele>386.49999999999994</ele><time>2026-03-28T14:27:19.199Z</time></trkpt><trkpt lat="49.21906" lon="10.9484867"><ele>387.0</ele><time>2026-03-28T14:27:20.197Z</time></trkpt><trkpt lat="49.2191233" lon="10.9483717"><ele>387.5</ele><time>2026-03-28T14:27:21.202Z</time></trkpt><trkpt lat="49.219185" lon="10.9482717"><ele>388.0</ele><time>2026-03-28T14:27:22.208Z</time></trkpt><trkpt lat="49.21924" lon="10.9481833"><ele>388.49999999999994</ele><time>2026-03-28T14:27:23.21Z</time></trkpt><trkpt lat="49.2192867" lon="10.9481117"><ele>389.0</ele><time>2026-03-28T14:27:24.205Z</time></trkpt><trkpt lat="49.2193717" lon="10.947995"><ele>389.0</ele><time>2026-03-28T14:27:26.209Z</time></trkpt><trkpt lat="49.2194783" lon="10.9479633"><ele>389.0</ele><time>2026-03-28T14:27:28.203Z</time></trkpt><trkpt lat="49.219545" lon="10.9479883"><ele>389.0</ele><time>2026-03-28T14:27:29.211Z</time></trkpt><trkpt lat="49.2196317" lon="10.94804"><ele>389.0</ele><time>2026-03-28T14:27:30.21Z</time></trkpt><trkpt lat="49.2197233" lon="10.9480883"><ele>389.0</ele><time>2026-03-28T14:27:31.219Z</time></trkpt><trkpt lat="49.219815" lon="10.9481383"><ele>389.2</ele><time>2026-03-28T14:27:32.204Z</time></trkpt><trkpt lat="49.2199083" lon="10.948185"><ele>389.4</ele><time>2026-03-28T14:27:33.212Z</time></trkpt><trkpt lat="49.2200017" lon="10.9482317"><ele>389.6</ele><time>2026-03-28T14:27:34.207Z</time></trkpt><trkpt lat="49.22009" lon="10.9482767"><ele>389.8</ele><time>2026-03-28T14:27:35.206Z</time></trkpt><trkpt lat="49.2201783" lon="10.94832"><ele>390.0</ele><time>2026-03-28T14:27:36.205Z</time></trkpt><trkpt lat="49.2202633" lon="10.9483633"><ele>390.1666666666667</ele><time>2026-03-28T14:27:37.204Z</time></trkpt><trkpt lat="49.2203467" lon="10.948405"><ele>390.33333333333337</ele><time>2026-03-28T14:27:38.215Z</time></trkpt><trkpt lat="49.22043" lon="10.9484417"><ele>390.5</ele><time>2026-03-28T14:27:39.21Z</time></trkpt><trkpt lat="49.22051" lon="10.9484783"><ele>390.6666666666667</ele><time>2026-03-28T14:27:40.213Z</time></trkpt><trkpt lat="49.22059" lon="10.9485183"><ele>390.83333333333337</ele><time>2026-03-28T14:27:41.21Z</time></trkpt><trkpt lat="49.2206683" lon="10.94856"><ele>391.0</ele><time>2026-03-28T14:27:42.209Z</time></trkpt><trkpt lat="49.2207467" lon="10.9485967"><ele>391.1428571428571</ele><time>2026-03-28T14:27:43.207Z</time></trkpt><trkpt lat="49.2208233" lon="10.9486333"><ele>391.2857142857143</ele><time>2026-03-28T14:27:44.205Z</time></trkpt><trkpt lat="49.220895" lon="10.9486667"><ele>391.42857142857144</ele><time>2026-03-28T14:27:45.209Z</time></trkpt><trkpt lat="49.220965" lon="10.9486967"><ele>391.57142857142856</ele><time>2026-03-28T14:27:46.211Z</time></trkpt><trkpt lat="49.22103" lon="10.9487317"><ele>391.7142857142857</ele><time>2026-03-28T14:27:47.209Z</time></trkpt><trkpt lat="49.221095" lon="10.948765"><ele>391.85714285714283</ele><time>2026-03-28T14:27:48.211Z</time></trkpt><trkpt lat="49.2211567" lon="10.9487967"><ele>392.0</ele><time>2026-03-28T14:27:49.212Z</time></trkpt><trkpt lat="49.2212183" lon="10.94883"><ele>392.0</ele><time>2026-03-28T14:27:50.214Z</time></trkpt><trkpt lat="49.2212817" lon="10.9488633"><ele>392.0</ele><time>2026-03-28T14:27:51.205Z</time></trkpt><trkpt lat="49.2214017" lon="10.94892"><ele>392.0</ele><time>2026-03-28T14:27:53.21Z</time></trkpt><trkpt lat="49.2215217" lon="10.9489717"><ele>392.0</ele><time>2026-03-28T14:27:55.212Z</time></trkpt><trkpt lat="49.2215817" lon="10.9490017"><ele>392.0</ele><time>2026-03-28T14:27:56.207Z</time></trkpt><trkpt lat="49.2216967" lon="10.949065"><ele>393.0</ele><time>2026-03-28T14:27:58.21Z</time></trkpt><trkpt lat="49.221815" lon="10.9491167"><ele>394.0</ele><time>2026-03-28T14:28:00.202Z</time></trkpt><trkpt lat="49.22193" lon="10.9491767"><ele>395.0</ele><time>2026-03-28T14:28:02.204Z</time></trkpt><trkpt lat="49.2220433" lon="10.9492367"><ele>396.0</ele><time>2026-03-28T14:28:04.208Z</time></trkpt><trkpt lat="49.2221567" lon="10.9492933"><ele>397.5</ele><time>2026-03-28T14:28:06.207Z</time></trkpt><trkpt lat="49.2222683" lon="10.949345"><ele>399.0</ele><time>2026-03-28T14:28:08.203Z</time></trkpt><trkpt lat="49.2223817" lon="10.9493933"><ele>400.5</ele><time>2026-03-28T14:28:10.212Z</time></trkpt><trkpt lat="49.2224883" lon="10.9494467"><ele>402.0</ele><time>2026-03-28T14:28:12.209Z</time></trkpt><trkpt lat="49.222595" lon="10.9494933"><ele>402.3333333333333</ele><time>2026-03-28T14:28:14.208Z</time></trkpt><trkpt lat="49.22271" lon="10.94955"><ele>402.66666666666663</ele><time>2026-03-28T14:28:16.212Z</time></trkpt><trkpt lat="49.22277" lon="10.9495833"><ele>403.0</ele><time>2026-03-28T14:28:17.208Z</time></trkpt><trkpt lat="49.2228333" lon="10.9496167"><ele>403.3333333333333</ele><time>2026-03-28T14:28:18.203Z</time></trkpt><trkpt lat="49.222895" lon="10.9496483"><ele>403.66666666666663</ele><time>2026-03-28T14:28:19.208Z</time></trkpt><trkpt lat="49.22296" lon="10.9496783"><ele>404.0</ele><time>2026-03-28T14:28:20.203Z</time></trkpt><trkpt lat="49.2230233" lon="10.9497083"><ele>404.0</ele><time>2026-03-28T14:28:21.21Z</time></trkpt><trkpt lat="49.2230883" lon="10.9497367"><ele>404.0</ele><time>2026-03-28T14:28:22.212Z</time></trkpt><trkpt lat="49.2231533" lon="10.949765"><ele>404.0</ele><time>2026-03-28T14:28:23.209Z</time></trkpt><trkpt lat="49.2232167" lon="10.94979"><ele>404.0</ele><time>2026-03-28T14:28:24.214Z</time></trkpt><trkpt lat="49.2232783" lon="10.9498183"><ele>404.0</ele><time>2026-03-28T14:28:25.216Z</time></trkpt><trkpt lat="49.2233383" lon="10.9498483"><ele>404.0</ele><time>2026-03-28T14:28:26.213Z</time></trkpt><trkpt lat="49.2234" lon="10.949875"><ele>404.0</ele><time>2026-03-28T14:28:27.214Z</time></trkpt><trkpt lat="49.2235117" lon="10.9499267"><ele>404.66666666666663</ele><time>2026-03-28T14:28:29.208Z</time></trkpt><trkpt lat="49.2235867" lon="10.9499633"><ele>405.3333333333333</ele><time>2026-03-28T14:28:31.205Z</time></trkpt><trkpt lat="49.22365" lon="10.9499083"><ele>406.0</ele><time>2026-03-28T14:28:35.22Z</time></trkpt><trkpt lat="49.2236667" lon="10.9498067"><ele>406.66666666666663</ele><time>2026-03-28T14:28:37.21Z</time></trkpt><trkpt lat="49.22368" lon="10.9496433"><ele>407.3333333333333</ele><time>2026-03-28T14:28:39.205Z</time></trkpt><trkpt lat="49.2236883" lon="10.9495433"><ele>408.0</ele><time>2026-03-28T14:28:40.211Z</time></trkpt><trkpt lat="49.223695" lon="10.949435"><ele>408.0</ele><time>2026-03-28T14:28:41.213Z</time></trkpt><trkpt lat="49.2236983" lon="10.9493317"><ele>408.0</ele><time>2026-03-28T14:28:42.205Z</time></trkpt><trkpt lat="49.2237017" lon="10.949235"><ele>408.0</ele><time>2026-03-28T14:28:43.21Z</time></trkpt><trkpt lat="49.2237" lon="10.9490683"><ele>408.0</ele><time>2026-03-28T14:28:45.218Z</time></trkpt><trkpt lat="49.2236983" lon="10.94888"><ele>408.0</ele><time>2026-03-28T14:28:47.217Z</time></trkpt><trkpt lat="49.22371" lon="10.948775"><ele>408.0</ele><time>2026-03-28T14:28:48.212Z</time></trkpt><trkpt lat="49.2237267" lon="10.948655"><ele>408.5</ele><time>2026-03-28T14:28:49.22Z</time></trkpt><trkpt lat="49.2237467" lon="10.9485383"><ele>409.0</ele><time>2026-03-28T14:28:50.216Z</time></trkpt><trkpt lat="49.223765" lon="10.94842"><ele>409.5</ele><time>2026-03-28T14:28:51.213Z</time></trkpt><trkpt lat="49.22378" lon="10.9483167"><ele>410.0</ele><time>2026-03-28T14:28:52.213Z</time></trkpt><trkpt lat="49.2237917" lon="10.9482217"><ele>410.5</ele><time>2026-03-28T14:28:53.21Z</time></trkpt><trkpt lat="49.2238067" lon="10.9480617"><ele>411.0</ele><time>2026-03-28T14:28:55.211Z</time></trkpt><trkpt lat="49.22382" lon="10.9479533"><ele>411.4</ele><time>2026-03-28T14:28:57.21Z</time></trkpt><trkpt lat="49.223895" lon="10.9478717"><ele>411.8</ele><time>2026-03-28T14:29:00.206Z</time></trkpt><trkpt lat="49.2240267" lon="10.9479"><ele>412.2</ele><time>2026-03-28T14:29:02.207Z</time></trkpt><trkpt lat="49.224115" lon="10.9479167"><ele>412.59999999999997</ele><time>2026-03-28T14:29:03.211Z</time></trkpt><trkpt lat="49.2242167" lon="10.9479283"><ele>413.0</ele><time>2026-03-28T14:29:04.208Z</time></trkpt><trkpt lat="49.22433" lon="10.947945"><ele>413.0</ele><time>2026-03-28T14:29:05.201Z</time></trkpt><trkpt lat="49.2244483" lon="10.947965"><ele>413.0</ele><time>2026-03-28T14:29:06.214Z</time></trkpt><trkpt lat="49.22457" lon="10.9479867"><ele>413.0</ele><time>2026-03-28T14:29:07.205Z</time></trkpt><trkpt lat="49.2246983" lon="10.9480083"><ele>413.0</ele><time>2026-03-28T14:29:08.206Z</time></trkpt><trkpt lat="49.22483" lon="10.94803"><ele>413.75</ele><time>2026-03-28T14:29:09.208Z</time></trkpt><trkpt lat="49.224965" lon="10.9480467"><ele>414.5</ele><time>2026-03-28T14:29:10.203Z</time></trkpt><trkpt lat="49.2251017" lon="10.94806"><ele>415.25</ele><time>2026-03-28T14:29:11.216Z</time></trkpt><trkpt lat="49.225245" lon="10.9480767"><ele>416.0</ele><time>2026-03-28T14:29:12.209Z</time></trkpt><trkpt lat="49.2253917" lon="10.9481"><ele>416.0</ele><time>2026-03-28T14:29:13.211Z</time></trkpt><trkpt lat="49.22554" lon="10.9481217"><ele>416.0</ele><time>2026-03-28T14:29:14.215Z</time></trkpt><trkpt lat="49.2256967" lon="10.94814"><ele>416.0</ele><time>2026-03-28T14:29:15.209Z</time></trkpt><trkpt lat="49.2258517" lon="10.94816"><ele>417.0</ele><time>2026-03-28T14:29:16.215Z</time></trkpt><trkpt lat="49.2260033" lon="10.9481867"><ele>418.0</ele><time>2026-03-28T14:29:17.22Z</time></trkpt><trkpt lat="49.2261517" lon="10.9482117"><ele>419.0</ele><time>2026-03-28T14:29:18.21Z</time></trkpt><trkpt lat="49.2262917" lon="10.94823"><ele>420.0</ele><time>2026-03-28T14:29:19.21Z</time></trkpt><trkpt lat="49.2264233" lon="10.9482467"><ele>420.5</ele><time>2026-03-28T14:29:20.213Z</time></trkpt><trkpt lat="49.2265483" lon="10.9482633"><ele>421.0</ele><time>2026-03-28T14:29:21.203Z</time></trkpt><trkpt lat="49.226665" lon="10.9482867"><ele>421.5</ele><time>2026-03-28T14:29:22.215Z</time></trkpt><trkpt lat="49.2267817" lon="10.9483183"><ele>422.0</ele><time>2026-03-28T14:29:23.2Z</time></trkpt><trkpt lat="49.2268933" lon="10.9483583"><ele>421.99999999999994</ele><time>2026-03-28T14:29:24.213Z</time></trkpt><trkpt lat="49.2270017" lon="10.9484083"><ele>422.0</ele><time>2026-03-28T14:29:25.216Z</time></trkpt><trkpt lat="49.2270967" lon="10.948465"><ele>422.0</ele><time>2026-03-28T14:29:26.212Z</time></trkpt><trkpt lat="49.22718" lon="10.9485133"><ele>422.0</ele><time>2026-03-28T14:29:27.211Z</time></trkpt><trkpt lat="49.2272483" lon="10.9485417"><ele>421.99999999999994</ele><time>2026-03-28T14:29:28.205Z</time></trkpt><trkpt lat="49.2273117" lon="10.9485533"><ele>422.0</ele><time>2026-03-28T14:29:29.208Z</time></trkpt><trkpt lat="49.22743" lon="10.948595"><ele>422.0</ele><time>2026-03-28T14:29:31.219Z</time></trkpt><trkpt lat="49.227535" lon="10.9486583"><ele>422.0</ele><time>2026-03-28T14:29:33.212Z</time></trkpt><trkpt lat="49.227635" lon="10.9486"><ele>422.0</ele><time>2026-03-28T14:29:35.208Z</time></trkpt><trkpt lat="49.2277083" lon="10.9484433"><ele>422.0</ele><time>2026-03-28T14:29:37.208Z</time></trkpt><trkpt lat="49.2277417" lon="10.9483583"><ele>422.0</ele><time>2026-03-28T14:29:38.21Z</time></trkpt><trkpt lat="49.2278017" lon="10.9482117"><ele>422.0</ele><time>2026-03-28T14:29:40.213Z</time></trkpt><trkpt lat="49.227855" lon="10.9480783"><ele>422.0</ele><time>2026-03-28T14:29:42.217Z</time></trkpt><trkpt lat="49.2279067" lon="10.94796"><ele>422.0</ele><time>2026-03-28T14:29:44.208Z</time></trkpt><trkpt lat="49.2279433" lon="10.9478633"><ele>422.0</ele><time>2026-03-28T14:29:46.22Z</time></trkpt><trkpt lat="49.22797" lon="10.9477733"><ele>422.0</ele><time>2026-03-28T14:29:49.214Z</time></trkpt><trkpt lat="49.2280283" lon="10.94755"><ele>420.8333333333333</ele><time>2026-03-28T14:30:00.215Z</time></trkpt><trkpt lat="49.2280667" lon="10.94745"><ele>419.66666666666663</ele><time>2026-03-28T14:30:03.216Z</time></trkpt><trkpt lat="49.2281033" lon="10.947355"><ele>418.5</ele><time>2026-03-28T14:30:05.216Z</time></trkpt><trkpt lat="49.22818" lon="10.947235"><ele>417.33333333333337</ele><time>2026-03-28T14:30:07.217Z</time></trkpt><trkpt lat="49.228235" lon="10.9471733"><ele>416.1666666666667</ele><time>2026-03-28T14:30:08.216Z</time></trkpt><trkpt lat="49.2282933" lon="10.9471117"><ele>415.0</ele><time>2026-03-28T14:30:09.208Z</time></trkpt><trkpt lat="49.2283617" lon="10.9470467"><ele>414.6666666666667</ele><time>2026-03-28T14:30:10.207Z</time></trkpt><trkpt lat="49.2284317" lon="10.94698"><ele>414.33333333333337</ele><time>2026-03-28T14:30:11.224Z</time></trkpt><trkpt lat="49.2285017" lon="10.9469117"><ele>414.0</ele><time>2026-03-28T14:30:12.207Z</time></trkpt><trkpt lat="49.2285733" lon="10.9468517"><ele>413.66666666666663</ele><time>2026-03-28T14:30:13.209Z</time></trkpt><trkpt lat="49.2286467" lon="10.9467917"><ele>413.3333333333333</ele><time>2026-03-28T14:30:14.212Z</time></trkpt><trkpt lat="49.2287233" lon="10.94672"><ele>413.0</ele><time>2026-03-28T14:30:15.211Z</time></trkpt><trkpt lat="49.2287983" lon="10.94663"><ele>411.79999999999995</ele><time>2026-03-28T14:30:16.214Z</time></trkpt><trkpt lat="49.2288733" lon="10.9465283"><ele>410.6</ele><time>2026-03-28T14:30:17.214Z</time></trkpt><trkpt lat="49.228945" lon="10.9464117"><ele>409.4</ele><time>2026-03-28T14:30:18.211Z</time></trkpt><trkpt lat="49.229015" lon="10.94629"><ele>408.20000000000005</ele><time>2026-03-28T14:30:19.214Z</time></trkpt><trkpt lat="49.2290833" lon="10.9461683"><ele>407.0</ele><time>2026-03-28T14:30:20.213Z</time></trkpt><trkpt lat="49.2291533" lon="10.94605"><ele>406.40000000000003</ele><time>2026-03-28T14:30:21.208Z</time></trkpt><trkpt lat="49.2292267" lon="10.9459317"><ele>405.8</ele><time>2026-03-28T14:30:22.221Z</time></trkpt><trkpt lat="49.2293067" lon="10.9458217"><ele>405.2</ele><time>2026-03-28T14:30:23.213Z</time></trkpt><trkpt lat="49.229395" lon="10.9457183"><ele>404.6</ele><time>2026-03-28T14:30:24.204Z</time></trkpt><trkpt lat="49.2294967" lon="10.945625"><ele>404.0</ele><time>2026-03-28T14:30:25.209Z</time></trkpt><trkpt lat="49.2296067" lon="10.9455533"><ele>403.75</ele><time>2026-03-28T14:30:26.208Z</time></trkpt><trkpt lat="49.229725" lon="10.9454967"><ele>403.5</ele><time>2026-03-28T14:30:27.215Z</time></trkpt><trkpt lat="49.2298467" lon="10.9454533"><ele>403.25</ele><time>2026-03-28T14:30:28.215Z</time></trkpt><trkpt lat="49.2299717" lon="10.9454233"><ele>403.0</ele><time>2026-03-28T14:30:29.219Z</time></trkpt><trkpt lat="49.230095" lon="10.9453983"><ele>402.5</ele><time>2026-03-28T14:30:30.213Z</time></trkpt><trkpt lat="49.2302217" lon="10.945375"><ele>402.0</ele><time>2026-03-28T14:30:31.218Z</time></trkpt><trkpt lat="49.2303483" lon="10.9453517"><ele>401.5</ele><time>2026-03-28T14:30:32.21Z</time></trkpt><trkpt lat="49.230475" lon="10.9453283"><ele>401.0</ele><time>2026-03-28T14:30:33.21Z</time></trkpt><trkpt lat="49.2306033" lon="10.945305"><ele>400.75</ele><time>2026-03-28T14:30:34.212Z</time></trkpt><trkpt lat="49.2307333" lon="10.9452817"><ele>400.5</ele><time>2026-03-28T14:30:35.206Z</time></trkpt><trkpt lat="49.2308667" lon="10.94526"><ele>400.25</ele><time>2026-03-28T14:30:36.199Z</time></trkpt><trkpt lat="49.2310033" lon="10.9452383"><ele>400.0</ele><time>2026-03-28T14:30:37.206Z</time></trkpt><trkpt lat="49.2311417" lon="10.9452167"><ele>400.0</ele><time>2026-03-28T14:30:38.209Z</time></trkpt><trkpt lat="49.2312783" lon="10.9451917"><ele>400.0</ele><time>2026-03-28T14:30:39.225Z</time></trkpt><trkpt lat="49.2314167" lon="10.9451683"><ele>400.0</ele><time>2026-03-28T14:30:40.227Z</time></trkpt><trkpt lat="49.231555" lon="10.945145"><ele>400.0</ele><time>2026-03-28T14:30:41.208Z</time></trkpt><trkpt lat="49.2316933" lon="10.9451233"><ele>400.0</ele><time>2026-03-28T14:30:42.214Z</time></trkpt><trkpt lat="49.2318317" lon="10.9450967"><ele>400.0</ele><time>2026-03-28T14:30:43.199Z</time></trkpt><trkpt lat="49.231965" lon="10.9450683"><ele>400.0</ele><time>2026-03-28T14:30:44.215Z</time></trkpt><trkpt lat="49.232095" lon="10.9450433"><ele>400.0</ele><time>2026-03-28T14:30:45.208Z</time></trkpt><trkpt lat="49.2322233" lon="10.945025"><ele>400.0</ele><time>2026-03-28T14:30:46.2Z</time></trkpt><trkpt lat="49.23234" lon="10.94501"><ele>400.0</ele><time>2026-03-28T14:30:47.21Z</time></trkpt><trkpt lat="49.232445" lon="10.944995"><ele>400.0</ele><time>2026-03-28T14:30:48.202Z</time></trkpt><trkpt lat="49.2325433" lon="10.94498"><ele>400.0</ele><time>2026-03-28T14:30:49.213Z</time></trkpt><trkpt lat="49.2326433" lon="10.9449633"><ele>400.0</ele><time>2026-03-28T14:30:50.209Z</time></trkpt><trkpt lat="49.232745" lon="10.9449467"><ele>400.0</ele><time>2026-03-28T14:30:51.203Z</time></trkpt><trkpt lat="49.2328483" lon="10.944925"><ele>400.0</ele><time>2026-03-28T14:30:52.199Z</time></trkpt><trkpt lat="49.2329533" lon="10.9449017"><ele>400.0</ele><time>2026-03-28T14:30:53.206Z</time></trkpt><trkpt lat="49.2330617" lon="10.9448817"><ele>400.0</ele><time>2026-03-28T14:30:54.215Z</time></trkpt><trkpt lat="49.2331783" lon="10.94486"><ele>400.0</ele><time>2026-03-28T14:30:55.206Z</time></trkpt><trkpt lat="49.2332983" lon="10.9448367"><ele>399.5</ele><time>2026-03-28T14:30:56.202Z</time></trkpt><trkpt lat="49.2334183" lon="10.9448183"><ele>399.0</ele><time>2026-03-28T14:30:57.209Z</time></trkpt><trkpt lat="49.23354" lon="10.9447983"><ele>398.5</ele><time>2026-03-28T14:30:58.207Z</time></trkpt><trkpt lat="49.2336617" lon="10.9447767"><ele>398.0</ele><time>2026-03-28T14:30:59.212Z</time></trkpt><trkpt lat="49.233785" lon="10.9447517"><ele>398.0</ele><time>2026-03-28T14:31:00.207Z</time></trkpt><trkpt lat="49.2339117" lon="10.9447283"><ele>398.0</ele><time>2026-03-28T14:31:01.213Z</time></trkpt><trkpt lat="49.2340383" lon="10.944705"><ele>398.0</ele><time>2026-03-28T14:31:02.208Z</time></trkpt><trkpt lat="49.2341667" lon="10.944685"><ele>398.0</ele><time>2026-03-28T14:31:03.206Z</time></trkpt><trkpt lat="49.2342967" lon="10.9446633"><ele>398.0</ele><time>2026-03-28T14:31:04.211Z</time></trkpt><trkpt lat="49.2344267" lon="10.94464"><ele>398.0</ele><time>2026-03-28T14:31:05.211Z</time></trkpt><trkpt lat="49.23456" lon="10.944615"><ele>398.0</ele><time>2026-03-28T14:31:06.215Z</time></trkpt><trkpt lat="49.2346933" lon="10.9445917"><ele>398.0</ele><time>2026-03-28T14:31:07.212Z</time></trkpt><trkpt lat="49.23483" lon="10.94457"><ele>398.0</ele><time>2026-03-28T14:31:08.21Z</time></trkpt><trkpt lat="49.23497" lon="10.9445433"><ele>398.0</ele><time>2026-03-28T14:31:09.218Z</time></trkpt><trkpt lat="49.2351133" lon="10.9445183"><ele>398.0</ele><time>2026-03-28T14:31:10.21Z</time></trkpt><trkpt lat="49.2352567" lon="10.944495"><ele>398.0</ele><time>2026-03-28T14:31:11.206Z</time></trkpt><trkpt lat="49.2354033" lon="10.94447"><ele>398.0</ele><time>2026-03-28T14:31:12.205Z</time></trkpt><trkpt lat="49.2355483" lon="10.944445"><ele>398.0</ele><time>2026-03-28T14:31:13.209Z</time></trkpt><trkpt lat="49.2356867" lon="10.9444183"><ele>398.0</ele><time>2026-03-28T14:31:14.211Z</time></trkpt><trkpt lat="49.2358183" lon="10.9443917"><ele>398.0</ele><time>2026-03-28T14:31:15.196Z</time></trkpt><trkpt lat="49.2359467" lon="10.9443617"><ele>398.25</ele><time>2026-03-28T14:31:16.2Z</time></trkpt><trkpt lat="49.2360767" lon="10.9443267"><ele>398.5</ele><time>2026-03-28T14:31:17.2Z</time></trkpt><trkpt lat="49.2362083" lon="10.9442983"><ele>398.75</ele><time>2026-03-28T14:31:18.221Z</time></trkpt><trkpt lat="49.23634" lon="10.9442767"><ele>399.0</ele><time>2026-03-28T14:31:19.203Z</time></trkpt><trkpt lat="49.2364733" lon="10.9442533"><ele>399.25</ele><time>2026-03-28T14:31:20.197Z</time></trkpt><trkpt lat="49.2366017" lon="10.9442267"><ele>399.5</ele><time>2026-03-28T14:31:21.212Z</time></trkpt><trkpt lat="49.23673" lon="10.9442033"><ele>399.75</ele><time>2026-03-28T14:31:22.203Z</time></trkpt><trkpt lat="49.2368533" lon="10.9441817"><ele>400.0</ele><time>2026-03-28T14:31:23.205Z</time></trkpt><trkpt lat="49.23698" lon="10.94416"><ele>400.0</ele><time>2026-03-28T14:31:24.213Z</time></trkpt><trkpt lat="49.237105" lon="10.9441383"><ele>400.0</ele><time>2026-03-28T14:31:25.208Z</time></trkpt><trkpt lat="49.23723" lon="10.944115"><ele>400.0</ele><time>2026-03-28T14:31:26.204Z</time></trkpt><trkpt lat="49.237355" lon="10.944095"><ele>400.0</ele><time>2026-03-28T14:31:27.213Z</time></trkpt><trkpt lat="49.23748" lon="10.9440717"><ele>400.0</ele><time>2026-03-28T14:31:28.213Z</time></trkpt><trkpt lat="49.237605" lon="10.9440433"><ele>400.0</ele><time>2026-03-28T14:31:29.214Z</time></trkpt><trkpt lat="49.2377267" lon="10.944"><ele>400.0</ele><time>2026-03-28T14:31:30.211Z</time></trkpt><trkpt lat="49.237845" lon="10.9439367"><ele>400.0</ele><time>2026-03-28T14:31:31.213Z</time></trkpt><trkpt lat="49.2379617" lon="10.94386"><ele>400.0</ele><time>2026-03-28T14:31:32.208Z</time></trkpt><trkpt lat="49.2380817" lon="10.9437767"><ele>400.0</ele><time>2026-03-28T14:31:33.206Z</time></trkpt><trkpt lat="49.238205" lon="10.9436883"><ele>400.0</ele><time>2026-03-28T14:31:34.202Z</time></trkpt><trkpt lat="49.2383333" lon="10.9435983"><ele>400.0</ele><time>2026-03-28T14:31:35.216Z</time></trkpt><trkpt lat="49.2384667" lon="10.943505"><ele>401.0</ele><time>2026-03-28T14:31:36.214Z</time></trkpt><trkpt lat="49.2386" lon="10.94341"><ele>402.0</ele><time>2026-03-28T14:31:37.201Z</time></trkpt><trkpt lat="49.2387367" lon="10.9433117"><ele>403.0</ele><time>2026-03-28T14:31:38.202Z</time></trkpt><trkpt lat="49.238875" lon="10.9432133"><ele>403.33333333333337</ele><time>2026-03-28T14:31:39.209Z</time></trkpt><trkpt lat="49.2390183" lon="10.9431133"><ele>403.66666666666663</ele><time>2026-03-28T14:31:40.207Z</time></trkpt><trkpt lat="49.2391667" lon="10.9430117"><ele>404.0</ele><time>2026-03-28T14:31:41.208Z</time></trkpt><trkpt lat="49.2393183" lon="10.9429083"><ele>404.0</ele><time>2026-03-28T14:31:42.212Z</time></trkpt><trkpt lat="49.2394733" lon="10.9428017"><ele>404.0</ele><time>2026-03-28T14:31:43.216Z</time></trkpt><trkpt lat="49.2396283" lon="10.94269"><ele>404.0</ele><time>2026-03-28T14:31:44.214Z</time></trkpt><trkpt lat="49.2397867" lon="10.9425767"><ele>404.0</ele><time>2026-03-28T14:31:45.215Z</time></trkpt><trkpt lat="49.2399467" lon="10.942465"><ele>404.0</ele><time>2026-03-28T14:31:46.207Z</time></trkpt><trkpt lat="49.2401067" lon="10.9423517"><ele>404.0</ele><time>2026-03-28T14:31:47.212Z</time></trkpt><trkpt lat="49.240265" lon="10.9422417"><ele>404.0</ele><time>2026-03-28T14:31:48.209Z</time></trkpt><trkpt lat="49.2404217" lon="10.942135"><ele>404.0</ele><time>2026-03-28T14:31:49.22Z</time></trkpt><trkpt lat="49.2405717" lon="10.9420317"><ele>404.0</ele><time>2026-03-28T14:31:50.212Z</time></trkpt><trkpt lat="49.24071" lon="10.9419367"><ele>404.25</ele><time>2026-03-28T14:31:51.211Z</time></trkpt><trkpt lat="49.2408367" lon="10.9418467"><ele>404.5</ele><time>2026-03-28T14:31:52.212Z</time></trkpt><trkpt lat="49.2409583" lon="10.9417633"><ele>404.75</ele><time>2026-03-28T14:31:53.217Z</time></trkpt><trkpt lat="49.2410733" lon="10.9416817"><ele>405.0</ele><time>2026-03-28T14:31:54.222Z</time></trkpt><trkpt lat="49.2411833" lon="10.941605"><ele>405.2</ele><time>2026-03-28T14:31:55.2Z</time></trkpt><trkpt lat="49.2412867" lon="10.9415333"><ele>405.4</ele><time>2026-03-28T14:31:56.212Z</time></trkpt><trkpt lat="49.241385" lon="10.9414633"><ele>405.6</ele><time>2026-03-28T14:31:57.216Z</time></trkpt><trkpt lat="49.2414767" lon="10.9413983"><ele>405.8</ele><time>2026-03-28T14:31:58.214Z</time></trkpt><trkpt lat="49.2415633" lon="10.9413383"><ele>406.0</ele><time>2026-03-28T14:31:59.208Z</time></trkpt><trkpt lat="49.2416417" lon="10.941285"><ele>406.00000000000006</ele><time>2026-03-28T14:32:00.206Z</time></trkpt><trkpt lat="49.2417083" lon="10.94124"><ele>406.0</ele><time>2026-03-28T14:32:01.207Z</time></trkpt><trkpt lat="49.2417667" lon="10.9412"><ele>406.0</ele><time>2026-03-28T14:32:02.207Z</time></trkpt><trkpt lat="49.241825" lon="10.9411533"><ele>406.0</ele><time>2026-03-28T14:32:03.198Z</time></trkpt><trkpt lat="49.2418983" lon="10.9410967"><ele>406.00000000000006</ele><time>2026-03-28T14:32:04.209Z</time></trkpt><trkpt lat="49.24199" lon="10.9410283"><ele>406.0</ele><time>2026-03-28T14:32:05.202Z</time></trkpt><trkpt lat="49.2420983" lon="10.9409517"><ele>406.25</ele><time>2026-03-28T14:32:06.211Z</time></trkpt><trkpt lat="49.24222" lon="10.9408683"><ele>406.5</ele><time>2026-03-28T14:32:07.223Z</time></trkpt><trkpt lat="49.24235" lon="10.9407733"><ele>406.75</ele><time>2026-03-28T14:32:08.214Z</time></trkpt><trkpt lat="49.2424883" lon="10.940665"><ele>407.0</ele><time>2026-03-28T14:32:09.209Z</time></trkpt><trkpt lat="49.2426367" lon="10.9405533"><ele>406.3333333333333</ele><time>2026-03-28T14:32:10.201Z</time></trkpt><trkpt lat="49.2427917" lon="10.9404383"><ele>405.66666666666663</ele><time>2026-03-28T14:32:11.211Z</time></trkpt><trkpt lat="49.2429533" lon="10.9403183"><ele>405.0</ele><time>2026-03-28T14:32:12.206Z</time></trkpt><trkpt lat="49.2431183" lon="10.9401983"><ele>405.0</ele><time>2026-03-28T14:32:13.211Z</time></trkpt><trkpt lat="49.2432767" lon="10.9400783"><ele>405.0</ele><time>2026-03-28T14:32:14.213Z</time></trkpt><trkpt lat="49.2434283" lon="10.9399633"><ele>405.0</ele><time>2026-03-28T14:32:15.214Z</time></trkpt><trkpt lat="49.2435733" lon="10.939855"><ele>405.0</ele><time>2026-03-28T14:32:16.201Z</time></trkpt><trkpt lat="49.2437133" lon="10.93975"><ele>405.0</ele><time>2026-03-28T14:32:17.21Z</time></trkpt><trkpt lat="49.2438467" lon="10.9396483"><ele>405.0</ele><time>2026-03-28T14:32:18.21Z</time></trkpt><trkpt lat="49.2439767" lon="10.9395517"><ele>405.0</ele><time>2026-03-28T14:32:19.203Z</time></trkpt><trkpt lat="49.244105" lon="10.9394583"><ele>404.75</ele><time>2026-03-28T14:32:20.207Z</time></trkpt><trkpt lat="49.2442283" lon="10.9393683"><ele>404.5</ele><time>2026-03-28T14:32:21.205Z</time></trkpt><trkpt lat="49.2443433" lon="10.93928"><ele>404.25</ele><time>2026-03-28T14:32:22.208Z</time></trkpt><trkpt lat="49.2444467" lon="10.9392"><ele>404.0</ele><time>2026-03-28T14:32:23.211Z</time></trkpt><trkpt lat="49.2445333" lon="10.93913"><ele>403.99999999999994</ele><time>2026-03-28T14:32:24.207Z</time></trkpt><trkpt lat="49.2446017" lon="10.9390717"><ele>404.0</ele><time>2026-03-28T14:32:25.206Z</time></trkpt><trkpt lat="49.2447067" lon="10.9390317"><ele>404.0</ele><time>2026-03-28T14:32:27.204Z</time></trkpt><trkpt lat="49.2447517" lon="10.939175"><ele>404.0</ele><time>2026-03-28T14:32:29.213Z</time></trkpt><trkpt lat="49.2447617" lon="10.9392867"><ele>403.99999999999994</ele><time>2026-03-28T14:32:30.213Z</time></trkpt><trkpt lat="49.24477" lon="10.9394167"><ele>404.0</ele><time>2026-03-28T14:32:31.208Z</time></trkpt><trkpt lat="49.2447783" lon="10.9395667"><ele>403.75</ele><time>2026-03-28T14:32:32.21Z</time></trkpt><trkpt lat="49.2447883" lon="10.93973"><ele>403.5</ele><time>2026-03-28T14:32:33.207Z</time></trkpt><trkpt lat="49.2448033" lon="10.9399083"><ele>403.25</ele><time>2026-03-28T14:32:34.215Z</time></trkpt><trkpt lat="49.24482" lon="10.9400983"><ele>403.0</ele><time>2026-03-28T14:32:35.211Z</time></trkpt><trkpt lat="49.24484" lon="10.9402983"><ele>402.5</ele><time>2026-03-28T14:32:36.208Z</time></trkpt><trkpt lat="49.24486" lon="10.9405067"><ele>402.0</ele><time>2026-03-28T14:32:37.207Z</time></trkpt><trkpt lat="49.2448833" lon="10.9407183"><ele>401.5</ele><time>2026-03-28T14:32:38.217Z</time></trkpt><trkpt lat="49.24491" lon="10.94093"><ele>401.0</ele><time>2026-03-28T14:32:39.21Z</time></trkpt><trkpt lat="49.2449417" lon="10.9411417"><ele>401.0</ele><time>2026-03-28T14:32:40.211Z</time></trkpt><trkpt lat="49.244975" lon="10.9413533"><ele>401.0</ele><time>2026-03-28T14:32:41.214Z</time></trkpt><trkpt lat="49.2450083" lon="10.9415667"><ele>401.0</ele><time>2026-03-28T14:32:42.223Z</time></trkpt><trkpt lat="49.24504" lon="10.9417733"><ele>401.0</ele><time>2026-03-28T14:32:43.222Z</time></trkpt><trkpt lat="49.245075" lon="10.9419767"><ele>401.0</ele><time>2026-03-28T14:32:44.222Z</time></trkpt><trkpt lat="49.2451133" lon="10.94218"><ele>401.0</ele><time>2026-03-28T14:32:45.207Z</time></trkpt><trkpt lat="49.245155" lon="10.9423867"><ele>401.0</ele><time>2026-03-28T14:32:46.202Z</time></trkpt><trkpt lat="49.2452" lon="10.9425917"><ele>401.0</ele><time>2026-03-28T14:32:47.212Z</time></trkpt><trkpt lat="49.245245" lon="10.942785"><ele>400.75</ele><time>2026-03-28T14:32:48.21Z</time></trkpt><trkpt lat="49.2452917" lon="10.9429667"><ele>400.5</ele><time>2026-03-28T14:32:49.217Z</time></trkpt><trkpt lat="49.2453417" lon="10.943145"><ele>400.25</ele><time>2026-03-28T14:32:50.208Z</time></trkpt><trkpt lat="49.2453967" lon="10.9433217"><ele>400.0</ele><time>2026-03-28T14:32:51.208Z</time></trkpt><trkpt lat="49.245455" lon="10.943495"><ele>400.0</ele><time>2026-03-28T14:32:52.208Z</time></trkpt><trkpt lat="49.2455183" lon="10.9436617"><ele>400.0</ele><time>2026-03-28T14:32:53.21Z</time></trkpt><trkpt lat="49.2455833" lon="10.9438167"><ele>400.0</ele><time>2026-03-28T14:32:54.217Z</time></trkpt><trkpt lat="49.2456467" lon="10.94396"><ele>400.0</ele><time>2026-03-28T14:32:55.219Z</time></trkpt><trkpt lat="49.24571" lon="10.9440933"><ele>399.2</ele><time>2026-03-28T14:32:56.21Z</time></trkpt><trkpt lat="49.24577" lon="10.9442183"><ele>398.4</ele><time>2026-03-28T14:32:57.214Z</time></trkpt><trkpt lat="49.2458267" lon="10.9443333"><ele>397.6</ele><time>2026-03-28T14:32:58.205Z</time></trkpt><trkpt lat="49.2458817" lon="10.9444367"><ele>396.8</ele><time>2026-03-28T14:32:59.217Z</time></trkpt><trkpt lat="49.24594" lon="10.9445317"><ele>396.0</ele><time>2026-03-28T14:33:00.209Z</time></trkpt><trkpt lat="49.2460067" lon="10.9446167"><ele>396.0</ele><time>2026-03-28T14:33:01.21Z</time></trkpt><trkpt lat="49.246085" lon="10.9446917"><ele>396.0</ele><time>2026-03-28T14:33:02.205Z</time></trkpt><trkpt lat="49.2461717" lon="10.9447567"><ele>396.0</ele><time>2026-03-28T14:33:03.218Z</time></trkpt><trkpt lat="49.2462583" lon="10.9448083"><ele>396.0</ele><time>2026-03-28T14:33:04.211Z</time></trkpt><trkpt lat="49.2463417" lon="10.9448583"><ele>396.0</ele><time>2026-03-28T14:33:05.215Z</time></trkpt><trkpt lat="49.2464167" lon="10.9449183"><ele>396.0</ele><time>2026-03-28T14:33:06.217Z</time></trkpt><trkpt lat="49.246485" lon="10.9449967"><ele>396.0</ele><time>2026-03-28T14:33:07.2Z</time></trkpt><trkpt lat="49.2465417" lon="10.9451"><ele>396.0</ele><time>2026-03-28T14:33:08.209Z</time></trkpt><trkpt lat="49.2465817" lon="10.9452233"><ele>396.0</ele><time>2026-03-28T14:33:09.216Z</time></trkpt><trkpt lat="49.2466017" lon="10.9453633"><ele>396.0</ele><time>2026-03-28T14:33:10.21Z</time></trkpt><trkpt lat="49.246615" lon="10.9455233"><ele>396.0</ele><time>2026-03-28T14:33:11.212Z</time></trkpt><trkpt lat="49.24663" lon="10.9457017"><ele>396.0</ele><time>2026-03-28T14:33:12.212Z</time></trkpt><trkpt lat="49.2466467" lon="10.9458983"><ele>396.0</ele><time>2026-03-28T14:33:13.215Z</time></trkpt><trkpt lat="49.2466667" lon="10.9461067"><ele>396.0</ele><time>2026-03-28T14:33:14.213Z</time></trkpt><trkpt lat="49.2466867" lon="10.9463283"><ele>395.66666666666663</ele><time>2026-03-28T14:33:15.216Z</time></trkpt><trkpt lat="49.2467067" lon="10.946575"><ele>395.3333333333333</ele><time>2026-03-28T14:33:16.211Z</time></trkpt><trkpt lat="49.2467283" lon="10.9468517"><ele>395.0</ele><time>2026-03-28T14:33:17.218Z</time></trkpt><trkpt lat="49.24675" lon="10.9471467"><ele>394.66666666666663</ele><time>2026-03-28T14:33:18.211Z</time></trkpt><trkpt lat="49.24677" lon="10.94745"><ele>394.33333333333337</ele><time>2026-03-28T14:33:19.206Z</time></trkpt><trkpt lat="49.24679" lon="10.947745"><ele>394.0</ele><time>2026-03-28T14:33:20.21Z</time></trkpt><trkpt lat="49.2468083" lon="10.9480217"><ele>393.6666666666667</ele><time>2026-03-28T14:33:21.203Z</time></trkpt><trkpt lat="49.246825" lon="10.94828"><ele>393.33333333333337</ele><time>2026-03-28T14:33:22.211Z</time></trkpt><trkpt lat="49.2468433" lon="10.9485183"><ele>393.0</ele><time>2026-03-28T14:33:23.204Z</time></trkpt><trkpt lat="49.2468667" lon="10.9487367"><ele>393.0</ele><time>2026-03-28T14:33:24.211Z</time></trkpt><trkpt lat="49.2468917" lon="10.9489483"><ele>393.0</ele><time>2026-03-28T14:33:25.204Z</time></trkpt><trkpt lat="49.2469167" lon="10.9491533"><ele>393.0</ele><time>2026-03-28T14:33:26.21Z</time></trkpt><trkpt lat="49.246935" lon="10.9493483"><ele>393.0</ele><time>2026-03-28T14:33:27.205Z</time></trkpt><trkpt lat="49.24695" lon="10.9495433"><ele>392.75</ele><time>2026-03-28T14:33:28.207Z</time></trkpt><trkpt lat="49.2469583" lon="10.9497383"><ele>392.5</ele><time>2026-03-28T14:33:29.21Z</time></trkpt><trkpt lat="49.24696" lon="10.9499233"><ele>392.25</ele><time>2026-03-28T14:33:30.203Z</time></trkpt><trkpt lat="49.2469533" lon="10.9500983"><ele>392.0</ele><time>2026-03-28T14:33:31.21Z</time></trkpt><trkpt lat="49.24694" lon="10.9502683"><ele>391.99999999999994</ele><time>2026-03-28T14:33:32.208Z</time></trkpt><trkpt lat="49.24693" lon="10.9504317"><ele>392.0</ele><time>2026-03-28T14:33:33.205Z</time></trkpt><trkpt lat="49.2469183" lon="10.9505767"><ele>392.0</ele><time>2026-03-28T14:33:34.198Z</time></trkpt><trkpt lat="49.2469133" lon="10.9506967"><ele>392.0</ele><time>2026-03-28T14:33:35.201Z</time></trkpt><trkpt lat="49.2469167" lon="10.9507967"><ele>391.99999999999994</ele><time>2026-03-28T14:33:36.212Z</time></trkpt><trkpt lat="49.246955" lon="10.9509283"><ele>392.0</ele><time>2026-03-28T14:33:38.217Z</time></trkpt><trkpt lat="49.24702" lon="10.9509433"><ele>391.99999999999994</ele><time>2026-03-28T14:33:40.209Z</time></trkpt><trkpt lat="49.247105" lon="10.9508683"><ele>392.0</ele><time>2026-03-28T14:33:42.207Z</time></trkpt><trkpt lat="49.247205" lon="10.9507567"><ele>392.0</ele><time>2026-03-28T14:33:44.205Z</time></trkpt><trkpt lat="49.2472617" lon="10.950705"><ele>392.0</ele><time>2026-03-28T14:33:45.209Z</time></trkpt><trkpt lat="49.2473217" lon="10.9506583"><ele>391.99999999999994</ele><time>2026-03-28T14:33:46.207Z</time></trkpt><trkpt lat="49.2473817" lon="10.9506167"><ele>392.0</ele><time>2026-03-28T14:33:47.206Z</time></trkpt><trkpt lat="49.2474867" lon="10.9505967"><ele>391.20000000000005</ele><time>2026-03-28T14:33:49.202Z</time></trkpt><trkpt lat="49.2475633" lon="10.950685"><ele>390.4</ele><time>2026-03-28T14:33:51.211Z</time></trkpt><trkpt lat="49.24759" lon="10.9507817"><ele>389.6</ele><time>2026-03-28T14:33:52.217Z</time></trkpt><trkpt lat="49.247615" lon="10.9509133"><ele>388.79999999999995</ele><time>2026-03-28T14:33:53.21Z</time></trkpt><trkpt lat="49.2476433" lon="10.951075"><ele>388.0</ele><time>2026-03-28T14:33:54.211Z</time></trkpt><trkpt lat="49.2476767" lon="10.951265"><ele>387.33333333333337</ele><time>2026-03-28T14:33:55.212Z</time></trkpt><trkpt lat="49.247715" lon="10.9514717"><ele>386.66666666666663</ele><time>2026-03-28T14:33:56.213Z</time></trkpt><trkpt lat="49.2477567" lon="10.9516967"><ele>386.0</ele><time>2026-03-28T14:33:57.211Z</time></trkpt><trkpt lat="49.2478033" lon="10.9519467"><ele>385.66666666666663</ele><time>2026-03-28T14:33:58.208Z</time></trkpt><trkpt lat="49.2478517" lon="10.9522083"><ele>385.33333333333337</ele><time>2026-03-28T14:33:59.205Z</time></trkpt><trkpt lat="49.2479" lon="10.9524683"><ele>385.0</ele><time>2026-03-28T14:34:00.216Z</time></trkpt><trkpt lat="49.2479483" lon="10.9527283"><ele>385.0</ele><time>2026-03-28T14:34:01.195Z</time></trkpt><trkpt lat="49.2479967" lon="10.9529867"><ele>385.0</ele><time>2026-03-28T14:34:02.212Z</time></trkpt><trkpt lat="49.2480433" lon="10.95324"><ele>385.0</ele><time>2026-03-28T14:34:03.211Z</time></trkpt><trkpt lat="49.2480883" lon="10.9534933"><ele>384.0</ele><time>2026-03-28T14:34:04.205Z</time></trkpt><trkpt lat="49.248135" lon="10.9537467"><ele>383.0</ele><time>2026-03-28T14:34:05.212Z</time></trkpt><trkpt lat="49.2481817" lon="10.9540033"><ele>382.0</ele><time>2026-03-28T14:34:06.206Z</time></trkpt><trkpt lat="49.24823" lon="10.95426"><ele>381.3333333333333</ele><time>2026-03-28T14:34:07.212Z</time></trkpt><trkpt lat="49.248275" lon="10.9545183"><ele>380.6666666666667</ele><time>2026-03-28T14:34:08.212Z</time></trkpt><trkpt lat="49.2483167" lon="10.9547767"><ele>380.0</ele><time>2026-03-28T14:34:09.215Z</time></trkpt><trkpt lat="49.24836" lon="10.9550367"><ele>380.0</ele><time>2026-03-28T14:34:10.209Z</time></trkpt><trkpt lat="49.2484017" lon="10.9552983"><ele>380.0</ele><time>2026-03-28T14:34:11.205Z</time></trkpt><trkpt lat="49.24844" lon="10.95556"><ele>380.0</ele><time>2026-03-28T14:34:12.219Z</time></trkpt><trkpt lat="49.2484767" lon="10.9558167"><ele>379.6666666666667</ele><time>2026-03-28T14:34:13.21Z</time></trkpt><trkpt lat="49.2485117" lon="10.9560717"><ele>379.3333333333333</ele><time>2026-03-28T14:34:14.203Z</time></trkpt><trkpt lat="49.2485433" lon="10.9563233"><ele>379.0</ele><time>2026-03-28T14:34:15.199Z</time></trkpt><trkpt lat="49.2485733" lon="10.9565717"><ele>378.3333333333333</ele><time>2026-03-28T14:34:16.207Z</time></trkpt><trkpt lat="49.2486017" lon="10.9568167"><ele>377.6666666666667</ele><time>2026-03-28T14:34:17.212Z</time></trkpt><trkpt lat="49.24863" lon="10.9570517"><ele>377.0</ele><time>2026-03-28T14:34:18.206Z</time></trkpt><trkpt lat="49.2486567" lon="10.9572733"><ele>377.0</ele><time>2026-03-28T14:34:19.218Z</time></trkpt><trkpt lat="49.2486817" lon="10.9574833"><ele>377.0</ele><time>2026-03-28T14:34:20.209Z</time></trkpt><trkpt lat="49.248705" lon="10.957685"><ele>377.0</ele><time>2026-03-28T14:34:21.204Z</time></trkpt><trkpt lat="49.2487267" lon="10.957875"><ele>377.0</ele><time>2026-03-28T14:34:22.208Z</time></trkpt><trkpt lat="49.24875" lon="10.9580567"><ele>377.20000000000005</ele><time>2026-03-28T14:34:23.211Z</time></trkpt><trkpt lat="49.2487717" lon="10.9582283"><ele>377.4</ele><time>2026-03-28T14:34:24.21Z</time></trkpt><trkpt lat="49.2487883" lon="10.9583883"><ele>377.6</ele><time>2026-03-28T14:34:25.209Z</time></trkpt><trkpt lat="49.2488033" lon="10.95853"><ele>377.79999999999995</ele><time>2026-03-28T14:34:26.218Z</time></trkpt><trkpt lat="49.2488167" lon="10.9586567"><ele>378.0</ele><time>2026-03-28T14:34:27.214Z</time></trkpt><trkpt lat="49.2488283" lon="10.9587683"><ele>378.0</ele><time>2026-03-28T14:34:28.212Z</time></trkpt><trkpt lat="49.2488683" lon="10.958925"><ele>378.0</ele><time>2026-03-28T14:34:30.199Z</time></trkpt><trkpt lat="49.2489517" lon="10.9589783"><ele>378.0</ele><time>2026-03-28T14:34:32.201Z</time></trkpt><trkpt lat="49.249015" lon="10.958975"><ele>378.0</ele><time>2026-03-28T14:34:33.202Z</time></trkpt><trkpt lat="49.2491033" lon="10.9589483"><ele>378.0</ele><time>2026-03-28T14:34:34.209Z</time></trkpt><trkpt lat="49.2492133" lon="10.9589033"><ele>378.0</ele><time>2026-03-28T14:34:35.21Z</time></trkpt><trkpt lat="49.2493367" lon="10.9588533"><ele>378.0</ele><time>2026-03-28T14:34:36.213Z</time></trkpt><trkpt lat="49.2494733" lon="10.9587983"><ele>378.0</ele><time>2026-03-28T14:34:37.209Z</time></trkpt><trkpt lat="49.249615" lon="10.9587383"><ele>378.0</ele><time>2026-03-28T14:34:38.202Z</time></trkpt><trkpt lat="49.2497533" lon="10.958685"><ele>378.0</ele><time>2026-03-28T14:34:39.209Z</time></trkpt><trkpt lat="49.2498883" lon="10.9586383"><ele>378.0</ele><time>2026-03-28T14:34:40.21Z</time></trkpt><trkpt lat="49.2500233" lon="10.958595"><ele>378.0</ele><time>2026-03-28T14:34:41.203Z</time></trkpt><trkpt lat="49.250155" lon="10.9585517"><ele>378.0</ele><time>2026-03-28T14:34:42.199Z</time></trkpt><trkpt lat="49.2502833" lon="10.95851"><ele>378.0</ele><time>2026-03-28T14:34:43.205Z</time></trkpt><trkpt lat="49.2504083" lon="10.9584667"><ele>378.0</ele><time>2026-03-28T14:34:44.208Z</time></trkpt><trkpt lat="49.2505267" lon="10.9584183"><ele>378.0</ele><time>2026-03-28T14:34:45.208Z</time></trkpt><trkpt lat="49.2506417" lon="10.9583617"><ele>378.0</ele><time>2026-03-28T14:34:46.197Z</time></trkpt><trkpt lat="49.2507533" lon="10.9582967"><ele>378.75</ele><time>2026-03-28T14:34:47.214Z</time></trkpt><trkpt lat="49.2508617" lon="10.9582217"><ele>379.5</ele><time>2026-03-28T14:34:48.21Z</time></trkpt><trkpt lat="49.2509667" lon="10.958135"><ele>380.25</ele><time>2026-03-28T14:34:49.205Z</time></trkpt><trkpt lat="49.25107" lon="10.9580383"><ele>381.0</ele><time>2026-03-28T14:34:50.206Z</time></trkpt><trkpt lat="49.2511717" lon="10.9579333"><ele>381.0</ele><time>2026-03-28T14:34:51.206Z</time></trkpt><trkpt lat="49.25127" lon="10.957825"><ele>381.0</ele><time>2026-03-28T14:34:52.217Z</time></trkpt><trkpt lat="49.251365" lon="10.9577133"><ele>381.0</ele><time>2026-03-28T14:34:53.211Z</time></trkpt><trkpt lat="49.2514633" lon="10.9576033"><ele>381.0</ele><time>2026-03-28T14:34:54.215Z</time></trkpt><trkpt lat="49.25156" lon="10.957495"><ele>381.25</ele><time>2026-03-28T14:34:55.211Z</time></trkpt><trkpt lat="49.2516567" lon="10.95739"><ele>381.5</ele><time>2026-03-28T14:34:56.213Z</time></trkpt><trkpt lat="49.2517567" lon="10.9572883"><ele>381.75</ele><time>2026-03-28T14:34:57.202Z</time></trkpt><trkpt lat="49.2518617" lon="10.9571933"><ele>382.0</ele><time>2026-03-28T14:34:58.205Z</time></trkpt><trkpt lat="49.2519717" lon="10.95711"><ele>382.0</ele><time>2026-03-28T14:34:59.207Z</time></trkpt><trkpt lat="49.2520883" lon="10.9570383"><ele>382.0</ele><time>2026-03-28T14:35:00.211Z</time></trkpt><trkpt lat="49.2522083" lon="10.95698"><ele>382.0</ele><time>2026-03-28T14:35:01.212Z</time></trkpt><trkpt lat="49.2523317" lon="10.9569317"><ele>382.0</ele><time>2026-03-28T14:35:02.206Z</time></trkpt><trkpt lat="49.2524567" lon="10.9568983"><ele>382.0</ele><time>2026-03-28T14:35:03.217Z</time></trkpt><trkpt lat="49.25258" lon="10.9568717"><ele>382.0</ele><time>2026-03-28T14:35:04.204Z</time></trkpt><trkpt lat="49.252705" lon="10.9568517"><ele>382.0</ele><time>2026-03-28T14:35:05.212Z</time></trkpt><trkpt lat="49.2528317" lon="10.956835"><ele>382.0</ele><time>2026-03-28T14:35:06.214Z</time></trkpt><trkpt lat="49.2529583" lon="10.956815"><ele>382.0</ele><time>2026-03-28T14:35:07.207Z</time></trkpt><trkpt lat="49.2530867" lon="10.956795"><ele>382.0</ele><time>2026-03-28T14:35:08.213Z</time></trkpt><trkpt lat="49.2532133" lon="10.9567733"><ele>382.0</ele><time>2026-03-28T14:35:09.214Z</time></trkpt><trkpt lat="49.25334" lon="10.9567533"><ele>382.0</ele><time>2026-03-28T14:35:10.207Z</time></trkpt><trkpt lat="49.2534667" lon="10.9567367"><ele>382.5</ele><time>2026-03-28T14:35:11.208Z</time></trkpt><trkpt lat="49.25359" lon="10.9567333"><ele>383.0</ele><time>2026-03-28T14:35:12.203Z</time></trkpt><trkpt lat="49.25372" lon="10.95674"><ele>383.5</ele><time>2026-03-28T14:35:13.203Z</time></trkpt><trkpt lat="49.25385" lon="10.9567533"><ele>384.0</ele><time>2026-03-28T14:35:14.208Z</time></trkpt><trkpt lat="49.2539817" lon="10.9567683"><ele>384.0</ele><time>2026-03-28T14:35:15.211Z</time></trkpt><trkpt lat="49.25411" lon="10.9567783"><ele>384.0</ele><time>2026-03-28T14:35:16.209Z</time></trkpt><trkpt lat="49.25424" lon="10.9567783"><ele>384.0</ele><time>2026-03-28T14:35:17.211Z</time></trkpt><trkpt lat="49.2543667" lon="10.9567617"><ele>384.0</ele><time>2026-03-28T14:35:18.214Z</time></trkpt><trkpt lat="49.2544867" lon="10.9567317"><ele>385.25</ele><time>2026-03-28T14:35:19.22Z</time></trkpt><trkpt lat="49.254615" lon="10.9566867"><ele>386.5</ele><time>2026-03-28T14:35:20.201Z</time></trkpt><trkpt lat="49.2547483" lon="10.956635"><ele>387.75</ele><time>2026-03-28T14:35:21.219Z</time></trkpt><trkpt lat="49.2548733" lon="10.9565783"><ele>389.0</ele><time>2026-03-28T14:35:22.218Z</time></trkpt><trkpt lat="49.254985" lon="10.9565117"><ele>389.0</ele><time>2026-03-28T14:35:23.203Z</time></trkpt><trkpt lat="49.2550817" lon="10.9564383"><ele>389.0</ele><time>2026-03-28T14:35:24.206Z</time></trkpt><trkpt lat="49.2551717" lon="10.9563517"><ele>389.0</ele><time>2026-03-28T14:35:25.21Z</time></trkpt><trkpt lat="49.255255" lon="10.9562533"><ele>389.0</ele><time>2026-03-28T14:35:26.214Z</time></trkpt><trkpt lat="49.25533" lon="10.9561417"><ele>389.0</ele><time>2026-03-28T14:35:27.212Z</time></trkpt><trkpt lat="49.2554" lon="10.9560233"><ele>389.0</ele><time>2026-03-28T14:35:28.205Z</time></trkpt><trkpt lat="49.2554667" lon="10.95589"><ele>389.0</ele><time>2026-03-28T14:35:29.212Z</time></trkpt><trkpt lat="49.2555317" lon="10.9557483"><ele>389.0</ele><time>2026-03-28T14:35:30.213Z</time></trkpt><trkpt lat="49.255595" lon="10.9556"><ele>389.0</ele><time>2026-03-28T14:35:31.211Z</time></trkpt><trkpt lat="49.2556483" lon="10.95545"><ele>390.79999999999995</ele><time>2026-03-28T14:35:32.205Z</time></trkpt><trkpt lat="49.2556933" lon="10.9553"><ele>392.59999999999997</ele><time>2026-03-28T14:35:33.212Z</time></trkpt><trkpt lat="49.2557367" lon="10.9551633"><ele>394.4</ele><time>2026-03-28T14:35:34.205Z</time></trkpt><trkpt lat="49.2557833" lon="10.9550333"><ele>396.2</ele><time>2026-03-28T14:35:35.211Z</time></trkpt><trkpt lat="49.2558417" lon="10.9549083"><ele>398.0</ele><time>2026-03-28T14:35:36.215Z</time></trkpt><trkpt lat="49.2559033" lon="10.9547917"><ele>398.2</ele><time>2026-03-28T14:35:37.206Z</time></trkpt><trkpt lat="49.25597" lon="10.9546833"><ele>398.4</ele><time>2026-03-28T14:35:38.218Z</time></trkpt><trkpt lat="49.2560433" lon="10.9545933"><ele>398.59999999999997</ele><time>2026-03-28T14:35:39.218Z</time></trkpt><trkpt lat="49.25612" lon="10.9545167"><ele>398.79999999999995</ele><time>2026-03-28T14:35:40.213Z</time></trkpt><trkpt lat="49.2562017" lon="10.9544467"><ele>399.0</ele><time>2026-03-28T14:35:41.222Z</time></trkpt><trkpt lat="49.2562767" lon="10.954385"><ele>399.0</ele><time>2026-03-28T14:35:42.208Z</time></trkpt><trkpt lat="49.2563433" lon="10.954335"><ele>399.0</ele><time>2026-03-28T14:35:43.213Z</time></trkpt><trkpt lat="49.25642" lon="10.9542817"><ele>399.0</ele><time>2026-03-28T14:35:44.209Z</time></trkpt><trkpt lat="49.2564933" lon="10.9542233"><ele>399.0</ele><time>2026-03-28T14:35:45.206Z</time></trkpt><trkpt lat="49.25657" lon="10.9541517"><ele>399.0</ele><time>2026-03-28T14:35:46.204Z</time></trkpt><trkpt lat="49.256645" lon="10.9540717"><ele>399.0</ele><time>2026-03-28T14:35:47.212Z</time></trkpt><trkpt lat="49.256725" lon="10.9539833"><ele>398.4</ele><time>2026-03-28T14:35:48.215Z</time></trkpt><trkpt lat="49.2567983" lon="10.9539"><ele>397.79999999999995</ele><time>2026-03-28T14:35:49.203Z</time></trkpt><trkpt lat="49.2568817" lon="10.9538217"><ele>397.20000000000005</ele><time>2026-03-28T14:35:50.214Z</time></trkpt><trkpt lat="49.2569633" lon="10.95374"><ele>396.6</ele><time>2026-03-28T14:35:51.215Z</time></trkpt><trkpt lat="49.2570483" lon="10.953655"><ele>396.0</ele><time>2026-03-28T14:35:52.212Z</time></trkpt><trkpt lat="49.2571317" lon="10.9535767"><ele>396.0</ele><time>2026-03-28T14:35:53.21Z</time></trkpt><trkpt lat="49.2572183" lon="10.9534983"><ele>396.0</ele><time>2026-03-28T14:35:54.206Z</time></trkpt><trkpt lat="49.2573083" lon="10.9534217"><ele>396.0</ele><time>2026-03-28T14:35:55.214Z</time></trkpt><trkpt lat="49.2574033" lon="10.9533467"><ele>396.0</ele><time>2026-03-28T14:35:56.211Z</time></trkpt><trkpt lat="49.2574883" lon="10.95328"><ele>396.0</ele><time>2026-03-28T14:35:57.207Z</time></trkpt><trkpt lat="49.2575733" lon="10.95321"><ele>396.0</ele><time>2026-03-28T14:35:58.212Z</time></trkpt><trkpt lat="49.2576617" lon="10.9531433"><ele>396.0</ele><time>2026-03-28T14:35:59.208Z</time></trkpt><trkpt lat="49.2577517" lon="10.9530867"><ele>396.0</ele><time>2026-03-28T14:36:00.212Z</time></trkpt><trkpt lat="49.2578367" lon="10.95303"><ele>396.0</ele><time>2026-03-28T14:36:01.214Z</time></trkpt><trkpt lat="49.2579233" lon="10.9529717"><ele>396.0</ele><time>2026-03-28T14:36:02.206Z</time></trkpt><trkpt lat="49.2580133" lon="10.9529217"><ele>396.0</ele><time>2026-03-28T14:36:03.213Z</time></trkpt><trkpt lat="49.2580967" lon="10.9528833"><ele>396.0</ele><time>2026-03-28T14:36:04.212Z</time></trkpt><trkpt lat="49.2581833" lon="10.952845"><ele>396.0</ele><time>2026-03-28T14:36:05.213Z</time></trkpt><trkpt lat="49.2582733" lon="10.9528017"><ele>396.0</ele><time>2026-03-28T14:36:06.219Z</time></trkpt><trkpt lat="49.2583617" lon="10.952755"><ele>396.0</ele><time>2026-03-28T14:36:07.207Z</time></trkpt><trkpt lat="49.2584517" lon="10.952705"><ele>396.0</ele><time>2026-03-28T14:36:08.214Z</time></trkpt><trkpt lat="49.25855" lon="10.952655"><ele>396.0</ele><time>2026-03-28T14:36:09.201Z</time></trkpt><trkpt lat="49.258645" lon="10.95261"><ele>396.0</ele><time>2026-03-28T14:36:10.212Z</time></trkpt><trkpt lat="49.2587367" lon="10.9525667"><ele>396.0</ele><time>2026-03-28T14:36:11.204Z</time></trkpt><trkpt lat="49.2588317" lon="10.9525217"><ele>396.0</ele><time>2026-03-28T14:36:12.209Z</time></trkpt><trkpt lat="49.2589217" lon="10.95248"><ele>395.1666666666667</ele><time>2026-03-28T14:36:13.209Z</time></trkpt><trkpt lat="49.2590117" lon="10.9524383"><ele>394.33333333333337</ele><time>2026-03-28T14:36:14.208Z</time></trkpt><trkpt lat="49.2591067" lon="10.9523967"><ele>393.5</ele><time>2026-03-28T14:36:15.215Z</time></trkpt><trkpt lat="49.259195" lon="10.9523533"><ele>392.6666666666667</ele><time>2026-03-28T14:36:16.214Z</time></trkpt><trkpt lat="49.2592733" lon="10.9523133"><ele>391.83333333333337</ele><time>2026-03-28T14:36:17.209Z</time></trkpt><trkpt lat="49.2593433" lon="10.9522683"><ele>391.0</ele><time>2026-03-28T14:36:18.214Z</time></trkpt><trkpt lat="49.25941" lon="10.9522083"><ele>391.00000000000006</ele><time>2026-03-28T14:36:19.208Z</time></trkpt><trkpt lat="49.2594733" lon="10.9521367"><ele>391.0</ele><time>2026-03-28T14:36:20.213Z</time></trkpt><trkpt lat="49.2595283" lon="10.95205"><ele>391.0</ele><time>2026-03-28T14:36:21.212Z</time></trkpt><trkpt lat="49.25958" lon="10.9519433"><ele>391.0</ele><time>2026-03-28T14:36:22.211Z</time></trkpt><trkpt lat="49.25961" lon="10.9518433"><ele>391.00000000000006</ele><time>2026-03-28T14:36:23.21Z</time></trkpt><trkpt lat="49.2596483" lon="10.9517333"><ele>391.0</ele><time>2026-03-28T14:36:24.216Z</time></trkpt><trkpt lat="49.25968" lon="10.95162"><ele>391.50000000000006</ele><time>2026-03-28T14:36:25.214Z</time></trkpt><trkpt lat="49.259705" lon="10.951505"><ele>392.0</ele><time>2026-03-28T14:36:26.215Z</time></trkpt><trkpt lat="49.2597233" lon="10.9513867"><ele>392.5</ele><time>2026-03-28T14:36:27.212Z</time></trkpt><trkpt lat="49.2597467" lon="10.951265"><ele>393.0</ele><time>2026-03-28T14:36:28.207Z</time></trkpt><trkpt lat="49.2597683" lon="10.95115"><ele>393.50000000000006</ele><time>2026-03-28T14:36:29.216Z</time></trkpt><trkpt lat="49.2597817" lon="10.9510333"><ele>394.0</ele><time>2026-03-28T14:36:30.208Z</time></trkpt><trkpt lat="49.259785" lon="10.9509217"><ele>394.2857142857143</ele><time>2026-03-28T14:36:31.213Z</time></trkpt><trkpt lat="49.25979" lon="10.9508067"><ele>394.57142857142856</ele><time>2026-03-28T14:36:32.213Z</time></trkpt><trkpt lat="49.2597883" lon="10.9507017"><ele>394.8571428571429</ele><time>2026-03-28T14:36:33.208Z</time></trkpt><trkpt lat="49.2597767" lon="10.950605"><ele>395.1428571428571</ele><time>2026-03-28T14:36:34.213Z</time></trkpt><trkpt lat="49.25978" lon="10.9504967"><ele>395.4285714285714</ele><time>2026-03-28T14:36:35.203Z</time></trkpt><trkpt lat="49.259785" lon="10.9503883"><ele>395.7142857142857</ele><time>2026-03-28T14:36:36.214Z</time></trkpt><trkpt lat="49.2597983" lon="10.9502917"><ele>396.0</ele><time>2026-03-28T14:36:37.212Z</time></trkpt><trkpt lat="49.25985" lon="10.9501483"><ele>393.4</ele><time>2026-03-28T14:36:39.211Z</time></trkpt><trkpt lat="49.2599317" lon="10.9500583"><ele>390.8</ele><time>2026-03-28T14:36:41.204Z</time></trkpt><trkpt lat="49.2600667" lon="10.9501217"><ele>388.2</ele><time>2026-03-28T14:36:43.209Z</time></trkpt><trkpt lat="49.2601567" lon="10.9501667"><ele>385.59999999999997</ele><time>2026-03-28T14:36:44.218Z</time></trkpt><trkpt lat="49.2602567" lon="10.9501917"><ele>383.0</ele><time>2026-03-28T14:36:45.207Z</time></trkpt><trkpt lat="49.2603633" lon="10.95019"><ele>383.0</ele><time>2026-03-28T14:36:46.217Z</time></trkpt><trkpt lat="49.26046" lon="10.9501717"><ele>383.0</ele><time>2026-03-28T14:36:47.21Z</time></trkpt><trkpt lat="49.2605433" lon="10.950145"><ele>383.0</ele><time>2026-03-28T14:36:48.208Z</time></trkpt><trkpt lat="49.2606217" lon="10.9501133"><ele>383.0</ele><time>2026-03-28T14:36:49.203Z</time></trkpt><trkpt lat="49.2606967" lon="10.9500867"><ele>383.0</ele><time>2026-03-28T14:36:50.209Z</time></trkpt><trkpt lat="49.2607683" lon="10.950065"><ele>383.0</ele><time>2026-03-28T14:36:51.209Z</time></trkpt><trkpt lat="49.2608433" lon="10.9500583"><ele>382.1666666666667</ele><time>2026-03-28T14:36:52.209Z</time></trkpt><trkpt lat="49.260915" lon="10.9500917"><ele>381.33333333333337</ele><time>2026-03-28T14:36:53.208Z</time></trkpt><trkpt lat="49.260975" lon="10.9501217"><ele>380.5</ele><time>2026-03-28T14:36:54.202Z</time></trkpt><trkpt lat="49.2610433" lon="10.9502067"><ele>379.6666666666667</ele><time>2026-03-28T14:36:56.217Z</time></trkpt><trkpt lat="49.2610467" lon="10.95033"><ele>378.8333333333333</ele><time>2026-03-28T14:36:58.214Z</time></trkpt><trkpt lat="49.2610333" lon="10.9505433"><ele>378.0</ele><time>2026-03-28T14:37:00.201Z</time></trkpt><trkpt lat="49.2610217" lon="10.9507083"><ele>378.25</ele><time>2026-03-28T14:37:01.216Z</time></trkpt><trkpt lat="49.26101" lon="10.9509083"><ele>378.5</ele><time>2026-03-28T14:37:02.211Z</time></trkpt><trkpt lat="49.261005" lon="10.9511"><ele>378.75</ele><time>2026-03-28T14:37:03.22Z</time></trkpt><trkpt lat="49.2609967" lon="10.95129"><ele>379.0</ele><time>2026-03-28T14:37:04.214Z</time></trkpt><trkpt lat="49.260995" lon="10.951475"><ele>379.0</ele><time>2026-03-28T14:37:05.209Z</time></trkpt><trkpt lat="49.2609933" lon="10.9516567"><ele>379.0</ele><time>2026-03-28T14:37:06.223Z</time></trkpt><trkpt lat="49.2609983" lon="10.9518367"><ele>379.0</ele><time>2026-03-28T14:37:07.2Z</time></trkpt><trkpt lat="49.2610117" lon="10.9520233"><ele>379.0</ele><time>2026-03-28T14:37:08.21Z</time></trkpt><trkpt lat="49.2610283" lon="10.95221"><ele>379.0</ele><time>2026-03-28T14:37:09.208Z</time></trkpt><trkpt lat="49.261045" lon="10.952395"><ele>379.0</ele><time>2026-03-28T14:37:10.212Z</time></trkpt><trkpt lat="49.26106" lon="10.9525733"><ele>379.0</ele><time>2026-03-28T14:37:11.211Z</time></trkpt><trkpt lat="49.2610733" lon="10.9527483"><ele>379.0</ele><time>2026-03-28T14:37:12.217Z</time></trkpt><trkpt lat="49.2610783" lon="10.9529233"><ele>378.4</ele><time>2026-03-28T14:37:13.214Z</time></trkpt><trkpt lat="49.2610717" lon="10.9530933"><ele>377.79999999999995</ele><time>2026-03-28T14:37:14.214Z</time></trkpt><trkpt lat="49.2610617" lon="10.953265"><ele>377.20000000000005</ele><time>2026-03-28T14:37:15.212Z</time></trkpt><trkpt lat="49.2610533" lon="10.95343"><ele>376.6</ele><time>2026-03-28T14:37:16.214Z</time></trkpt><trkpt lat="49.2610517" lon="10.95359"><ele>376.0</ele><time>2026-03-28T14:37:17.21Z</time></trkpt><trkpt lat="49.2610583" lon="10.9537433"><ele>375.6</ele><time>2026-03-28T14:37:18.212Z</time></trkpt><trkpt lat="49.2610733" lon="10.9538967"><ele>375.20000000000005</ele><time>2026-03-28T14:37:19.213Z</time></trkpt><trkpt lat="49.2611017" lon="10.9540483"><ele>374.79999999999995</ele><time>2026-03-28T14:37:20.214Z</time></trkpt><trkpt lat="49.26114" lon="10.9542067"><ele>374.4</ele><time>2026-03-28T14:37:21.199Z</time></trkpt><trkpt lat="49.26118" lon="10.9543683"><ele>374.0</ele><time>2026-03-28T14:37:22.206Z</time></trkpt><trkpt lat="49.2612183" lon="10.954525"><ele>374.0</ele><time>2026-03-28T14:37:23.206Z</time></trkpt><trkpt lat="49.2612567" lon="10.954675"><ele>374.0</ele><time>2026-03-28T14:37:24.207Z</time></trkpt><trkpt lat="49.2612933" lon="10.95482"><ele>374.0</ele><time>2026-03-28T14:37:25.212Z</time></trkpt><trkpt lat="49.2613317" lon="10.9549617"><ele>374.0</ele><time>2026-03-28T14:37:26.211Z</time></trkpt><trkpt lat="49.2613683" lon="10.9551017"><ele>374.0</ele><time>2026-03-28T14:37:27.207Z</time></trkpt><trkpt lat="49.261405" lon="10.9552367"><ele>375.0</ele><time>2026-03-28T14:37:28.207Z</time></trkpt><trkpt lat="49.2614417" lon="10.9553717"><ele>376.0</ele><time>2026-03-28T14:37:29.208Z</time></trkpt><trkpt lat="49.261475" lon="10.9555033"><ele>377.0</ele><time>2026-03-28T14:37:30.212Z</time></trkpt><trkpt lat="49.2615083" lon="10.9556283"><ele>378.0</ele><time>2026-03-28T14:37:31.211Z</time></trkpt><trkpt lat="49.2615433" lon="10.9557567"><ele>379.0</ele><time>2026-03-28T14:37:32.203Z</time></trkpt><trkpt lat="49.261575" lon="10.9558817"><ele>379.5</ele><time>2026-03-28T14:37:33.215Z</time></trkpt><trkpt lat="49.2616017" lon="10.9560067"><ele>380.0</ele><time>2026-03-28T14:37:34.21Z</time></trkpt><trkpt lat="49.2616317" lon="10.956135"><ele>380.5</ele><time>2026-03-28T14:37:35.207Z</time></trkpt><trkpt lat="49.2616667" lon="10.9562633"><ele>381.0</ele><time>2026-03-28T14:37:36.211Z</time></trkpt><trkpt lat="49.2617017" lon="10.9563883"><ele>381.5</ele><time>2026-03-28T14:37:37.202Z</time></trkpt><trkpt lat="49.2617383" lon="10.9565167"><ele>382.0</ele><time>2026-03-28T14:37:38.219Z</time></trkpt><trkpt lat="49.2617783" lon="10.9566483"><ele>381.0</ele><time>2026-03-28T14:37:39.207Z</time></trkpt><trkpt lat="49.2618217" lon="10.9567833"><ele>380.0</ele><time>2026-03-28T14:37:40.205Z</time></trkpt><trkpt lat="49.261865" lon="10.9569167"><ele>379.0</ele><time>2026-03-28T14:37:41.209Z</time></trkpt><trkpt lat="49.2619017" lon="10.95705"><ele>378.0</ele><time>2026-03-28T14:37:42.213Z</time></trkpt><trkpt lat="49.26194" lon="10.9571933"><ele>377.0</ele><time>2026-03-28T14:37:43.213Z</time></trkpt><trkpt lat="49.26197" lon="10.9573267"><ele>377.0</ele><time>2026-03-28T14:37:44.212Z</time></trkpt><trkpt lat="49.2619917" lon="10.95747"><ele>377.0</ele><time>2026-03-28T14:37:45.208Z</time></trkpt><trkpt lat="49.2620033" lon="10.95762"><ele>377.0</ele><time>2026-03-28T14:37:46.221Z</time></trkpt><trkpt lat="49.2620167" lon="10.9577717"><ele>377.0</ele><time>2026-03-28T14:37:47.208Z</time></trkpt><trkpt lat="49.2620267" lon="10.9579033"><ele>377.0</ele><time>2026-03-28T14:37:48.206Z</time></trkpt><trkpt lat="49.26204" lon="10.9580467"><ele>377.0</ele><time>2026-03-28T14:37:49.212Z</time></trkpt><trkpt lat="49.26206" lon="10.95819"><ele>377.0</ele><time>2026-03-28T14:37:50.212Z</time></trkpt><trkpt lat="49.2620867" lon="10.95833"><ele>377.0</ele><time>2026-03-28T14:37:51.212Z</time></trkpt><trkpt lat="49.26211" lon="10.9584667"><ele>377.0</ele><time>2026-03-28T14:37:52.21Z</time></trkpt><trkpt lat="49.262135" lon="10.9585917"><ele>377.0</ele><time>2026-03-28T14:37:53.206Z</time></trkpt><trkpt lat="49.2621633" lon="10.9587117"><ele>377.0</ele><time>2026-03-28T14:37:54.211Z</time></trkpt><trkpt lat="49.2622" lon="10.958845"><ele>377.0</ele><time>2026-03-28T14:37:55.208Z</time></trkpt><trkpt lat="49.26223" lon="10.95898"><ele>377.0</ele><time>2026-03-28T14:37:56.213Z</time></trkpt><trkpt lat="49.26226" lon="10.95912"><ele>377.0</ele><time>2026-03-28T14:37:57.213Z</time></trkpt><trkpt lat="49.2622917" lon="10.95926"><ele>377.0</ele><time>2026-03-28T14:37:58.215Z</time></trkpt><trkpt lat="49.2623217" lon="10.9594083"><ele>377.8</ele><time>2026-03-28T14:37:59.2Z</time></trkpt><trkpt lat="49.2623567" lon="10.9595667"><ele>378.6</ele><time>2026-03-28T14:38:00.207Z</time></trkpt><trkpt lat="49.2623917" lon="10.9597217"><ele>379.40000000000003</ele><time>2026-03-28T14:38:01.211Z</time></trkpt><trkpt lat="49.2624283" lon="10.9598733"><ele>380.20000000000005</ele><time>2026-03-28T14:38:02.211Z</time></trkpt><trkpt lat="49.2624667" lon="10.9600183"><ele>381.0</ele><time>2026-03-28T14:38:03.209Z</time></trkpt><trkpt lat="49.2625017" lon="10.96015"><ele>381.0</ele><time>2026-03-28T14:38:04.208Z</time></trkpt><trkpt lat="49.2625367" lon="10.960275"><ele>381.0</ele><time>2026-03-28T14:38:05.219Z</time></trkpt><trkpt lat="49.2625683" lon="10.9604083"><ele>381.0</ele><time>2026-03-28T14:38:06.213Z</time></trkpt><trkpt lat="49.262595" lon="10.9605433"><ele>381.0</ele><time>2026-03-28T14:38:07.209Z</time></trkpt><trkpt lat="49.262615" lon="10.96068"><ele>381.0</ele><time>2026-03-28T14:38:08.21Z</time></trkpt><trkpt lat="49.2626367" lon="10.9608233"><ele>380.4</ele><time>2026-03-28T14:38:09.212Z</time></trkpt><trkpt lat="49.2626567" lon="10.9609783"><ele>379.8</ele><time>2026-03-28T14:38:10.2Z</time></trkpt><trkpt lat="49.2626767" lon="10.9611267"><ele>379.2</ele><time>2026-03-28T14:38:11.211Z</time></trkpt><trkpt lat="49.2627017" lon="10.9612767"><ele>378.59999999999997</ele><time>2026-03-28T14:38:12.21Z</time></trkpt><trkpt lat="49.2627317" lon="10.9614283"><ele>378.0</ele><time>2026-03-28T14:38:13.218Z</time></trkpt><trkpt lat="49.2627583" lon="10.961575"><ele>377.79999999999995</ele><time>2026-03-28T14:38:14.199Z</time></trkpt><trkpt lat="49.2627867" lon="10.9617133"><ele>377.6</ele><time>2026-03-28T14:38:15.212Z</time></trkpt><trkpt lat="49.2628133" lon="10.9618433"><ele>377.4</ele><time>2026-03-28T14:38:16.211Z</time></trkpt><trkpt lat="49.2628383" lon="10.9619733"><ele>377.20000000000005</ele><time>2026-03-28T14:38:17.206Z</time></trkpt><trkpt lat="49.2628633" lon="10.962105"><ele>377.0</ele><time>2026-03-28T14:38:18.223Z</time></trkpt><trkpt lat="49.26289" lon="10.9622433"><ele>377.0</ele><time>2026-03-28T14:38:19.213Z</time></trkpt><trkpt lat="49.2629217" lon="10.9623833"><ele>377.0</ele><time>2026-03-28T14:38:20.217Z</time></trkpt><trkpt lat="49.2629517" lon="10.9625283"><ele>377.0</ele><time>2026-03-28T14:38:21.21Z</time></trkpt><trkpt lat="49.2629833" lon="10.9626717"><ele>377.0</ele><time>2026-03-28T14:38:22.205Z</time></trkpt><trkpt lat="49.2630183" lon="10.962815"><ele>377.0</ele><time>2026-03-28T14:38:23.208Z</time></trkpt><trkpt lat="49.263055" lon="10.96295"><ele>377.20000000000005</ele><time>2026-03-28T14:38:24.197Z</time></trkpt><trkpt lat="49.263095" lon="10.9630833"><ele>377.4</ele><time>2026-03-28T14:38:25.214Z</time></trkpt><trkpt lat="49.2631383" lon="10.96322"><ele>377.6</ele><time>2026-03-28T14:38:26.204Z</time></trkpt><trkpt lat="49.2631817" lon="10.9633533"><ele>377.79999999999995</ele><time>2026-03-28T14:38:27.214Z</time></trkpt><trkpt lat="49.2632267" lon="10.963485"><ele>378.0</ele><time>2026-03-28T14:38:28.222Z</time></trkpt><trkpt lat="49.2632633" lon="10.9636167"><ele>376.79999999999995</ele><time>2026-03-28T14:38:29.215Z</time></trkpt><trkpt lat="49.263295" lon="10.9637517"><ele>375.6</ele><time>2026-03-28T14:38:30.213Z</time></trkpt><trkpt lat="49.263325" lon="10.9638833"><ele>374.4</ele><time>2026-03-28T14:38:31.204Z</time></trkpt><trkpt lat="49.26336" lon="10.96401"><ele>373.20000000000005</ele><time>2026-03-28T14:38:32.223Z</time></trkpt><trkpt lat="49.2633983" lon="10.9641317"><ele>372.0</ele><time>2026-03-28T14:38:33.203Z</time></trkpt><trkpt lat="49.26344" lon="10.9642517"><ele>371.5</ele><time>2026-03-28T14:38:34.208Z</time></trkpt><trkpt lat="49.263485" lon="10.9643633"><ele>371.0</ele><time>2026-03-28T14:38:35.22Z</time></trkpt><trkpt lat="49.2635333" lon="10.9644717"><ele>370.5</ele><time>2026-03-28T14:38:36.206Z</time></trkpt><trkpt lat="49.2635783" lon="10.9645783"><ele>370.0</ele><time>2026-03-28T14:38:37.215Z</time></trkpt><trkpt lat="49.2636217" lon="10.96468"><ele>369.5</ele><time>2026-03-28T14:38:38.216Z</time></trkpt><trkpt lat="49.2636617" lon="10.9647733"><ele>369.0</ele><time>2026-03-28T14:38:39.199Z</time></trkpt><trkpt lat="49.2637" lon="10.9648617"><ele>369.0</ele><time>2026-03-28T14:38:40.213Z</time></trkpt><trkpt lat="49.26375" lon="10.9650083"><ele>369.0</ele><time>2026-03-28T14:38:42.21Z</time></trkpt><trkpt lat="49.2637567" lon="10.9651383"><ele>369.0</ele><time>2026-03-28T14:38:44.201Z</time></trkpt><trkpt lat="49.2636983" lon="10.9652367"><ele>369.0</ele><time>2026-03-28T14:38:46.199Z</time></trkpt><trkpt lat="49.2636033" lon="10.9653133"><ele>369.0</ele><time>2026-03-28T14:38:48.212Z</time></trkpt><trkpt lat="49.2635167" lon="10.9653933"><ele>369.0</ele><time>2026-03-28T14:38:50.207Z</time></trkpt><trkpt lat="49.2634467" lon="10.9654833"><ele>369.0</ele><time>2026-03-28T14:38:52.209Z</time></trkpt><trkpt lat="49.2634333" lon="10.9656217"><ele>369.0</ele><time>2026-03-28T14:38:54.207Z</time></trkpt><trkpt lat="49.2634817" lon="10.9657667"><ele>369.0</ele><time>2026-03-28T14:38:56.215Z</time></trkpt><trkpt lat="49.2635167" lon="10.9658483"><ele>369.0</ele><time>2026-03-28T14:38:57.212Z</time></trkpt><trkpt lat="49.26356" lon="10.9659433"><ele>369.0</ele><time>2026-03-28T14:38:58.21Z</time></trkpt><trkpt lat="49.2636067" lon="10.96605"><ele>369.0</ele><time>2026-03-28T14:38:59.199Z</time></trkpt><trkpt lat="49.2636533" lon="10.9661683"><ele>369.0</ele><time>2026-03-28T14:39:00.201Z</time></trkpt><trkpt lat="49.263695" lon="10.966285"><ele>369.0</ele><time>2026-03-28T14:39:01.21Z</time></trkpt><trkpt lat="49.2637383" lon="10.9663883"><ele>369.0</ele><time>2026-03-28T14:39:02.214Z</time></trkpt><trkpt lat="49.2637717" lon="10.9664817"><ele>369.0</ele><time>2026-03-28T14:39:03.212Z</time></trkpt><trkpt lat="49.263815" lon="10.9666183"><ele>369.0</ele><time>2026-03-28T14:39:05.224Z</time></trkpt><trkpt lat="49.2638667" lon="10.9668133"><ele>368.5</ele><time>2026-03-28T14:39:13.209Z</time></trkpt><trkpt lat="49.26393" lon="10.9669583"><ele>368.0</ele><time>2026-03-28T14:39:14.213Z</time></trkpt><trkpt lat="49.2640233" lon="10.9671383"><ele>367.5</ele><time>2026-03-28T14:39:15.218Z</time></trkpt><trkpt lat="49.2641283" lon="10.9673233"><ele>367.0</ele><time>2026-03-28T14:39:16.201Z</time></trkpt><trkpt lat="49.264235" lon="10.96751"><ele>369.66666666666663</ele><time>2026-03-28T14:39:17.211Z</time></trkpt><trkpt lat="49.26434" lon="10.96769"><ele>372.3333333333333</ele><time>2026-03-28T14:39:18.221Z</time></trkpt><trkpt lat="49.26445" lon="10.967875"><ele>375.0</ele><time>2026-03-28T14:39:19.216Z</time></trkpt><trkpt lat="49.2645683" lon="10.96806"><ele>375.0</ele><time>2026-03-28T14:39:20.21Z</time></trkpt><trkpt lat="49.264695" lon="10.9682333"><ele>375.0</ele><time>2026-03-28T14:39:21.216Z</time></trkpt><trkpt lat="49.2648267" lon="10.9683983"><ele>375.0</ele><time>2026-03-28T14:39:22.208Z</time></trkpt><trkpt lat="49.2649633" lon="10.968555"><ele>378.66666666666663</ele><time>2026-03-28T14:39:23.209Z</time></trkpt><trkpt lat="49.2651083" lon="10.9687"><ele>382.3333333333333</ele><time>2026-03-28T14:39:24.214Z</time></trkpt><trkpt lat="49.2652617" lon="10.9688317"><ele>386.0</ele><time>2026-03-28T14:39:25.208Z</time></trkpt><trkpt lat="49.26542" lon="10.96895"><ele>386.0</ele><time>2026-03-28T14:39:26.211Z</time></trkpt><trkpt lat="49.2655767" lon="10.96906"><ele>386.0</ele><time>2026-03-28T14:39:27.209Z</time></trkpt><trkpt lat="49.265735" lon="10.9691667"><ele>386.0</ele><time>2026-03-28T14:39:28.211Z</time></trkpt><trkpt lat="49.265895" lon="10.969275"><ele>386.0</ele><time>2026-03-28T14:39:29.209Z</time></trkpt><trkpt lat="49.2660517" lon="10.96938"><ele>386.0</ele><time>2026-03-28T14:39:30.209Z</time></trkpt><trkpt lat="49.266205" lon="10.96948"><ele>386.0</ele><time>2026-03-28T14:39:31.218Z</time></trkpt><trkpt lat="49.26635" lon="10.9695717"><ele>386.0</ele><time>2026-03-28T14:39:32.223Z</time></trkpt><trkpt lat="49.266485" lon="10.96966"><ele>386.0</ele><time>2026-03-28T14:39:33.2Z</time></trkpt><trkpt lat="49.2666117" lon="10.9697417"><ele>386.0</ele><time>2026-03-28T14:39:34.203Z</time></trkpt><trkpt lat="49.266725" lon="10.9698183"><ele>386.0</ele><time>2026-03-28T14:39:35.211Z</time></trkpt><trkpt lat="49.2668233" lon="10.9698933"><ele>385.99999999999994</ele><time>2026-03-28T14:39:36.206Z</time></trkpt><trkpt lat="49.26691" lon="10.969955"><ele>386.0</ele><time>2026-03-28T14:39:37.213Z</time></trkpt><trkpt lat="49.2669817" lon="10.9699967"><ele>386.0</ele><time>2026-03-28T14:39:38.212Z</time></trkpt><trkpt lat="49.2670667" lon="10.9699833"><ele>386.0</ele><time>2026-03-28T14:39:40.212Z</time></trkpt><trkpt lat="49.26706" lon="10.96983"><ele>385.99999999999994</ele><time>2026-03-28T14:39:42.212Z</time></trkpt><trkpt lat="49.267035" lon="10.9697133"><ele>386.0</ele><time>2026-03-28T14:39:43.211Z</time></trkpt><trkpt lat="49.2670017" lon="10.969565"><ele>386.0</ele><time>2026-03-28T14:39:44.216Z</time></trkpt><trkpt lat="49.266975" lon="10.9694017"><ele>386.0</ele><time>2026-03-28T14:39:45.209Z</time></trkpt><trkpt lat="49.2669583" lon="10.9692417"><ele>386.0</ele><time>2026-03-28T14:39:46.203Z</time></trkpt><trkpt lat="49.2669583" lon="10.9690883"><ele>386.0</ele><time>2026-03-28T14:39:47.208Z</time></trkpt><trkpt lat="49.26697" lon="10.9689333"><ele>386.0</ele><time>2026-03-28T14:39:48.212Z</time></trkpt><trkpt lat="49.2669933" lon="10.9687783"><ele>384.25</ele><time>2026-03-28T14:39:49.204Z</time></trkpt><trkpt lat="49.26702" lon="10.9686117"><ele>382.5</ele><time>2026-03-28T14:39:50.208Z</time></trkpt><trkpt lat="49.267045" lon="10.96841"><ele>380.75</ele><time>2026-03-28T14:39:51.212Z</time></trkpt><trkpt lat="49.2670683" lon="10.96817"><ele>379.0</ele><time>2026-03-28T14:39:52.215Z</time></trkpt><trkpt lat="49.2670883" lon="10.9679117"><ele>378.5</ele><time>2026-03-28T14:39:53.21Z</time></trkpt><trkpt lat="49.2671" lon="10.967675"><ele>378.0</ele><time>2026-03-28T14:39:54.214Z</time></trkpt><trkpt lat="49.2671083" lon="10.9674633"><ele>377.5</ele><time>2026-03-28T14:39:55.217Z</time></trkpt><trkpt lat="49.2671117" lon="10.9672717"><ele>377.0</ele><time>2026-03-28T14:39:56.214Z</time></trkpt><trkpt lat="49.2671133" lon="10.96709"><ele>379.0</ele><time>2026-03-28T14:39:57.212Z</time></trkpt><trkpt lat="49.2671133" lon="10.9669083"><ele>381.0</ele><time>2026-03-28T14:39:58.209Z</time></trkpt><trkpt lat="49.2671133" lon="10.9667267"><ele>383.0</ele><time>2026-03-28T14:39:59.212Z</time></trkpt><trkpt lat="49.2671083" lon="10.9665467"><ele>385.0</ele><time>2026-03-28T14:40:00.214Z</time></trkpt><trkpt lat="49.2671017" lon="10.9663617"><ele>386.75</ele><time>2026-03-28T14:40:01.212Z</time></trkpt><trkpt lat="49.2670983" lon="10.9661667"><ele>388.5</ele><time>2026-03-28T14:40:02.211Z</time></trkpt><trkpt lat="49.2670883" lon="10.965965"><ele>390.25</ele><time>2026-03-28T14:40:03.213Z</time></trkpt><trkpt lat="49.2670817" lon="10.9657567"><ele>392.0</ele><time>2026-03-28T14:40:04.215Z</time></trkpt><trkpt lat="49.2670767" lon="10.96555"><ele>392.0</ele><time>2026-03-28T14:40:05.211Z</time></trkpt><trkpt lat="49.2670783" lon="10.9653433"><ele>392.0</ele><time>2026-03-28T14:40:06.209Z</time></trkpt><trkpt lat="49.26708" lon="10.9651383"><ele>392.0</ele><time>2026-03-28T14:40:07.214Z</time></trkpt><trkpt lat="49.267085" lon="10.9649483"><ele>392.0</ele><time>2026-03-28T14:40:08.21Z</time></trkpt><trkpt lat="49.2670883" lon="10.9647717"><ele>392.0</ele><time>2026-03-28T14:40:09.204Z</time></trkpt><trkpt lat="49.26709" lon="10.96461"><ele>392.0</ele><time>2026-03-28T14:40:10.21Z</time></trkpt><trkpt lat="49.267095" lon="10.9644533"><ele>392.0</ele><time>2026-03-28T14:40:11.213Z</time></trkpt><trkpt lat="49.2670933" lon="10.964305"><ele>392.0</ele><time>2026-03-28T14:40:12.21Z</time></trkpt><trkpt lat="49.2670917" lon="10.9641583"><ele>392.0</ele><time>2026-03-28T14:40:13.205Z</time></trkpt><trkpt lat="49.26709" lon="10.9640033"><ele>391.8</ele><time>2026-03-28T14:40:14.198Z</time></trkpt><trkpt lat="49.2670867" lon="10.9638383"><ele>391.6</ele><time>2026-03-28T14:40:15.211Z</time></trkpt><trkpt lat="49.2670817" lon="10.9636667"><ele>391.40000000000003</ele><time>2026-03-28T14:40:16.209Z</time></trkpt><trkpt lat="49.2670783" lon="10.96349"><ele>391.20000000000005</ele><time>2026-03-28T14:40:17.214Z</time></trkpt><trkpt lat="49.2670783" lon="10.963315"><ele>391.0</ele><time>2026-03-28T14:40:18.214Z</time></trkpt><trkpt lat="49.2670833" lon="10.9631417"><ele>391.6</ele><time>2026-03-28T14:40:19.2Z</time></trkpt><trkpt lat="49.26709" lon="10.9629683"><ele>392.20000000000005</ele><time>2026-03-28T14:40:20.209Z</time></trkpt><trkpt lat="49.2670933" lon="10.9627967"><ele>392.79999999999995</ele><time>2026-03-28T14:40:21.204Z</time></trkpt><trkpt lat="49.2670917" lon="10.9626267"><ele>393.4</ele><time>2026-03-28T14:40:22.208Z</time></trkpt><trkpt lat="49.2670933" lon="10.9624633"><ele>394.0</ele><time>2026-03-28T14:40:23.219Z</time></trkpt><trkpt lat="49.267095" lon="10.9623033"><ele>394.1666666666667</ele><time>2026-03-28T14:40:24.21Z</time></trkpt><trkpt lat="49.2670967" lon="10.96215"><ele>394.33333333333337</ele><time>2026-03-28T14:40:25.217Z</time></trkpt><trkpt lat="49.2671033" lon="10.96201"><ele>394.5</ele><time>2026-03-28T14:40:26.212Z</time></trkpt><trkpt lat="49.2671083" lon="10.9618833"><ele>394.66666666666663</ele><time>2026-03-28T14:40:27.217Z</time></trkpt><trkpt lat="49.2671183" lon="10.961775"><ele>394.8333333333333</ele><time>2026-03-28T14:40:28.206Z</time></trkpt><trkpt lat="49.267125" lon="10.9616783"><ele>395.0</ele><time>2026-03-28T14:40:29.207Z</time></trkpt><trkpt lat="49.26715" lon="10.9615567"><ele>395.0</ele><time>2026-03-28T14:40:31.207Z</time></trkpt><trkpt lat="49.2672583" lon="10.9615083"><ele>395.0</ele><time>2026-03-28T14:40:34.21Z</time></trkpt><trkpt lat="49.2673283" lon="10.9615033"><ele>395.0</ele><time>2026-03-28T14:40:35.212Z</time></trkpt><trkpt lat="49.267425" lon="10.9615"><ele>395.0</ele><time>2026-03-28T14:40:36.206Z</time></trkpt><trkpt lat="49.2675417" lon="10.96149"><ele>395.0</ele><time>2026-03-28T14:40:37.216Z</time></trkpt><trkpt lat="49.2676467" lon="10.961485"><ele>393.66666666666663</ele><time>2026-03-28T14:40:38.209Z</time></trkpt><trkpt lat="49.267745" lon="10.9614817"><ele>392.3333333333333</ele><time>2026-03-28T14:40:39.214Z</time></trkpt><trkpt lat="49.2678367" lon="10.961475"><ele>391.0</ele><time>2026-03-28T14:40:40.21Z</time></trkpt><trkpt lat="49.2679217" lon="10.9614583"><ele>389.66666666666663</ele><time>2026-03-28T14:40:41.202Z</time></trkpt><trkpt lat="49.268005" lon="10.9614317"><ele>388.3333333333333</ele><time>2026-03-28T14:40:42.21Z</time></trkpt><trkpt lat="49.2680833" lon="10.9613883"><ele>387.0</ele><time>2026-03-28T14:40:43.208Z</time></trkpt><trkpt lat="49.2681583" lon="10.9613317"><ele>386.1666666666667</ele><time>2026-03-28T14:40:44.21Z</time></trkpt><trkpt lat="49.2682317" lon="10.9612583"><ele>385.3333333333333</ele><time>2026-03-28T14:40:45.211Z</time></trkpt><trkpt lat="49.2683033" lon="10.9611817"><ele>384.5</ele><time>2026-03-28T14:40:46.21Z</time></trkpt><trkpt lat="49.2683717" lon="10.9611117"><ele>383.66666666666663</ele><time>2026-03-28T14:40:47.217Z</time></trkpt><trkpt lat="49.2684367" lon="10.96104"><ele>382.8333333333333</ele><time>2026-03-28T14:40:48.212Z</time></trkpt><trkpt lat="49.2685017" lon="10.9609733"><ele>382.0</ele><time>2026-03-28T14:40:49.209Z</time></trkpt><trkpt lat="49.26857" lon="10.9609133"><ele>382.5</ele><time>2026-03-28T14:40:50.215Z</time></trkpt><trkpt lat="49.2686433" lon="10.9608633"><ele>383.0</ele><time>2026-03-28T14:40:51.216Z</time></trkpt><trkpt lat="49.26872" lon="10.9608267"><ele>383.5</ele><time>2026-03-28T14:40:52.211Z</time></trkpt><trkpt lat="49.268805" lon="10.9608"><ele>384.0</ele><time>2026-03-28T14:40:53.214Z</time></trkpt><trkpt lat="49.2688983" lon="10.9607883"><ele>384.50000000000006</ele><time>2026-03-28T14:40:54.219Z</time></trkpt><trkpt lat="49.2689967" lon="10.9608"><ele>385.0</ele><time>2026-03-28T14:40:55.211Z</time></trkpt><trkpt lat="49.2690967" lon="10.9608217"><ele>386.0</ele><time>2026-03-28T14:40:56.222Z</time></trkpt><trkpt lat="49.2691933" lon="10.9608467"><ele>387.0</ele><time>2026-03-28T14:40:57.216Z</time></trkpt><trkpt lat="49.2692917" lon="10.9608633"><ele>388.0</ele><time>2026-03-28T14:40:58.219Z</time></trkpt><trkpt lat="49.2693917" lon="10.9608717"><ele>389.0</ele><time>2026-03-28T14:40:59.216Z</time></trkpt><trkpt lat="49.2694933" lon="10.9608733"><ele>390.0</ele><time>2026-03-28T14:41:00.209Z</time></trkpt><trkpt lat="49.2696" lon="10.9608733"><ele>391.0</ele><time>2026-03-28T14:41:01.217Z</time></trkpt><trkpt lat="49.2697083" lon="10.9608667"><ele>392.0</ele><time>2026-03-28T14:41:02.214Z</time></trkpt><trkpt lat="49.2698017" lon="10.96087"><ele>393.0</ele><time>2026-03-28T14:41:03.202Z</time></trkpt><trkpt lat="49.2698933" lon="10.9608833"><ele>394.0</ele><time>2026-03-28T14:41:04.211Z</time></trkpt><trkpt lat="49.2699883" lon="10.9608983"><ele>395.0</ele><time>2026-03-28T14:41:05.208Z</time></trkpt><trkpt lat="49.2700783" lon="10.96092"><ele>395.8333333333333</ele><time>2026-03-28T14:41:06.206Z</time></trkpt><trkpt lat="49.27017" lon="10.9609383"><ele>396.66666666666663</ele><time>2026-03-28T14:41:07.207Z</time></trkpt><trkpt lat="49.2702533" lon="10.9609667"><ele>397.5</ele><time>2026-03-28T14:41:08.213Z</time></trkpt><trkpt lat="49.2703267" lon="10.9610033"><ele>398.33333333333337</ele><time>2026-03-28T14:41:09.21Z</time></trkpt><trkpt lat="49.2704017" lon="10.96104"><ele>399.1666666666667</ele><time>2026-03-28T14:41:10.213Z</time></trkpt><trkpt lat="49.2704767" lon="10.9610867"><ele>400.0</ele><time>2026-03-28T14:41:11.201Z</time></trkpt><trkpt lat="49.2705567" lon="10.9611333"><ele>398.0</ele><time>2026-03-28T14:41:12.22Z</time></trkpt><trkpt lat="49.2706433" lon="10.9611783"><ele>396.0</ele><time>2026-03-28T14:41:13.208Z</time></trkpt><trkpt lat="49.27073" lon="10.96122"><ele>394.0</ele><time>2026-03-28T14:41:14.208Z</time></trkpt><trkpt lat="49.27082" lon="10.961255"><ele>392.0</ele><time>2026-03-28T14:41:15.201Z</time></trkpt><trkpt lat="49.2709083" lon="10.9612767"><ele>390.0</ele><time>2026-03-28T14:41:16.213Z</time></trkpt><trkpt lat="49.2709967" lon="10.9612833"><ele>390.0</ele><time>2026-03-28T14:41:17.209Z</time></trkpt><trkpt lat="49.2710917" lon="10.9612733"><ele>390.0</ele><time>2026-03-28T14:41:18.213Z</time></trkpt><trkpt lat="49.271185" lon="10.961245"><ele>390.0</ele><time>2026-03-28T14:41:19.219Z</time></trkpt><trkpt lat="49.2712783" lon="10.9612133"><ele>390.0</ele><time>2026-03-28T14:41:20.221Z</time></trkpt><trkpt lat="49.2713717" lon="10.9611883"><ele>390.0</ele><time>2026-03-28T14:41:21.213Z</time></trkpt><trkpt lat="49.27146" lon="10.9611783"><ele>386.1666666666667</ele><time>2026-03-28T14:41:22.213Z</time></trkpt><trkpt lat="49.2715267" lon="10.9612017"><ele>382.3333333333333</ele><time>2026-03-28T14:41:23.203Z</time></trkpt><trkpt lat="49.2716117" lon="10.9612233"><ele>378.5</ele><time>2026-03-28T14:41:24.204Z</time></trkpt><trkpt lat="49.2716917" lon="10.96124"><ele>374.66666666666663</ele><time>2026-03-28T14:41:25.205Z</time></trkpt><trkpt lat="49.2717617" lon="10.961235"><ele>370.8333333333333</ele><time>2026-03-28T14:41:26.208Z</time></trkpt><trkpt lat="49.2718683" lon="10.9612017"><ele>367.0</ele><time>2026-03-28T14:41:28.211Z</time></trkpt><trkpt lat="49.2719467" lon="10.9611867"><ele>367.0</ele><time>2026-03-28T14:41:30.214Z</time></trkpt><trkpt lat="49.2720367" lon="10.9612583"><ele>367.0</ele><time>2026-03-28T14:41:32.218Z</time></trkpt><trkpt lat="49.2721333" lon="10.961385"><ele>367.0</ele><time>2026-03-28T14:41:34.205Z</time></trkpt><trkpt lat="49.2721867" lon="10.9614433"><ele>367.0</ele><time>2026-03-28T14:41:35.213Z</time></trkpt><trkpt lat="49.272245" lon="10.9614817"><ele>367.0</ele><time>2026-03-28T14:41:36.202Z</time></trkpt><trkpt lat="49.2723083" lon="10.9615083"><ele>367.0</ele><time>2026-03-28T14:41:37.209Z</time></trkpt><trkpt lat="49.2723717" lon="10.9615283"><ele>365.8</ele><time>2026-03-28T14:41:38.209Z</time></trkpt><trkpt lat="49.2724917" lon="10.9615533"><ele>364.6</ele><time>2026-03-28T14:41:40.205Z</time></trkpt><trkpt lat="49.2725583" lon="10.961565"><ele>363.40000000000003</ele><time>2026-03-28T14:41:41.212Z</time></trkpt><trkpt lat="49.2726633" lon="10.9615183"><ele>362.20000000000005</ele><time>2026-03-28T14:41:43.214Z</time></trkpt><trkpt lat="49.27274" lon="10.9614167"><ele>361.0</ele><time>2026-03-28T14:41:45.208Z</time></trkpt><trkpt lat="49.2728283" lon="10.9613583"><ele>361.0</ele><time>2026-03-28T14:41:47.21Z</time></trkpt><trkpt lat="49.2729517" lon="10.9613783"><ele>361.0</ele><time>2026-03-28T14:41:49.211Z</time></trkpt><trkpt lat="49.2730183" lon="10.961415"><ele>361.0</ele><time>2026-03-28T14:41:50.208Z</time></trkpt><trkpt lat="49.273085" lon="10.961475"><ele>361.0</ele><time>2026-03-28T14:41:51.214Z</time></trkpt><trkpt lat="49.2731383" lon="10.9615617"><ele>361.0</ele><time>2026-03-28T14:41:52.217Z</time></trkpt><trkpt lat="49.2731667" lon="10.9616683"><ele>361.0</ele><time>2026-03-28T14:41:53.205Z</time></trkpt><trkpt lat="49.2731783" lon="10.96179"><ele>361.5</ele><time>2026-03-28T14:41:54.215Z</time></trkpt><trkpt lat="49.27318" lon="10.9619367"><ele>362.0</ele><time>2026-03-28T14:41:55.213Z</time></trkpt><trkpt lat="49.2731717" lon="10.962075"><ele>362.5</ele><time>2026-03-28T14:41:56.212Z</time></trkpt><trkpt lat="49.273155" lon="10.9621967"><ele>363.0</ele><time>2026-03-28T14:41:57.213Z</time></trkpt><trkpt lat="49.2731333" lon="10.9623067"><ele>363.5</ele><time>2026-03-28T14:41:58.217Z</time></trkpt><trkpt lat="49.27311" lon="10.9624133"><ele>364.0</ele><time>2026-03-28T14:41:59.214Z</time></trkpt><trkpt lat="49.273095" lon="10.9625167"><ele>366.2</ele><time>2026-03-28T14:42:00.211Z</time></trkpt><trkpt lat="49.2731067" lon="10.9627"><ele>368.4</ele><time>2026-03-28T14:42:02.213Z</time></trkpt><trkpt lat="49.2731917" lon="10.9628383"><ele>370.6</ele><time>2026-03-28T14:42:04.216Z</time></trkpt><trkpt lat="49.27326" lon="10.9628817"><ele>372.8</ele><time>2026-03-28T14:42:05.215Z</time></trkpt><trkpt lat="49.2733333" lon="10.9629117"><ele>375.0</ele><time>2026-03-28T14:42:06.211Z</time></trkpt><trkpt lat="49.27342" lon="10.9629317"><ele>375.0</ele><time>2026-03-28T14:42:07.215Z</time></trkpt><trkpt lat="49.2735067" lon="10.9629533"><ele>375.0</ele><time>2026-03-28T14:42:08.216Z</time></trkpt><trkpt lat="49.2735917" lon="10.96298"><ele>375.0</ele><time>2026-03-28T14:42:09.214Z</time></trkpt><trkpt lat="49.2736783" lon="10.9630133"><ele>375.0</ele><time>2026-03-28T14:42:10.208Z</time></trkpt><trkpt lat="49.2737717" lon="10.96306"><ele>375.0</ele><time>2026-03-28T14:42:11.215Z</time></trkpt><trkpt lat="49.2738667" lon="10.9631217"><ele>376.4</ele><time>2026-03-28T14:42:12.202Z</time></trkpt><trkpt lat="49.2739567" lon="10.9631883"><ele>377.8</ele><time>2026-03-28T14:42:13.206Z</time></trkpt><trkpt lat="49.274045" lon="10.96325"><ele>379.20000000000005</ele><time>2026-03-28T14:42:14.207Z</time></trkpt><trkpt lat="49.2741283" lon="10.9633067"><ele>380.6</ele><time>2026-03-28T14:42:15.201Z</time></trkpt><trkpt lat="49.2742083" lon="10.9633467"><ele>382.0</ele><time>2026-03-28T14:42:16.21Z</time></trkpt><trkpt lat="49.2742883" lon="10.9633783"><ele>382.20000000000005</ele><time>2026-03-28T14:42:17.209Z</time></trkpt><trkpt lat="49.2743833" lon="10.963405"><ele>382.4</ele><time>2026-03-28T14:42:18.213Z</time></trkpt><trkpt lat="49.27449" lon="10.9634133"><ele>382.6</ele><time>2026-03-28T14:42:19.198Z</time></trkpt><trkpt lat="49.2746083" lon="10.9634"><ele>382.79999999999995</ele><time>2026-03-28T14:42:20.211Z</time></trkpt><trkpt lat="49.2747183" lon="10.963375"><ele>383.0</ele><time>2026-03-28T14:42:21.203Z</time></trkpt><trkpt lat="49.27482" lon="10.9633517"><ele>383.1666666666667</ele><time>2026-03-28T14:42:22.208Z</time></trkpt><trkpt lat="49.2749133" lon="10.963335"><ele>383.33333333333337</ele><time>2026-03-28T14:42:23.215Z</time></trkpt><trkpt lat="49.2749933" lon="10.9633217"><ele>383.5</ele><time>2026-03-28T14:42:24.204Z</time></trkpt><trkpt lat="49.2751083" lon="10.9632667"><ele>383.6666666666667</ele><time>2026-03-28T14:42:26.206Z</time></trkpt><trkpt lat="49.2751683" lon="10.9632333"><ele>383.8333333333333</ele><time>2026-03-28T14:42:27.213Z</time></trkpt><trkpt lat="49.2752367" lon="10.963205"><ele>384.0</ele><time>2026-03-28T14:42:28.203Z</time></trkpt><trkpt lat="49.275325" lon="10.9631933"><ele>384.0</ele><time>2026-03-28T14:42:29.202Z</time></trkpt><trkpt lat="49.27542" lon="10.9631883"><ele>384.0</ele><time>2026-03-28T14:42:30.21Z</time></trkpt><trkpt lat="49.2755167" lon="10.9631817"><ele>384.0</ele><time>2026-03-28T14:42:31.202Z</time></trkpt><trkpt lat="49.275615" lon="10.963175"><ele>384.0</ele><time>2026-03-28T14:42:32.212Z</time></trkpt><trkpt lat="49.2757167" lon="10.963165"><ele>384.0</ele><time>2026-03-28T14:42:33.206Z</time></trkpt><trkpt lat="49.275815" lon="10.9631533"><ele>384.6</ele><time>2026-03-28T14:42:34.209Z</time></trkpt><trkpt lat="49.275915" lon="10.9631417"><ele>385.2</ele><time>2026-03-28T14:42:35.208Z</time></trkpt><trkpt lat="49.2760133" lon="10.9631233"><ele>385.8</ele><time>2026-03-28T14:42:36.216Z</time></trkpt><trkpt lat="49.2761017" lon="10.9631"><ele>386.40000000000003</ele><time>2026-03-28T14:42:37.206Z</time></trkpt><trkpt lat="49.2761817" lon="10.9630733"><ele>387.0</ele><time>2026-03-28T14:42:38.209Z</time></trkpt><trkpt lat="49.2762583" lon="10.9630433"><ele>387.0</ele><time>2026-03-28T14:42:39.199Z</time></trkpt><trkpt lat="49.2763483" lon="10.9630167"><ele>387.0</ele><time>2026-03-28T14:42:40.206Z</time></trkpt><trkpt lat="49.2764533" lon="10.9629983"><ele>387.0</ele><time>2026-03-28T14:42:41.21Z</time></trkpt><trkpt lat="49.2765633" lon="10.96298"><ele>387.0</ele><time>2026-03-28T14:42:42.21Z</time></trkpt><trkpt lat="49.2766667" lon="10.962965"><ele>387.0</ele><time>2026-03-28T14:42:43.208Z</time></trkpt><trkpt lat="49.2767583" lon="10.9629567"><ele>387.0</ele><time>2026-03-28T14:42:44.214Z</time></trkpt><trkpt lat="49.2768433" lon="10.96296"><ele>387.0</ele><time>2026-03-28T14:42:45.21Z</time></trkpt><trkpt lat="49.2769267" lon="10.962975"><ele>387.0</ele><time>2026-03-28T14:42:46.205Z</time></trkpt><trkpt lat="49.2770083" lon="10.9630017"><ele>387.0</ele><time>2026-03-28T14:42:47.216Z</time></trkpt><trkpt lat="49.2770867" lon="10.9630267"><ele>387.0</ele><time>2026-03-28T14:42:48.215Z</time></trkpt><trkpt lat="49.277165" lon="10.9630383"><ele>387.0</ele><time>2026-03-28T14:42:49.214Z</time></trkpt><trkpt lat="49.2772483" lon="10.9630317"><ele>387.20000000000005</ele><time>2026-03-28T14:42:50.208Z</time></trkpt><trkpt lat="49.2773383" lon="10.9630117"><ele>387.4</ele><time>2026-03-28T14:42:51.203Z</time></trkpt><trkpt lat="49.277435" lon="10.9629817"><ele>387.6</ele><time>2026-03-28T14:42:52.213Z</time></trkpt><trkpt lat="49.2775317" lon="10.962945"><ele>387.79999999999995</ele><time>2026-03-28T14:42:53.209Z</time></trkpt><trkpt lat="49.27763" lon="10.9628933"><ele>388.0</ele><time>2026-03-28T14:42:54.213Z</time></trkpt><trkpt lat="49.2777367" lon="10.9628283"><ele>388.0</ele><time>2026-03-28T14:42:55.211Z</time></trkpt><trkpt lat="49.277855" lon="10.9627533"><ele>388.0</ele><time>2026-03-28T14:42:56.215Z</time></trkpt><trkpt lat="49.2779717" lon="10.96268"><ele>388.0</ele><time>2026-03-28T14:42:57.207Z</time></trkpt><trkpt lat="49.27808" lon="10.9626083"><ele>388.0</ele><time>2026-03-28T14:42:58.211Z</time></trkpt><trkpt lat="49.278185" lon="10.962535"><ele>388.25</ele><time>2026-03-28T14:42:59.209Z</time></trkpt><trkpt lat="49.2782883" lon="10.9624683"><ele>388.5</ele><time>2026-03-28T14:43:00.222Z</time></trkpt><trkpt lat="49.2783917" lon="10.9624017"><ele>388.75</ele><time>2026-03-28T14:43:01.203Z</time></trkpt><trkpt lat="49.2784967" lon="10.9623333"><ele>389.0</ele><time>2026-03-28T14:43:02.204Z</time></trkpt><trkpt lat="49.2786067" lon="10.9622633"><ele>389.0</ele><time>2026-03-28T14:43:03.208Z</time></trkpt><trkpt lat="49.278725" lon="10.9622"><ele>389.0</ele><time>2026-03-28T14:43:04.198Z</time></trkpt><trkpt lat="49.2788517" lon="10.9621467"><ele>389.0</ele><time>2026-03-28T14:43:05.214Z</time></trkpt><trkpt lat="49.278985" lon="10.9621033"><ele>389.0</ele><time>2026-03-28T14:43:06.204Z</time></trkpt><trkpt lat="49.2791217" lon="10.9620683"><ele>388.75</ele><time>2026-03-28T14:43:07.211Z</time></trkpt><trkpt lat="49.2792567" lon="10.9620383"><ele>388.5</ele><time>2026-03-28T14:43:08.205Z</time></trkpt><trkpt lat="49.27939" lon="10.9620083"><ele>388.25</ele><time>2026-03-28T14:43:09.197Z</time></trkpt><trkpt lat="49.2795233" lon="10.9619783"><ele>388.0</ele><time>2026-03-28T14:43:10.203Z</time></trkpt><trkpt lat="49.279655" lon="10.96195"><ele>388.25</ele><time>2026-03-28T14:43:11.201Z</time></trkpt><trkpt lat="49.2797883" lon="10.961925"><ele>388.5</ele><time>2026-03-28T14:43:12.196Z</time></trkpt><trkpt lat="49.2799217" lon="10.9619017"><ele>388.75</ele><time>2026-03-28T14:43:13.205Z</time></trkpt><trkpt lat="49.2800633" lon="10.9618717"><ele>389.0</ele><time>2026-03-28T14:43:14.213Z</time></trkpt><trkpt lat="49.2802133" lon="10.9618467"><ele>389.0</ele><time>2026-03-28T14:43:15.211Z</time></trkpt><trkpt lat="49.280355" lon="10.96183"><ele>389.0</ele><time>2026-03-28T14:43:16.217Z</time></trkpt><trkpt lat="49.280495" lon="10.9618167"><ele>389.0</ele><time>2026-03-28T14:43:17.212Z</time></trkpt><trkpt lat="49.2806417" lon="10.9618033"><ele>389.0</ele><time>2026-03-28T14:43:18.214Z</time></trkpt><trkpt lat="49.2807867" lon="10.9617883"><ele>389.25</ele><time>2026-03-28T14:43:19.202Z</time></trkpt><trkpt lat="49.280925" lon="10.9617767"><ele>389.5</ele><time>2026-03-28T14:43:20.209Z</time></trkpt><trkpt lat="49.2810617" lon="10.9617667"><ele>389.75</ele><time>2026-03-28T14:43:21.212Z</time></trkpt><trkpt lat="49.281195" lon="10.9617567"><ele>390.0</ele><time>2026-03-28T14:43:22.213Z</time></trkpt><trkpt lat="49.281325" lon="10.9617483"><ele>389.75</ele><time>2026-03-28T14:43:23.206Z</time></trkpt><trkpt lat="49.2814533" lon="10.9617417"><ele>389.5</ele><time>2026-03-28T14:43:24.211Z</time></trkpt><trkpt lat="49.28158" lon="10.9617383"><ele>389.25</ele><time>2026-03-28T14:43:25.211Z</time></trkpt><trkpt lat="49.2817017" lon="10.961735"><ele>389.0</ele><time>2026-03-28T14:43:26.206Z</time></trkpt><trkpt lat="49.2818133" lon="10.96173"><ele>389.0</ele><time>2026-03-28T14:43:27.212Z</time></trkpt><trkpt lat="49.281925" lon="10.9617217"><ele>389.0</ele><time>2026-03-28T14:43:28.201Z</time></trkpt><trkpt lat="49.282035" lon="10.96171"><ele>389.0</ele><time>2026-03-28T14:43:29.209Z</time></trkpt><trkpt lat="49.282145" lon="10.9616983"><ele>389.0</ele><time>2026-03-28T14:43:30.212Z</time></trkpt><trkpt lat="49.2822533" lon="10.9616867"><ele>389.0</ele><time>2026-03-28T14:43:31.206Z</time></trkpt><trkpt lat="49.2823617" lon="10.9616767"><ele>389.4</ele><time>2026-03-28T14:43:32.211Z</time></trkpt><trkpt lat="49.2824683" lon="10.9616717"><ele>389.79999999999995</ele><time>2026-03-28T14:43:33.213Z</time></trkpt><trkpt lat="49.2825683" lon="10.9616667"><ele>390.20000000000005</ele><time>2026-03-28T14:43:34.21Z</time></trkpt><trkpt lat="49.2826633" lon="10.9616633"><ele>390.6</ele><time>2026-03-28T14:43:35.219Z</time></trkpt><trkpt lat="49.282755" lon="10.9616633"><ele>391.0</ele><time>2026-03-28T14:43:36.202Z</time></trkpt><trkpt lat="49.2828433" lon="10.961665"><ele>391.00000000000006</ele><time>2026-03-28T14:43:37.202Z</time></trkpt><trkpt lat="49.2829283" lon="10.9616667"><ele>391.0</ele><time>2026-03-28T14:43:38.208Z</time></trkpt><trkpt lat="49.283005" lon="10.9616683"><ele>391.0</ele><time>2026-03-28T14:43:39.207Z</time></trkpt><trkpt lat="49.283075" lon="10.9616667"><ele>391.0</ele><time>2026-03-28T14:43:40.22Z</time></trkpt><trkpt lat="49.2831383" lon="10.96166"><ele>391.00000000000006</ele><time>2026-03-28T14:43:41.211Z</time></trkpt><trkpt lat="49.283255" lon="10.9616317"><ele>391.0</ele><time>2026-03-28T14:43:43.208Z</time></trkpt><trkpt lat="49.283355" lon="10.9615933"><ele>390.0</ele><time>2026-03-28T14:43:45.216Z</time></trkpt><trkpt lat="49.28343" lon="10.9615683"><ele>389.0</ele><time>2026-03-28T14:43:47.21Z</time></trkpt><trkpt lat="49.283505" lon="10.9615167"><ele>388.0</ele><time>2026-03-28T14:43:49.202Z</time></trkpt><trkpt lat="49.28358" lon="10.9613867"><ele>387.0</ele><time>2026-03-28T14:43:51.209Z</time></trkpt><trkpt lat="49.2836233" lon="10.9613083"><ele>386.0</ele><time>2026-03-28T14:43:52.207Z</time></trkpt><trkpt lat="49.2836983" lon="10.9611633"><ele>386.0</ele><time>2026-03-28T14:43:54.219Z</time></trkpt><trkpt lat="49.2837717" lon="10.9610317"><ele>386.0</ele><time>2026-03-28T14:43:56.211Z</time></trkpt><trkpt lat="49.2838883" lon="10.960955"><ele>386.0</ele><time>2026-03-28T14:43:58.217Z</time></trkpt><trkpt lat="49.283965" lon="10.9609633"><ele>386.0</ele><time>2026-03-28T14:43:59.214Z</time></trkpt><trkpt lat="49.28405" lon="10.960985"><ele>386.0</ele><time>2026-03-28T14:44:00.214Z</time></trkpt><trkpt lat="49.284135" lon="10.9610133"><ele>385.16666666666663</ele><time>2026-03-28T14:44:01.22Z</time></trkpt><trkpt lat="49.28422" lon="10.9610367"><ele>384.3333333333333</ele><time>2026-03-28T14:44:02.222Z</time></trkpt><trkpt lat="49.2843033" lon="10.96106"><ele>383.5</ele><time>2026-03-28T14:44:03.209Z</time></trkpt><trkpt lat="49.2843867" lon="10.9610817"><ele>382.66666666666663</ele><time>2026-03-28T14:44:04.213Z</time></trkpt><trkpt lat="49.2844717" lon="10.9611017"><ele>381.8333333333333</ele><time>2026-03-28T14:44:05.209Z</time></trkpt><trkpt lat="49.284555" lon="10.9611233"><ele>381.0</ele><time>2026-03-28T14:44:06.213Z</time></trkpt><trkpt lat="49.28464" lon="10.9611383"><ele>381.0</ele><time>2026-03-28T14:44:07.216Z</time></trkpt><trkpt lat="49.284725" lon="10.96115"><ele>381.0</ele><time>2026-03-28T14:44:08.208Z</time></trkpt><trkpt lat="49.28481" lon="10.9611583"><ele>381.0</ele><time>2026-03-28T14:44:09.212Z</time></trkpt><trkpt lat="49.2848933" lon="10.9611667"><ele>381.0</ele><time>2026-03-28T14:44:10.212Z</time></trkpt><trkpt lat="49.2849767" lon="10.9611767"><ele>381.0</ele><time>2026-03-28T14:44:11.208Z</time></trkpt><trkpt lat="49.2850567" lon="10.9611817"><ele>381.0</ele><time>2026-03-28T14:44:12.211Z</time></trkpt><trkpt lat="49.2851383" lon="10.9611833"><ele>381.1428571428571</ele><time>2026-03-28T14:44:13.208Z</time></trkpt><trkpt lat="49.2852167" lon="10.9611883"><ele>381.28571428571433</ele><time>2026-03-28T14:44:14.214Z</time></trkpt><trkpt lat="49.28529" lon="10.9612"><ele>381.42857142857144</ele><time>2026-03-28T14:44:15.213Z</time></trkpt><trkpt lat="49.28536" lon="10.961215"><ele>381.57142857142856</ele><time>2026-03-28T14:44:16.207Z</time></trkpt><trkpt lat="49.28543" lon="10.96124"><ele>381.71428571428567</ele><time>2026-03-28T14:44:17.209Z</time></trkpt><trkpt lat="49.2855" lon="10.9612633"><ele>381.8571428571429</ele><time>2026-03-28T14:44:18.213Z</time></trkpt><trkpt lat="49.28557" lon="10.9612783"><ele>382.0</ele><time>2026-03-28T14:44:19.203Z</time></trkpt><trkpt lat="49.2856367" lon="10.961285"><ele>382.2857142857143</ele><time>2026-03-28T14:44:20.212Z</time></trkpt><trkpt lat="49.285705" lon="10.9612933"><ele>382.57142857142856</ele><time>2026-03-28T14:44:21.202Z</time></trkpt><trkpt lat="49.2857767" lon="10.9612767"><ele>382.85714285714283</ele><time>2026-03-28T14:44:22.209Z</time></trkpt><trkpt lat="49.285845" lon="10.9612333"><ele>383.1428571428571</ele><time>2026-03-28T14:44:23.207Z</time></trkpt><trkpt lat="49.2859083" lon="10.9611717"><ele>383.42857142857144</ele><time>2026-03-28T14:44:24.225Z</time></trkpt><trkpt lat="49.2859667" lon="10.9610967"><ele>383.71428571428567</ele><time>2026-03-28T14:44:25.203Z</time></trkpt><trkpt lat="49.2860233" lon="10.96102"><ele>384.0</ele><time>2026-03-28T14:44:26.205Z</time></trkpt><trkpt lat="49.286075" lon="10.960935"><ele>384.1666666666667</ele><time>2026-03-28T14:44:27.204Z</time></trkpt><trkpt lat="49.2861267" lon="10.96085"><ele>384.33333333333337</ele><time>2026-03-28T14:44:28.202Z</time></trkpt><trkpt lat="49.286185" lon="10.9607667"><ele>384.5</ele><time>2026-03-28T14:44:29.209Z</time></trkpt><trkpt lat="49.2862483" lon="10.9606867"><ele>384.6666666666667</ele><time>2026-03-28T14:44:30.206Z</time></trkpt><trkpt lat="49.2863183" lon="10.9606133"><ele>384.83333333333337</ele><time>2026-03-28T14:44:31.207Z</time></trkpt><trkpt lat="49.28639" lon="10.9605483"><ele>385.0</ele><time>2026-03-28T14:44:32.216Z</time></trkpt><trkpt lat="49.2864633" lon="10.9604933"><ele>385.1666666666667</ele><time>2026-03-28T14:44:33.207Z</time></trkpt><trkpt lat="49.2865417" lon="10.96044"><ele>385.33333333333337</ele><time>2026-03-28T14:44:34.215Z</time></trkpt><trkpt lat="49.2866217" lon="10.96039"><ele>385.5</ele><time>2026-03-28T14:44:35.201Z</time></trkpt><trkpt lat="49.2867033" lon="10.9603483"><ele>385.66666666666663</ele><time>2026-03-28T14:44:36.209Z</time></trkpt><trkpt lat="49.28679" lon="10.96031"><ele>385.8333333333333</ele><time>2026-03-28T14:44:37.211Z</time></trkpt><trkpt lat="49.2868817" lon="10.9602767"><ele>386.0</ele><time>2026-03-28T14:44:38.208Z</time></trkpt><trkpt lat="49.2869733" lon="10.9602467"><ele>385.99999999999994</ele><time>2026-03-28T14:44:39.203Z</time></trkpt><trkpt lat="49.287065" lon="10.9602217"><ele>386.0</ele><time>2026-03-28T14:44:40.212Z</time></trkpt><trkpt lat="49.2871433" lon="10.96018"><ele>386.0</ele><time>2026-03-28T14:44:41.205Z</time></trkpt><trkpt lat="49.28721" lon="10.96015"><ele>386.0</ele><time>2026-03-28T14:44:42.222Z</time></trkpt><trkpt lat="49.2872733" lon="10.96014"><ele>385.99999999999994</ele><time>2026-03-28T14:44:43.208Z</time></trkpt><trkpt lat="49.2873933" lon="10.96023"><ele>386.0</ele><time>2026-03-28T14:44:45.211Z</time></trkpt><trkpt lat="49.287455" lon="10.9603417"><ele>386.75</ele><time>2026-03-28T14:44:46.216Z</time></trkpt><trkpt lat="49.2875217" lon="10.9604833"><ele>387.5</ele><time>2026-03-28T14:44:47.201Z</time></trkpt><trkpt lat="49.2875967" lon="10.9606267"><ele>388.25</ele><time>2026-03-28T14:44:48.209Z</time></trkpt><trkpt lat="49.28768" lon="10.9607683"><ele>389.0</ele><time>2026-03-28T14:44:49.21Z</time></trkpt><trkpt lat="49.2877733" lon="10.9609117"><ele>389.0</ele><time>2026-03-28T14:44:50.217Z</time></trkpt><trkpt lat="49.287875" lon="10.9610617"><ele>389.0</ele><time>2026-03-28T14:44:51.207Z</time></trkpt><trkpt lat="49.2879817" lon="10.9612133"><ele>389.0</ele><time>2026-03-28T14:44:52.211Z</time></trkpt><trkpt lat="49.2880867" lon="10.9613583"><ele>389.0</ele><time>2026-03-28T14:44:53.211Z</time></trkpt><trkpt lat="49.2881933" lon="10.9614983"><ele>388.75</ele><time>2026-03-28T14:44:54.214Z</time></trkpt><trkpt lat="49.2882983" lon="10.9616367"><ele>388.5</ele><time>2026-03-28T14:44:55.212Z</time></trkpt><trkpt lat="49.2884" lon="10.9617717"><ele>388.25</ele><time>2026-03-28T14:44:56.207Z</time></trkpt><trkpt lat="49.288495" lon="10.9618983"><ele>388.0</ele><time>2026-03-28T14:44:57.213Z</time></trkpt><trkpt lat="49.288585" lon="10.9620133"><ele>387.79999999999995</ele><time>2026-03-28T14:44:58.209Z</time></trkpt><trkpt lat="49.288675" lon="10.9621017"><ele>387.6</ele><time>2026-03-28T14:44:59.205Z</time></trkpt><trkpt lat="49.28877" lon="10.96215"><ele>387.4</ele><time>2026-03-28T14:45:00.218Z</time></trkpt><trkpt lat="49.2888717" lon="10.962185"><ele>387.20000000000005</ele><time>2026-03-28T14:45:01.213Z</time></trkpt><trkpt lat="49.2889767" lon="10.9622183"><ele>387.0</ele><time>2026-03-28T14:45:02.216Z</time></trkpt><trkpt lat="49.2890883" lon="10.9622433"><ele>387.0</ele><time>2026-03-28T14:45:03.211Z</time></trkpt><trkpt lat="49.28921" lon="10.962255"><ele>387.0</ele><time>2026-03-28T14:45:04.209Z</time></trkpt><trkpt lat="49.2893417" lon="10.96225"><ele>387.0</ele><time>2026-03-28T14:45:05.207Z</time></trkpt><trkpt lat="49.28947" lon="10.962235"><ele>387.0</ele><time>2026-03-28T14:45:06.202Z</time></trkpt><trkpt lat="49.28959" lon="10.962215"><ele>387.0</ele><time>2026-03-28T14:45:07.215Z</time></trkpt><trkpt lat="49.289705" lon="10.9621917"><ele>387.0</ele><time>2026-03-28T14:45:08.208Z</time></trkpt><trkpt lat="49.28981" lon="10.9621617"><ele>387.0</ele><time>2026-03-28T14:45:09.203Z</time></trkpt><trkpt lat="49.2899117" lon="10.9621217"><ele>387.0</ele><time>2026-03-28T14:45:10.211Z</time></trkpt><trkpt lat="49.2900217" lon="10.9620717"><ele>387.0</ele><time>2026-03-28T14:45:11.214Z</time></trkpt><trkpt lat="49.2901383" lon="10.962015"><ele>387.25</ele><time>2026-03-28T14:45:12.214Z</time></trkpt><trkpt lat="49.2902567" lon="10.9619633"><ele>387.5</ele><time>2026-03-28T14:45:13.215Z</time></trkpt><trkpt lat="49.2903733" lon="10.961915"><ele>387.75</ele><time>2026-03-28T14:45:14.207Z</time></trkpt><trkpt lat="49.29049" lon="10.9618817"><ele>388.0</ele><time>2026-03-28T14:45:15.213Z</time></trkpt><trkpt lat="49.2906117" lon="10.9618567"><ele>387.0</ele><time>2026-03-28T14:45:16.211Z</time></trkpt><trkpt lat="49.2907333" lon="10.9618367"><ele>386.0</ele><time>2026-03-28T14:45:17.218Z</time></trkpt><trkpt lat="49.2908483" lon="10.9618167"><ele>385.0</ele><time>2026-03-28T14:45:18.212Z</time></trkpt><trkpt lat="49.29096" lon="10.96179"><ele>384.0</ele><time>2026-03-28T14:45:19.214Z</time></trkpt><trkpt lat="49.2910717" lon="10.9617433"><ele>384.0</ele><time>2026-03-28T14:45:20.214Z</time></trkpt><trkpt lat="49.2911767" lon="10.9616917"><ele>384.0</ele><time>2026-03-28T14:45:21.215Z</time></trkpt><trkpt lat="49.291275" lon="10.961645"><ele>384.0</ele><time>2026-03-28T14:45:22.215Z</time></trkpt><trkpt lat="49.2913667" lon="10.9616133"><ele>384.0</ele><time>2026-03-28T14:45:23.215Z</time></trkpt><trkpt lat="49.2914467" lon="10.9615983"><ele>384.0</ele><time>2026-03-28T14:45:24.211Z</time></trkpt><trkpt lat="49.2915167" lon="10.9616033"><ele>384.0</ele><time>2026-03-28T14:45:25.209Z</time></trkpt><trkpt lat="49.2915767" lon="10.9616367"><ele>384.0</ele><time>2026-03-28T14:45:26.2Z</time></trkpt><trkpt lat="49.2916283" lon="10.9617"><ele>384.0</ele><time>2026-03-28T14:45:27.208Z</time></trkpt><trkpt lat="49.291685" lon="10.9617933"><ele>384.0</ele><time>2026-03-28T14:45:28.21Z</time></trkpt><trkpt lat="49.29176" lon="10.9619067"><ele>384.0</ele><time>2026-03-28T14:45:29.201Z</time></trkpt><trkpt lat="49.291845" lon="10.9620167"><ele>384.0</ele><time>2026-03-28T14:45:30.213Z</time></trkpt><trkpt lat="49.291935" lon="10.9621033"><ele>384.0</ele><time>2026-03-28T14:45:31.209Z</time></trkpt><trkpt lat="49.2920333" lon="10.962165"><ele>384.0</ele><time>2026-03-28T14:45:32.21Z</time></trkpt><trkpt lat="49.29215" lon="10.9622033"><ele>384.0</ele><time>2026-03-28T14:45:33.214Z</time></trkpt><trkpt lat="49.2922817" lon="10.96223"><ele>384.0</ele><time>2026-03-28T14:45:34.205Z</time></trkpt><trkpt lat="49.2924117" lon="10.9622467"><ele>384.4</ele><time>2026-03-28T14:45:35.215Z</time></trkpt><trkpt lat="49.2925283" lon="10.96226"><ele>384.79999999999995</ele><time>2026-03-28T14:45:36.208Z</time></trkpt><trkpt lat="49.2926267" lon="10.9622817"><ele>385.20000000000005</ele><time>2026-03-28T14:45:37.215Z</time></trkpt><trkpt lat="49.2927033" lon="10.9623117"><ele>385.6</ele><time>2026-03-28T14:45:38.212Z</time></trkpt><trkpt lat="49.292805" lon="10.9623617"><ele>386.0</ele><time>2026-03-28T14:45:40.198Z</time></trkpt><trkpt lat="49.2928717" lon="10.962375"><ele>385.99999999999994</ele><time>2026-03-28T14:45:42.219Z</time></trkpt><trkpt lat="49.2929317" lon="10.96234"><ele>386.0</ele><time>2026-03-28T14:45:44.202Z</time></trkpt><trkpt lat="49.2929983" lon="10.9623333"><ele>386.0</ele><time>2026-03-28T14:45:46.216Z</time></trkpt><trkpt lat="49.2930733" lon="10.9624467"><ele>386.0</ele><time>2026-03-28T14:45:48.207Z</time></trkpt><trkpt lat="49.2931233" lon="10.9625667"><ele>385.99999999999994</ele><time>2026-03-28T14:45:49.211Z</time></trkpt><trkpt lat="49.2931833" lon="10.9627083"><ele>386.0</ele><time>2026-03-28T14:45:50.211Z</time></trkpt><trkpt lat="49.2932533" lon="10.962865"><ele>387.0</ele><time>2026-03-28T14:45:51.21Z</time></trkpt><trkpt lat="49.2933283" lon="10.9630383"><ele>388.0</ele><time>2026-03-28T14:45:52.208Z</time></trkpt><trkpt lat="49.2934133" lon="10.9632267"><ele>389.0</ele><time>2026-03-28T14:45:53.217Z</time></trkpt><trkpt lat="49.293505" lon="10.96344"><ele>390.3333333333333</ele><time>2026-03-28T14:45:54.215Z</time></trkpt><trkpt lat="49.2936017" lon="10.9636667"><ele>391.66666666666663</ele><time>2026-03-28T14:45:55.232Z</time></trkpt><trkpt lat="49.293695" lon="10.9639"><ele>393.0</ele><time>2026-03-28T14:45:56.217Z</time></trkpt><trkpt lat="49.2937883" lon="10.9641433"><ele>393.0</ele><time>2026-03-28T14:45:57.218Z</time></trkpt><trkpt lat="49.2938817" lon="10.964395"><ele>393.0</ele><time>2026-03-28T14:45:58.215Z</time></trkpt><trkpt lat="49.2939717" lon="10.9646433"><ele>393.0</ele><time>2026-03-28T14:45:59.204Z</time></trkpt><trkpt lat="49.29405" lon="10.9648867"><ele>395.0</ele><time>2026-03-28T14:46:00.216Z</time></trkpt><trkpt lat="49.2941233" lon="10.965125"><ele>397.0</ele><time>2026-03-28T14:46:01.211Z</time></trkpt><trkpt lat="49.2941933" lon="10.96536"><ele>399.0</ele><time>2026-03-28T14:46:02.21Z</time></trkpt><trkpt lat="49.29426" lon="10.965595"><ele>399.0</ele><time>2026-03-28T14:46:03.214Z</time></trkpt><trkpt lat="49.294325" lon="10.9658283"><ele>399.0</ele><time>2026-03-28T14:46:04.216Z</time></trkpt><trkpt lat="49.2943833" lon="10.966065"><ele>399.0</ele><time>2026-03-28T14:46:05.217Z</time></trkpt><trkpt lat="49.2944433" lon="10.9663033"><ele>401.33333333333337</ele><time>2026-03-28T14:46:06.207Z</time></trkpt><trkpt lat="49.2945" lon="10.9665433"><ele>403.6666666666667</ele><time>2026-03-28T14:46:07.217Z</time></trkpt><trkpt lat="49.2945567" lon="10.966785"><ele>406.0</ele><time>2026-03-28T14:46:08.222Z</time></trkpt><trkpt lat="49.2946133" lon="10.967025"><ele>408.6666666666667</ele><time>2026-03-28T14:46:09.213Z</time></trkpt><trkpt lat="49.2946717" lon="10.967265"><ele>411.33333333333337</ele><time>2026-03-28T14:46:10.216Z</time></trkpt><trkpt lat="49.2947267" lon="10.9675017"><ele>414.0</ele><time>2026-03-28T14:46:11.216Z</time></trkpt><trkpt lat="49.2947783" lon="10.967735"><ele>411.0</ele><time>2026-03-28T14:46:12.216Z</time></trkpt><trkpt lat="49.29483" lon="10.9679683"><ele>408.0</ele><time>2026-03-28T14:46:13.212Z</time></trkpt><trkpt lat="49.2948817" lon="10.968205"><ele>405.0</ele><time>2026-03-28T14:46:14.213Z</time></trkpt><trkpt lat="49.29494" lon="10.9684467"><ele>405.0</ele><time>2026-03-28T14:46:15.215Z</time></trkpt><trkpt lat="49.294995" lon="10.96869"><ele>405.0</ele><time>2026-03-28T14:46:16.209Z</time></trkpt><trkpt lat="49.2950533" lon="10.9689333"><ele>405.0</ele><time>2026-03-28T14:46:17.211Z</time></trkpt><trkpt lat="49.2951117" lon="10.9691817"><ele>408.0</ele><time>2026-03-28T14:46:18.207Z</time></trkpt><trkpt lat="49.2951717" lon="10.9694317"><ele>411.0</ele><time>2026-03-28T14:46:19.208Z</time></trkpt><trkpt lat="49.2952317" lon="10.9696833"><ele>414.0</ele><time>2026-03-28T14:46:20.211Z</time></trkpt><trkpt lat="49.2952883" lon="10.96994"><ele>416.0</ele><time>2026-03-28T14:46:21.213Z</time></trkpt><trkpt lat="49.2953483" lon="10.9702"><ele>418.0</ele><time>2026-03-28T14:46:22.222Z</time></trkpt><trkpt lat="49.29541" lon="10.9704633"><ele>420.0</ele><time>2026-03-28T14:46:23.211Z</time></trkpt><trkpt lat="49.2954767" lon="10.9707283"><ele>419.66666666666663</ele><time>2026-03-28T14:46:24.215Z</time></trkpt><trkpt lat="49.2955467" lon="10.9709983"><ele>419.3333333333333</ele><time>2026-03-28T14:46:25.217Z</time></trkpt><trkpt lat="49.295615" lon="10.9712717"><ele>419.0</ele><time>2026-03-28T14:46:26.214Z</time></trkpt><trkpt lat="49.2956783" lon="10.9715483"><ele>413.3333333333333</ele><time>2026-03-28T14:46:27.218Z</time></trkpt><trkpt lat="49.2957433" lon="10.9718267"><ele>407.66666666666663</ele><time>2026-03-28T14:46:28.21Z</time></trkpt><trkpt lat="49.2958117" lon="10.9721083"><ele>402.0</ele><time>2026-03-28T14:46:29.206Z</time></trkpt><trkpt lat="49.2958833" lon="10.9723933"><ele>401.0</ele><time>2026-03-28T14:46:30.215Z</time></trkpt><trkpt lat="49.2959567" lon="10.9726783"><ele>400.0</ele><time>2026-03-28T14:46:31.211Z</time></trkpt><trkpt lat="49.29603" lon="10.9729533"><ele>399.0</ele><time>2026-03-28T14:46:32.214Z</time></trkpt><trkpt lat="49.2961" lon="10.9732267"><ele>397.33333333333337</ele><time>2026-03-28T14:46:33.209Z</time></trkpt><trkpt lat="49.2961683" lon="10.9735017"><ele>395.6666666666667</ele><time>2026-03-28T14:46:34.203Z</time></trkpt><trkpt lat="49.2962417" lon="10.973775"><ele>394.0</ele><time>2026-03-28T14:46:35.212Z</time></trkpt><trkpt lat="49.2963167" lon="10.9740417"><ele>394.0</ele><time>2026-03-28T14:46:36.216Z</time></trkpt><trkpt lat="49.2963967" lon="10.9742917"><ele>394.0</ele><time>2026-03-28T14:46:37.22Z</time></trkpt><trkpt lat="49.2964783" lon="10.974525"><ele>394.0</ele><time>2026-03-28T14:46:38.216Z</time></trkpt><trkpt lat="49.2965583" lon="10.9747433"><ele>394.0</ele><time>2026-03-28T14:46:39.21Z</time></trkpt><trkpt lat="49.2966367" lon="10.97495"><ele>394.0</ele><time>2026-03-28T14:46:40.221Z</time></trkpt><trkpt lat="49.2967117" lon="10.9751433"><ele>394.0</ele><time>2026-03-28T14:46:41.221Z</time></trkpt><trkpt lat="49.296785" lon="10.975325"><ele>394.0</ele><time>2026-03-28T14:46:42.218Z</time></trkpt><trkpt lat="49.296855" lon="10.9754933"><ele>392.79999999999995</ele><time>2026-03-28T14:46:43.215Z</time></trkpt><trkpt lat="49.2969217" lon="10.9756467"><ele>391.59999999999997</ele><time>2026-03-28T14:46:44.21Z</time></trkpt><trkpt lat="49.29697" lon="10.97579"><ele>390.4</ele><time>2026-03-28T14:46:45.208Z</time></trkpt><trkpt lat="49.2970017" lon="10.975935"><ele>389.2</ele><time>2026-03-28T14:46:46.211Z</time></trkpt><trkpt lat="49.2970233" lon="10.9760717"><ele>388.0</ele><time>2026-03-28T14:46:47.213Z</time></trkpt><trkpt lat="49.29706" lon="10.9761933"><ele>387.59999999999997</ele><time>2026-03-28T14:46:48.212Z</time></trkpt><trkpt lat="49.2971183" lon="10.9762933"><ele>387.2</ele><time>2026-03-28T14:46:49.218Z</time></trkpt><trkpt lat="49.2971983" lon="10.9763717"><ele>386.8</ele><time>2026-03-28T14:46:50.211Z</time></trkpt><trkpt lat="49.2972933" lon="10.976455"><ele>386.4</ele><time>2026-03-28T14:46:51.207Z</time></trkpt><trkpt lat="49.2973817" lon="10.9765617"><ele>386.0</ele><time>2026-03-28T14:46:52.211Z</time></trkpt><trkpt lat="49.2974633" lon="10.9766883"><ele>385.75</ele><time>2026-03-28T14:46:53.206Z</time></trkpt><trkpt lat="49.2975467" lon="10.9768317"><ele>385.5</ele><time>2026-03-28T14:46:54.209Z</time></trkpt><trkpt lat="49.2976383" lon="10.9769917"><ele>385.25</ele><time>2026-03-28T14:46:55.216Z</time></trkpt><trkpt lat="49.29774" lon="10.9771733"><ele>385.0</ele><time>2026-03-28T14:46:56.212Z</time></trkpt><trkpt lat="49.297855" lon="10.9773783"><ele>384.6666666666667</ele><time>2026-03-28T14:46:57.223Z</time></trkpt><trkpt lat="49.2979783" lon="10.9776"><ele>384.33333333333337</ele><time>2026-03-28T14:46:58.215Z</time></trkpt><trkpt lat="49.298105" lon="10.9778317"><ele>384.0</ele><time>2026-03-28T14:46:59.214Z</time></trkpt><trkpt lat="49.2982267" lon="10.9780617"><ele>384.0</ele><time>2026-03-28T14:47:00.223Z</time></trkpt><trkpt lat="49.2983467" lon="10.9782933"><ele>384.0</ele><time>2026-03-28T14:47:01.214Z</time></trkpt><trkpt lat="49.2984617" lon="10.9785283"><ele>384.0</ele><time>2026-03-28T14:47:02.204Z</time></trkpt><trkpt lat="49.2985733" lon="10.978765"><ele>384.0</ele><time>2026-03-28T14:47:03.215Z</time></trkpt><trkpt lat="49.29868" lon="10.9790033"><ele>384.0</ele><time>2026-03-28T14:47:04.22Z</time></trkpt><trkpt lat="49.2987867" lon="10.979245"><ele>384.0</ele><time>2026-03-28T14:47:05.204Z</time></trkpt><trkpt lat="49.2988917" lon="10.97949"><ele>383.6666666666667</ele><time>2026-03-28T14:47:06.208Z</time></trkpt><trkpt lat="49.2989933" lon="10.97974"><ele>383.33333333333337</ele><time>2026-03-28T14:47:07.215Z</time></trkpt><trkpt lat="49.299095" lon="10.9799917"><ele>383.0</ele><time>2026-03-28T14:47:08.212Z</time></trkpt><trkpt lat="49.299195" lon="10.9802483"><ele>383.0</ele><time>2026-03-28T14:47:09.208Z</time></trkpt><trkpt lat="49.2992917" lon="10.9805083"><ele>383.0</ele><time>2026-03-28T14:47:10.211Z</time></trkpt><trkpt lat="49.2993817" lon="10.9807717"><ele>383.0</ele><time>2026-03-28T14:47:11.212Z</time></trkpt><trkpt lat="49.29947" lon="10.9810317"><ele>382.0</ele><time>2026-03-28T14:47:12.215Z</time></trkpt><trkpt lat="49.2995533" lon="10.9812933"><ele>381.0</ele><time>2026-03-28T14:47:13.206Z</time></trkpt><trkpt lat="49.2996333" lon="10.9815533"><ele>380.0</ele><time>2026-03-28T14:47:14.21Z</time></trkpt><trkpt lat="49.2997117" lon="10.98181"><ele>379.33333333333337</ele><time>2026-03-28T14:47:15.21Z</time></trkpt><trkpt lat="49.29979" lon="10.9820617"><ele>378.6666666666667</ele><time>2026-03-28T14:47:16.211Z</time></trkpt><trkpt lat="49.2998667" lon="10.982305"><ele>378.0</ele><time>2026-03-28T14:47:17.216Z</time></trkpt><trkpt lat="49.2999433" lon="10.9825433"><ele>377.6666666666667</ele><time>2026-03-28T14:47:18.207Z</time></trkpt><trkpt lat="49.3000217" lon="10.98278"><ele>377.33333333333337</ele><time>2026-03-28T14:47:19.215Z</time></trkpt><trkpt lat="49.300105" lon="10.983015"><ele>377.0</ele><time>2026-03-28T14:47:20.226Z</time></trkpt><trkpt lat="49.3001933" lon="10.9832483"><ele>377.0</ele><time>2026-03-28T14:47:21.215Z</time></trkpt><trkpt lat="49.3002933" lon="10.9834767"><ele>377.0</ele><time>2026-03-28T14:47:22.229Z</time></trkpt><trkpt lat="49.3003983" lon="10.9837"><ele>377.0</ele><time>2026-03-28T14:47:23.209Z</time></trkpt><trkpt lat="49.3005083" lon="10.9839167"><ele>376.33333333333337</ele><time>2026-03-28T14:47:24.22Z</time></trkpt><trkpt lat="49.3006217" lon="10.9841267"><ele>375.6666666666667</ele><time>2026-03-28T14:47:25.211Z</time></trkpt><trkpt lat="49.3007417" lon="10.9843367"><ele>375.0</ele><time>2026-03-28T14:47:26.219Z</time></trkpt><trkpt lat="49.300865" lon="10.9845467"><ele>375.0</ele><time>2026-03-28T14:47:27.206Z</time></trkpt><trkpt lat="49.30099" lon="10.98476"><ele>375.0</ele><time>2026-03-28T14:47:28.211Z</time></trkpt><trkpt lat="49.301115" lon="10.9849733"><ele>375.0</ele><time>2026-03-28T14:47:29.212Z</time></trkpt><trkpt lat="49.3012417" lon="10.98519"><ele>374.6666666666667</ele><time>2026-03-28T14:47:30.215Z</time></trkpt><trkpt lat="49.3013683" lon="10.9854083"><ele>374.33333333333337</ele><time>2026-03-28T14:47:31.212Z</time></trkpt><trkpt lat="49.301495" lon="10.9856267"><ele>374.0</ele><time>2026-03-28T14:47:32.208Z</time></trkpt><trkpt lat="49.3016217" lon="10.9858483"><ele>372.6666666666667</ele><time>2026-03-28T14:47:33.221Z</time></trkpt><trkpt lat="49.3017483" lon="10.98607"><ele>371.3333333333333</ele><time>2026-03-28T14:47:34.212Z</time></trkpt><trkpt lat="49.3018733" lon="10.9862867"><ele>370.0</ele><time>2026-03-28T14:47:35.213Z</time></trkpt><trkpt lat="49.301995" lon="10.9864983"><ele>369.66666666666663</ele><time>2026-03-28T14:47:36.208Z</time></trkpt><trkpt lat="49.30211" lon="10.9867067"><ele>369.3333333333333</ele><time>2026-03-28T14:47:37.21Z</time></trkpt><trkpt lat="49.30222" lon="10.9869133"><ele>369.0</ele><time>2026-03-28T14:47:38.216Z</time></trkpt><trkpt lat="49.30232" lon="10.9871167"><ele>369.0</ele><time>2026-03-28T14:47:39.21Z</time></trkpt><trkpt lat="49.3024083" lon="10.98732"><ele>369.0</ele><time>2026-03-28T14:47:40.211Z</time></trkpt><trkpt lat="49.3024867" lon="10.98752"><ele>369.0</ele><time>2026-03-28T14:47:41.211Z</time></trkpt><trkpt lat="49.3025567" lon="10.9877167"><ele>368.25</ele><time>2026-03-28T14:47:42.21Z</time></trkpt><trkpt lat="49.3026233" lon="10.987915"><ele>367.5</ele><time>2026-03-28T14:47:43.211Z</time></trkpt><trkpt lat="49.302685" lon="10.9881133"><ele>366.75</ele><time>2026-03-28T14:47:44.217Z</time></trkpt><trkpt lat="49.3027383" lon="10.9883117"><ele>366.0</ele><time>2026-03-28T14:47:45.22Z</time></trkpt><trkpt lat="49.3027867" lon="10.9885117"><ele>365.75</ele><time>2026-03-28T14:47:46.218Z</time></trkpt><trkpt lat="49.3028333" lon="10.9887117"><ele>365.5</ele><time>2026-03-28T14:47:47.209Z</time></trkpt><trkpt lat="49.3028783" lon="10.988905"><ele>365.25</ele><time>2026-03-28T14:47:48.208Z</time></trkpt><trkpt lat="49.30292" lon="10.98909"><ele>365.0</ele><time>2026-03-28T14:47:49.213Z</time></trkpt><trkpt lat="49.3029667" lon="10.9892733"><ele>364.75</ele><time>2026-03-28T14:47:50.214Z</time></trkpt><trkpt lat="49.3030133" lon="10.9894517"><ele>364.5</ele><time>2026-03-28T14:47:51.216Z</time></trkpt><trkpt lat="49.30306" lon="10.9896233"><ele>364.25</ele><time>2026-03-28T14:47:52.207Z</time></trkpt><trkpt lat="49.3031083" lon="10.98979"><ele>364.0</ele><time>2026-03-28T14:47:53.206Z</time></trkpt><trkpt lat="49.303155" lon="10.9899533"><ele>364.25</ele><time>2026-03-28T14:47:54.213Z</time></trkpt><trkpt lat="49.3031983" lon="10.990115"><ele>364.5</ele><time>2026-03-28T14:47:55.214Z</time></trkpt><trkpt lat="49.303245" lon="10.9902767"><ele>364.75</ele><time>2026-03-28T14:47:56.218Z</time></trkpt><trkpt lat="49.3032983" lon="10.9904317"><ele>365.0</ele><time>2026-03-28T14:47:57.215Z</time></trkpt><trkpt lat="49.3033583" lon="10.99058"><ele>365.0</ele><time>2026-03-28T14:47:58.221Z</time></trkpt><trkpt lat="49.303425" lon="10.9907233"><ele>365.0</ele><time>2026-03-28T14:47:59.215Z</time></trkpt><trkpt lat="49.303495" lon="10.9908683"><ele>365.0</ele><time>2026-03-28T14:48:00.211Z</time></trkpt><trkpt lat="49.303565" lon="10.991015"><ele>365.0</ele><time>2026-03-28T14:48:01.211Z</time></trkpt><trkpt lat="49.303635" lon="10.9911667"><ele>364.75</ele><time>2026-03-28T14:48:02.206Z</time></trkpt><trkpt lat="49.3037067" lon="10.9913183"><ele>364.5</ele><time>2026-03-28T14:48:03.22Z</time></trkpt><trkpt lat="49.30378" lon="10.99147"><ele>364.25</ele><time>2026-03-28T14:48:04.214Z</time></trkpt><trkpt lat="49.3038533" lon="10.9916267"><ele>364.0</ele><time>2026-03-28T14:48:05.218Z</time></trkpt><trkpt lat="49.3039283" lon="10.9917833"><ele>364.0</ele><time>2026-03-28T14:48:06.205Z</time></trkpt><trkpt lat="49.3040067" lon="10.9919433"><ele>364.0</ele><time>2026-03-28T14:48:07.208Z</time></trkpt><trkpt lat="49.30409" lon="10.9921067"><ele>364.0</ele><time>2026-03-28T14:48:08.201Z</time></trkpt><trkpt lat="49.3041733" lon="10.992275"><ele>364.0</ele><time>2026-03-28T14:48:09.211Z</time></trkpt><trkpt lat="49.304255" lon="10.992445"><ele>364.0</ele><time>2026-03-28T14:48:10.221Z</time></trkpt><trkpt lat="49.3043367" lon="10.9926167"><ele>364.0</ele><time>2026-03-28T14:48:11.216Z</time></trkpt><trkpt lat="49.3044217" lon="10.9927917"><ele>364.0</ele><time>2026-03-28T14:48:12.212Z</time></trkpt><trkpt lat="49.3045067" lon="10.9929667"><ele>364.0</ele><time>2026-03-28T14:48:13.21Z</time></trkpt><trkpt lat="49.3045917" lon="10.9931433"><ele>364.0</ele><time>2026-03-28T14:48:14.213Z</time></trkpt><trkpt lat="49.3046783" lon="10.9933217"><ele>364.0</ele><time>2026-03-28T14:48:15.214Z</time></trkpt><trkpt lat="49.3047667" lon="10.9935"><ele>364.0</ele><time>2026-03-28T14:48:16.212Z</time></trkpt><trkpt lat="49.3048517" lon="10.99368"><ele>364.0</ele><time>2026-03-28T14:48:17.215Z</time></trkpt><trkpt lat="49.3049367" lon="10.9938583"><ele>364.0</ele><time>2026-03-28T14:48:18.215Z</time></trkpt><trkpt lat="49.30502" lon="10.9940367"><ele>364.0</ele><time>2026-03-28T14:48:19.223Z</time></trkpt><trkpt lat="49.3051017" lon="10.9942083"><ele>364.0</ele><time>2026-03-28T14:48:20.214Z</time></trkpt><trkpt lat="49.3051817" lon="10.9943767"><ele>364.0</ele><time>2026-03-28T14:48:21.209Z</time></trkpt><trkpt lat="49.3052617" lon="10.99454"><ele>363.5</ele><time>2026-03-28T14:48:22.215Z</time></trkpt><trkpt lat="49.3053417" lon="10.9946983"><ele>363.0</ele><time>2026-03-28T14:48:23.207Z</time></trkpt><trkpt lat="49.3054183" lon="10.9948467"><ele>362.5</ele><time>2026-03-28T14:48:24.212Z</time></trkpt><trkpt lat="49.3054933" lon="10.9949867"><ele>362.0</ele><time>2026-03-28T14:48:25.209Z</time></trkpt><trkpt lat="49.30557" lon="10.9951133"><ele>362.0</ele><time>2026-03-28T14:48:26.21Z</time></trkpt><trkpt lat="49.3056467" lon="10.9952317"><ele>362.0</ele><time>2026-03-28T14:48:27.214Z</time></trkpt><trkpt lat="49.3057283" lon="10.9953433"><ele>362.0</ele><time>2026-03-28T14:48:28.202Z</time></trkpt><trkpt lat="49.305815" lon="10.9954517"><ele>362.0</ele><time>2026-03-28T14:48:29.217Z</time></trkpt><trkpt lat="49.3059083" lon="10.99555"><ele>362.0</ele><time>2026-03-28T14:48:30.214Z</time></trkpt><trkpt lat="49.3060067" lon="10.9956417"><ele>362.0</ele><time>2026-03-28T14:48:31.216Z</time></trkpt><trkpt lat="49.3061067" lon="10.9957333"><ele>362.0</ele><time>2026-03-28T14:48:32.211Z</time></trkpt><trkpt lat="49.3062067" lon="10.9958217"><ele>362.0</ele><time>2026-03-28T14:48:33.208Z</time></trkpt><trkpt lat="49.30631" lon="10.9959033"><ele>362.0</ele><time>2026-03-28T14:48:34.209Z</time></trkpt><trkpt lat="49.3064183" lon="10.9959783"><ele>363.0</ele><time>2026-03-28T14:48:35.214Z</time></trkpt><trkpt lat="49.30653" lon="10.9960533"><ele>364.0</ele><time>2026-03-28T14:48:36.219Z</time></trkpt><trkpt lat="49.3066467" lon="10.9961283"><ele>365.0</ele><time>2026-03-28T14:48:37.216Z</time></trkpt><trkpt lat="49.3067633" lon="10.9962117"><ele>366.0</ele><time>2026-03-28T14:48:38.211Z</time></trkpt><trkpt lat="49.3068783" lon="10.9962983"><ele>366.0</ele><time>2026-03-28T14:48:39.212Z</time></trkpt><trkpt lat="49.3069917" lon="10.9963817"><ele>366.0</ele><time>2026-03-28T14:48:40.214Z</time></trkpt><trkpt lat="49.3071017" lon="10.9964617"><ele>366.0</ele><time>2026-03-28T14:48:41.211Z</time></trkpt><trkpt lat="49.307215" lon="10.9965383"><ele>366.0</ele><time>2026-03-28T14:48:42.222Z</time></trkpt><trkpt lat="49.3073317" lon="10.9966167"><ele>366.5</ele><time>2026-03-28T14:48:43.209Z</time></trkpt><trkpt lat="49.3074417" lon="10.9966917"><ele>367.0</ele><time>2026-03-28T14:48:44.211Z</time></trkpt><trkpt lat="49.30755" lon="10.99677"><ele>367.5</ele><time>2026-03-28T14:48:45.208Z</time></trkpt><trkpt lat="49.307655" lon="10.9968533"><ele>368.0</ele><time>2026-03-28T14:48:46.21Z</time></trkpt><trkpt lat="49.30776" lon="10.996945"><ele>368.0</ele><time>2026-03-28T14:48:47.21Z</time></trkpt><trkpt lat="49.3078633" lon="10.9970383"><ele>368.0</ele><time>2026-03-28T14:48:48.213Z</time></trkpt><trkpt lat="49.3079683" lon="10.997135"><ele>368.0</ele><time>2026-03-28T14:48:49.206Z</time></trkpt><trkpt lat="49.308075" lon="10.9972317"><ele>368.0</ele><time>2026-03-28T14:48:50.208Z</time></trkpt><trkpt lat="49.308185" lon="10.9973317"><ele>369.0</ele><time>2026-03-28T14:48:51.214Z</time></trkpt><trkpt lat="49.308295" lon="10.9974383"><ele>370.0</ele><time>2026-03-28T14:48:52.211Z</time></trkpt><trkpt lat="49.308405" lon="10.9975483"><ele>371.0</ele><time>2026-03-28T14:48:53.208Z</time></trkpt><trkpt lat="49.3085167" lon="10.997665"><ele>372.0</ele><time>2026-03-28T14:48:54.219Z</time></trkpt><trkpt lat="49.3086233" lon="10.997785"><ele>372.0</ele><time>2026-03-28T14:48:55.216Z</time></trkpt><trkpt lat="49.3087317" lon="10.9979017"><ele>372.0</ele><time>2026-03-28T14:48:56.216Z</time></trkpt><trkpt lat="49.3088383" lon="10.99802"><ele>372.0</ele><time>2026-03-28T14:48:57.211Z</time></trkpt><trkpt lat="49.308945" lon="10.99814"><ele>372.0</ele><time>2026-03-28T14:48:58.213Z</time></trkpt><trkpt lat="49.30906" lon="10.9982667"><ele>371.75</ele><time>2026-03-28T14:48:59.205Z</time></trkpt><trkpt lat="49.3091783" lon="10.9983967"><ele>371.5</ele><time>2026-03-28T14:49:00.209Z</time></trkpt><trkpt lat="49.3092983" lon="10.9985283"><ele>371.25</ele><time>2026-03-28T14:49:01.209Z</time></trkpt><trkpt lat="49.3094183" lon="10.9986617"><ele>371.0</ele><time>2026-03-28T14:49:02.207Z</time></trkpt><trkpt lat="49.30954" lon="10.9987967"><ele>371.0</ele><time>2026-03-28T14:49:03.207Z</time></trkpt><trkpt lat="49.3096617" lon="10.9989317"><ele>371.0</ele><time>2026-03-28T14:49:04.214Z</time></trkpt><trkpt lat="49.3097883" lon="10.999075"><ele>371.0</ele><time>2026-03-28T14:49:05.208Z</time></trkpt><trkpt lat="49.3099183" lon="10.9992217"><ele>371.6666666666667</ele><time>2026-03-28T14:49:06.208Z</time></trkpt><trkpt lat="49.3100433" lon="10.9993667"><ele>372.3333333333333</ele><time>2026-03-28T14:49:07.215Z</time></trkpt><trkpt lat="49.3101733" lon="10.9995083"><ele>373.0</ele><time>2026-03-28T14:49:08.214Z</time></trkpt><trkpt lat="49.310305" lon="10.9996433"><ele>373.0</ele><time>2026-03-28T14:49:09.216Z</time></trkpt><trkpt lat="49.3104183" lon="10.999785"><ele>373.0</ele><time>2026-03-28T14:49:10.217Z</time></trkpt><trkpt lat="49.310535" lon="10.9998967"><ele>373.0</ele><time>2026-03-28T14:49:11.216Z</time></trkpt><trkpt lat="49.3106367" lon="11.0000133"><ele>373.0</ele><time>2026-03-28T14:49:12.207Z</time></trkpt><trkpt lat="49.3107317" lon="11.0001183"><ele>373.2</ele><time>2026-03-28T14:49:13.218Z</time></trkpt><trkpt lat="49.3108167" lon="11.0002183"><ele>373.4</ele><time>2026-03-28T14:49:14.213Z</time></trkpt><trkpt lat="49.3108967" lon="11.000315"><ele>373.59999999999997</ele><time>2026-03-28T14:49:15.213Z</time></trkpt><trkpt lat="49.3109683" lon="11.000405"><ele>373.79999999999995</ele><time>2026-03-28T14:49:16.208Z</time></trkpt><trkpt lat="49.3110333" lon="11.0004883"><ele>374.0</ele><time>2026-03-28T14:49:17.21Z</time></trkpt><trkpt lat="49.311095" lon="11.0005667"><ele>374.0</ele><time>2026-03-28T14:49:18.204Z</time></trkpt><trkpt lat="49.3111483" lon="11.000635"><ele>374.0</ele><time>2026-03-28T14:49:19.208Z</time></trkpt><trkpt lat="49.31124" lon="11.0007533"><ele>374.0</ele><time>2026-03-28T14:49:21.196Z</time></trkpt><trkpt lat="49.31132" lon="11.00086"><ele>374.0</ele><time>2026-03-28T14:49:23.214Z</time></trkpt><trkpt lat="49.3113783" lon="11.0009417"><ele>374.0</ele><time>2026-03-28T14:49:25.214Z</time></trkpt><trkpt lat="49.3114517" lon="11.0010517"><ele>373.25</ele><time>2026-03-28T14:49:49.208Z</time></trkpt><trkpt lat="49.3115083" lon="11.0011367"><ele>372.5</ele><time>2026-03-28T14:49:50.212Z</time></trkpt><trkpt lat="49.3115783" lon="11.001245"><ele>371.75</ele><time>2026-03-28T14:49:51.214Z</time></trkpt><trkpt lat="49.3116767" lon="11.0014067"><ele>371.0</ele><time>2026-03-28T14:49:52.205Z</time></trkpt><trkpt lat="49.31178" lon="11.001605"><ele>371.0</ele><time>2026-03-28T14:49:53.211Z</time></trkpt><trkpt lat="49.3118867" lon="11.0018383"><ele>371.0</ele><time>2026-03-28T14:49:54.21Z</time></trkpt><trkpt lat="49.3119933" lon="11.0020917"><ele>371.0</ele><time>2026-03-28T14:49:55.218Z</time></trkpt><trkpt lat="49.312095" lon="11.002345"><ele>371.0</ele><time>2026-03-28T14:49:56.209Z</time></trkpt><trkpt lat="49.3121917" lon="11.0025983"><ele>371.0</ele><time>2026-03-28T14:49:57.22Z</time></trkpt><trkpt lat="49.3122833" lon="11.0028467"><ele>371.0</ele><time>2026-03-28T14:49:58.206Z</time></trkpt><trkpt lat="49.3123667" lon="11.0030933"><ele>370.6666666666667</ele><time>2026-03-28T14:49:59.207Z</time></trkpt><trkpt lat="49.3124417" lon="11.0033383"><ele>370.3333333333333</ele><time>2026-03-28T14:50:00.209Z</time></trkpt><trkpt lat="49.3125083" lon="11.00358"><ele>370.0</ele><time>2026-03-28T14:50:01.214Z</time></trkpt><trkpt lat="49.3125683" lon="11.0038217"><ele>370.0</ele><time>2026-03-28T14:50:02.21Z</time></trkpt><trkpt lat="49.3126233" lon="11.0040617"><ele>370.0</ele><time>2026-03-28T14:50:03.213Z</time></trkpt><trkpt lat="49.3126717" lon="11.0042967"><ele>370.0</ele><time>2026-03-28T14:50:04.213Z</time></trkpt><trkpt lat="49.3127167" lon="11.0045217"><ele>370.0</ele><time>2026-03-28T14:50:05.206Z</time></trkpt><trkpt lat="49.3127583" lon="11.004735"><ele>370.0</ele><time>2026-03-28T14:50:06.206Z</time></trkpt><trkpt lat="49.3128" lon="11.0049333"><ele>370.0</ele><time>2026-03-28T14:50:07.214Z</time></trkpt><trkpt lat="49.31284" lon="11.00512"><ele>370.0</ele><time>2026-03-28T14:50:08.214Z</time></trkpt><trkpt lat="49.31288" lon="11.005295"><ele>370.8</ele><time>2026-03-28T14:50:09.216Z</time></trkpt><trkpt lat="49.31292" lon="11.0054633"><ele>371.6</ele><time>2026-03-28T14:50:10.207Z</time></trkpt><trkpt lat="49.3129633" lon="11.00562"><ele>372.4</ele><time>2026-03-28T14:50:11.206Z</time></trkpt><trkpt lat="49.313005" lon="11.0057683"><ele>373.2</ele><time>2026-03-28T14:50:12.212Z</time></trkpt><trkpt lat="49.3130433" lon="11.0059083"><ele>374.0</ele><time>2026-03-28T14:50:13.213Z</time></trkpt><trkpt lat="49.3130617" lon="11.0060433"><ele>375.0</ele><time>2026-03-28T14:50:14.23Z</time></trkpt><trkpt lat="49.3130617" lon="11.006175"><ele>376.0</ele><time>2026-03-28T14:50:15.205Z</time></trkpt><trkpt lat="49.31307" lon="11.0063017"><ele>377.0</ele><time>2026-03-28T14:50:16.21Z</time></trkpt><trkpt lat="49.3131017" lon="11.0064233"><ele>378.0</ele><time>2026-03-28T14:50:17.216Z</time></trkpt><trkpt lat="49.3131583" lon="11.0065367"><ele>379.0</ele><time>2026-03-28T14:50:18.209Z</time></trkpt><trkpt lat="49.3132533" lon="11.0066367"><ele>375.3333333333333</ele><time>2026-03-28T14:50:19.217Z</time></trkpt><trkpt lat="49.313355" lon="11.0067667"><ele>371.6666666666667</ele><time>2026-03-28T14:50:20.206Z</time></trkpt><trkpt lat="49.313455" lon="11.0069517"><ele>368.0</ele><time>2026-03-28T14:50:21.211Z</time></trkpt><trkpt lat="49.3135733" lon="11.007185"><ele>368.0</ele><time>2026-03-28T14:50:22.214Z</time></trkpt><trkpt lat="49.3137133" lon="11.0074317"><ele>368.0</ele><time>2026-03-28T14:50:23.197Z</time></trkpt><trkpt lat="49.3138683" lon="11.00767"><ele>368.0</ele><time>2026-03-28T14:50:24.206Z</time></trkpt><trkpt lat="49.3140283" lon="11.0078967"><ele>368.0</ele><time>2026-03-28T14:50:25.209Z</time></trkpt><trkpt lat="49.3141817" lon="11.00811"><ele>368.0</ele><time>2026-03-28T14:50:26.217Z</time></trkpt><trkpt lat="49.31433" lon="11.0083133"><ele>368.0</ele><time>2026-03-28T14:50:27.211Z</time></trkpt><trkpt lat="49.3144733" lon="11.0085083"><ele>368.0</ele><time>2026-03-28T14:50:28.207Z</time></trkpt><trkpt lat="49.3146183" lon="11.0086967"><ele>368.0</ele><time>2026-03-28T14:50:29.209Z</time></trkpt><trkpt lat="49.31476" lon="11.008885"><ele>368.0</ele><time>2026-03-28T14:50:30.217Z</time></trkpt><trkpt lat="49.3149" lon="11.0090717"><ele>366.33333333333337</ele><time>2026-03-28T14:50:31.21Z</time></trkpt><trkpt lat="49.3150383" lon="11.0092533"><ele>364.6666666666667</ele><time>2026-03-28T14:50:32.212Z</time></trkpt><trkpt lat="49.3151717" lon="11.00943"><ele>363.0</ele><time>2026-03-28T14:50:33.213Z</time></trkpt><trkpt lat="49.3153033" lon="11.009605"><ele>363.0</ele><time>2026-03-28T14:50:34.215Z</time></trkpt><trkpt lat="49.315435" lon="11.0097767"><ele>363.0</ele><time>2026-03-28T14:50:35.209Z</time></trkpt><trkpt lat="49.3155633" lon="11.0099483"><ele>363.0</ele><time>2026-03-28T14:50:36.206Z</time></trkpt><trkpt lat="49.3156917" lon="11.0101167"><ele>362.0</ele><time>2026-03-28T14:50:37.215Z</time></trkpt><trkpt lat="49.3158183" lon="11.0102833"><ele>361.0</ele><time>2026-03-28T14:50:38.217Z</time></trkpt><trkpt lat="49.3159433" lon="11.0104483"><ele>360.0</ele><time>2026-03-28T14:50:39.21Z</time></trkpt><trkpt lat="49.3160667" lon="11.0106167"><ele>360.0</ele><time>2026-03-28T14:50:40.208Z</time></trkpt><trkpt lat="49.3161917" lon="11.0107817"><ele>360.0</ele><time>2026-03-28T14:50:41.216Z</time></trkpt><trkpt lat="49.316315" lon="11.010945"><ele>360.0</ele><time>2026-03-28T14:50:42.212Z</time></trkpt><trkpt lat="49.316435" lon="11.0111033"><ele>359.5</ele><time>2026-03-28T14:50:43.213Z</time></trkpt><trkpt lat="49.31655" lon="11.0112533"><ele>359.0</ele><time>2026-03-28T14:50:44.203Z</time></trkpt><trkpt lat="49.316655" lon="11.01139"><ele>358.5</ele><time>2026-03-28T14:50:45.209Z</time></trkpt><trkpt lat="49.31675" lon="11.011515"><ele>358.0</ele><time>2026-03-28T14:50:46.215Z</time></trkpt><trkpt lat="49.3168367" lon="11.0116267"><ele>357.8333333333333</ele><time>2026-03-28T14:50:47.212Z</time></trkpt><trkpt lat="49.31691" lon="11.0117283"><ele>357.66666666666663</ele><time>2026-03-28T14:50:48.209Z</time></trkpt><trkpt lat="49.3169783" lon="11.01182"><ele>357.5</ele><time>2026-03-28T14:50:49.201Z</time></trkpt><trkpt lat="49.3170383" lon="11.0119"><ele>357.3333333333333</ele><time>2026-03-28T14:50:50.201Z</time></trkpt><trkpt lat="49.31709" lon="11.011965"><ele>357.1666666666667</ele><time>2026-03-28T14:50:51.212Z</time></trkpt><trkpt lat="49.31717" lon="11.012065"><ele>357.0</ele><time>2026-03-28T14:50:53.215Z</time></trkpt><trkpt lat="49.31722" lon="11.0121267"><ele>356.8</ele><time>2026-03-28T14:50:55.21Z</time></trkpt><trkpt lat="49.31728" lon="11.012205"><ele>356.6</ele><time>2026-03-28T14:50:57.208Z</time></trkpt><trkpt lat="49.317385" lon="11.0123367"><ele>356.40000000000003</ele><time>2026-03-28T14:50:59.214Z</time></trkpt><trkpt lat="49.3174533" lon="11.0124267"><ele>356.20000000000005</ele><time>2026-03-28T14:51:00.207Z</time></trkpt><trkpt lat="49.3175283" lon="11.012525"><ele>356.0</ele><time>2026-03-28T14:51:01.209Z</time></trkpt><trkpt lat="49.31761" lon="11.0126317"><ele>355.75</ele><time>2026-03-28T14:51:02.213Z</time></trkpt><trkpt lat="49.3177" lon="11.0127467"><ele>355.5</ele><time>2026-03-28T14:51:03.213Z</time></trkpt><trkpt lat="49.3177917" lon="11.0128633"><ele>355.25</ele><time>2026-03-28T14:51:04.215Z</time></trkpt><trkpt lat="49.31789" lon="11.0129817"><ele>355.0</ele><time>2026-03-28T14:51:05.214Z</time></trkpt><trkpt lat="49.3179917" lon="11.013105"><ele>354.5</ele><time>2026-03-28T14:51:06.214Z</time></trkpt><trkpt lat="49.3181033" lon="11.0132317"><ele>354.0</ele><time>2026-03-28T14:51:07.215Z</time></trkpt><trkpt lat="49.3182233" lon="11.0133533"><ele>353.5</ele><time>2026-03-28T14:51:08.216Z</time></trkpt><trkpt lat="49.318355" lon="11.013465"><ele>353.0</ele><time>2026-03-28T14:51:09.217Z</time></trkpt><trkpt lat="49.3184933" lon="11.013565"><ele>353.0</ele><time>2026-03-28T14:51:10.21Z</time></trkpt><trkpt lat="49.318635" lon="11.01366"><ele>353.0</ele><time>2026-03-28T14:51:11.222Z</time></trkpt><trkpt lat="49.31878" lon="11.01375"><ele>353.0</ele><time>2026-03-28T14:51:12.205Z</time></trkpt><trkpt lat="49.318925" lon="11.0138367"><ele>353.33333333333337</ele><time>2026-03-28T14:51:13.211Z</time></trkpt><trkpt lat="49.31907" lon="11.0139183"><ele>353.6666666666667</ele><time>2026-03-28T14:51:14.206Z</time></trkpt><trkpt lat="49.3192133" lon="11.0139983"><ele>354.0</ele><time>2026-03-28T14:51:15.216Z</time></trkpt><trkpt lat="49.31936" lon="11.01408"><ele>353.3333333333333</ele><time>2026-03-28T14:51:16.208Z</time></trkpt><trkpt lat="49.319505" lon="11.0141633"><ele>352.66666666666663</ele><time>2026-03-28T14:51:17.202Z</time></trkpt><trkpt lat="49.3196483" lon="11.014245"><ele>352.0</ele><time>2026-03-28T14:51:18.21Z</time></trkpt><trkpt lat="49.319795" lon="11.0143217"><ele>351.75</ele><time>2026-03-28T14:51:19.205Z</time></trkpt><trkpt lat="49.3199333" lon="11.0144"><ele>351.5</ele><time>2026-03-28T14:51:20.216Z</time></trkpt><trkpt lat="49.3200667" lon="11.0144767"><ele>351.25</ele><time>2026-03-28T14:51:21.214Z</time></trkpt><trkpt lat="49.3201967" lon="11.0145533"><ele>351.0</ele><time>2026-03-28T14:51:22.211Z</time></trkpt><trkpt lat="49.3203183" lon="11.0146333"><ele>351.0</ele><time>2026-03-28T14:51:23.205Z</time></trkpt><trkpt lat="49.3204333" lon="11.014715"><ele>351.0</ele><time>2026-03-28T14:51:24.215Z</time></trkpt><trkpt lat="49.32055" lon="11.0148017"><ele>351.0</ele><time>2026-03-28T14:51:25.213Z</time></trkpt><trkpt lat="49.3206667" lon="11.0148867"><ele>351.0</ele><time>2026-03-28T14:51:26.2Z</time></trkpt><trkpt lat="49.3207817" lon="11.0149767"><ele>350.25</ele><time>2026-03-28T14:51:27.213Z</time></trkpt><trkpt lat="49.3209017" lon="11.01507"><ele>349.5</ele><time>2026-03-28T14:51:28.214Z</time></trkpt><trkpt lat="49.3210233" lon="11.01516"><ele>348.75</ele><time>2026-03-28T14:51:29.216Z</time></trkpt><trkpt lat="49.321145" lon="11.0152533"><ele>348.0</ele><time>2026-03-28T14:51:30.213Z</time></trkpt><trkpt lat="49.3212683" lon="11.015345"><ele>348.0</ele><time>2026-03-28T14:51:31.216Z</time></trkpt><trkpt lat="49.3213933" lon="11.0154383"><ele>348.0</ele><time>2026-03-28T14:51:32.213Z</time></trkpt><trkpt lat="49.3215183" lon="11.0155283"><ele>348.0</ele><time>2026-03-28T14:51:33.205Z</time></trkpt><trkpt lat="49.3216317" lon="11.015615"><ele>348.0</ele><time>2026-03-28T14:51:34.212Z</time></trkpt><trkpt lat="49.321745" lon="11.0157"><ele>347.25</ele><time>2026-03-28T14:51:35.214Z</time></trkpt><trkpt lat="49.3218517" lon="11.0157833"><ele>346.5</ele><time>2026-03-28T14:51:36.21Z</time></trkpt><trkpt lat="49.3219583" lon="11.0158633"><ele>345.75</ele><time>2026-03-28T14:51:37.214Z</time></trkpt><trkpt lat="49.3220683" lon="11.0159433"><ele>345.0</ele><time>2026-03-28T14:51:38.206Z</time></trkpt><trkpt lat="49.3221783" lon="11.0160167"><ele>344.8</ele><time>2026-03-28T14:51:39.214Z</time></trkpt><trkpt lat="49.3222817" lon="11.0160833"><ele>344.6</ele><time>2026-03-28T14:51:40.203Z</time></trkpt><trkpt lat="49.3223833" lon="11.0161483"><ele>344.4</ele><time>2026-03-28T14:51:41.207Z</time></trkpt><trkpt lat="49.3224783" lon="11.0162217"><ele>344.2</ele><time>2026-03-28T14:51:42.21Z</time></trkpt><trkpt lat="49.32255" lon="11.01632"><ele>344.0</ele><time>2026-03-28T14:51:43.217Z</time></trkpt><trkpt lat="49.3225967" lon="11.0164467"><ele>344.0</ele><time>2026-03-28T14:51:44.215Z</time></trkpt><trkpt lat="49.3226167" lon="11.0165967"><ele>344.0</ele><time>2026-03-28T14:51:45.215Z</time></trkpt><trkpt lat="49.32261" lon="11.0167633"><ele>344.0</ele><time>2026-03-28T14:51:46.212Z</time></trkpt><trkpt lat="49.322595" lon="11.0169383"><ele>344.0</ele><time>2026-03-28T14:51:47.216Z</time></trkpt><trkpt lat="49.322575" lon="11.0171267"><ele>344.0</ele><time>2026-03-28T14:51:48.214Z</time></trkpt><trkpt lat="49.3225667" lon="11.0173117"><ele>343.83333333333337</ele><time>2026-03-28T14:51:49.215Z</time></trkpt><trkpt lat="49.322565" lon="11.01748"><ele>343.6666666666667</ele><time>2026-03-28T14:51:50.213Z</time></trkpt><trkpt lat="49.3225683" lon="11.01763"><ele>343.5</ele><time>2026-03-28T14:51:51.213Z</time></trkpt><trkpt lat="49.3225733" lon="11.017765"><ele>343.3333333333333</ele><time>2026-03-28T14:51:52.217Z</time></trkpt><trkpt lat="49.3225767" lon="11.0178867"><ele>343.16666666666663</ele><time>2026-03-28T14:51:53.218Z</time></trkpt><trkpt lat="49.3225817" lon="11.0179883"><ele>343.0</ele><time>2026-03-28T14:51:54.214Z</time></trkpt><trkpt lat="49.3225967" lon="11.0181267"><ele>343.0</ele><time>2026-03-28T14:51:56.213Z</time></trkpt><trkpt lat="49.3226083" lon="11.0182417"><ele>343.0</ele><time>2026-03-28T14:51:59.218Z</time></trkpt><trkpt lat="49.3226133" lon="11.0183767"><ele>343.0</ele><time>2026-03-28T14:52:01.208Z</time></trkpt><trkpt lat="49.3226167" lon="11.018485"><ele>343.0</ele><time>2026-03-28T14:52:02.214Z</time></trkpt><trkpt lat="49.3226217" lon="11.0186217"><ele>343.0</ele><time>2026-03-28T14:52:03.215Z</time></trkpt><trkpt lat="49.322635" lon="11.01878"><ele>343.0</ele><time>2026-03-28T14:52:04.22Z</time></trkpt><trkpt lat="49.3226483" lon="11.018945"><ele>343.0</ele><time>2026-03-28T14:52:05.218Z</time></trkpt><trkpt lat="49.3226617" lon="11.019115"><ele>343.0</ele><time>2026-03-28T14:52:06.214Z</time></trkpt><trkpt lat="49.3226717" lon="11.0192817"><ele>343.0</ele><time>2026-03-28T14:52:07.219Z</time></trkpt><trkpt lat="49.3226767" lon="11.019445"><ele>343.0</ele><time>2026-03-28T14:52:08.206Z</time></trkpt><trkpt lat="49.3226833" lon="11.0196067"><ele>343.0</ele><time>2026-03-28T14:52:09.215Z</time></trkpt><trkpt lat="49.32269" lon="11.0197667"><ele>344.0</ele><time>2026-03-28T14:52:10.213Z</time></trkpt><trkpt lat="49.3227033" lon="11.0199233"><ele>345.0</ele><time>2026-03-28T14:52:11.212Z</time></trkpt><trkpt lat="49.3227233" lon="11.0200833"><ele>346.0</ele><time>2026-03-28T14:52:12.211Z</time></trkpt><trkpt lat="49.32275" lon="11.02025"><ele>347.0</ele><time>2026-03-28T14:52:13.211Z</time></trkpt><trkpt lat="49.3227783" lon="11.0204283"><ele>348.0</ele><time>2026-03-28T14:52:14.215Z</time></trkpt><trkpt lat="49.32281" lon="11.0206017"><ele>348.25</ele><time>2026-03-28T14:52:15.213Z</time></trkpt><trkpt lat="49.32284" lon="11.0207667"><ele>348.5</ele><time>2026-03-28T14:52:16.215Z</time></trkpt><trkpt lat="49.32287" lon="11.02093"><ele>348.75</ele><time>2026-03-28T14:52:17.209Z</time></trkpt><trkpt lat="49.3229" lon="11.0210983"><ele>349.0</ele><time>2026-03-28T14:52:18.219Z</time></trkpt><trkpt lat="49.322935" lon="11.0212717"><ele>348.5</ele><time>2026-03-28T14:52:19.217Z</time></trkpt><trkpt lat="49.3229717" lon="11.0214567"><ele>348.0</ele><time>2026-03-28T14:52:20.216Z</time></trkpt><trkpt lat="49.3230117" lon="11.0216517"><ele>347.5</ele><time>2026-03-28T14:52:21.203Z</time></trkpt><trkpt lat="49.3230517" lon="11.0218483"><ele>347.0</ele><time>2026-03-28T14:52:22.215Z</time></trkpt><trkpt lat="49.3230883" lon="11.0220367"><ele>346.5</ele><time>2026-03-28T14:52:23.214Z</time></trkpt><trkpt lat="49.3231233" lon="11.0222133"><ele>346.0</ele><time>2026-03-28T14:52:24.215Z</time></trkpt><trkpt lat="49.3231583" lon="11.0223933"><ele>345.5</ele><time>2026-03-28T14:52:25.207Z</time></trkpt><trkpt lat="49.3231917" lon="11.0225767"><ele>345.0</ele><time>2026-03-28T14:52:26.219Z</time></trkpt><trkpt lat="49.3232283" lon="11.0227667"><ele>344.75</ele><time>2026-03-28T14:52:27.209Z</time></trkpt><trkpt lat="49.323265" lon="11.02296"><ele>344.5</ele><time>2026-03-28T14:52:28.21Z</time></trkpt><trkpt lat="49.3233033" lon="11.0231533"><ele>344.25</ele><time>2026-03-28T14:52:29.215Z</time></trkpt><trkpt lat="49.3233433" lon="11.02334"><ele>344.0</ele><time>2026-03-28T14:52:30.212Z</time></trkpt><trkpt lat="49.32338" lon="11.0235167"><ele>344.0</ele><time>2026-03-28T14:52:31.215Z</time></trkpt><trkpt lat="49.3234117" lon="11.0236883"><ele>344.0</ele><time>2026-03-28T14:52:32.216Z</time></trkpt><trkpt lat="49.3234433" lon="11.0238517"><ele>344.0</ele><time>2026-03-28T14:52:33.218Z</time></trkpt><trkpt lat="49.3234733" lon="11.0240067"><ele>344.0</ele><time>2026-03-28T14:52:34.216Z</time></trkpt><trkpt lat="49.3235017" lon="11.02416"><ele>344.0</ele><time>2026-03-28T14:52:35.213Z</time></trkpt><trkpt lat="49.3235283" lon="11.02431"><ele>343.83333333333337</ele><time>2026-03-28T14:52:36.217Z</time></trkpt><trkpt lat="49.3235533" lon="11.024455"><ele>343.6666666666667</ele><time>2026-03-28T14:52:37.216Z</time></trkpt><trkpt lat="49.3235767" lon="11.02459"><ele>343.5</ele><time>2026-03-28T14:52:38.217Z</time></trkpt><trkpt lat="49.3236" lon="11.02472"><ele>343.3333333333333</ele><time>2026-03-28T14:52:39.215Z</time></trkpt><trkpt lat="49.3236283" lon="11.02484"><ele>343.16666666666663</ele><time>2026-03-28T14:52:40.213Z</time></trkpt><trkpt lat="49.3236567" lon="11.02495"><ele>343.0</ele><time>2026-03-28T14:52:41.216Z</time></trkpt><trkpt lat="49.32369" lon="11.0250533"><ele>343.0</ele><time>2026-03-28T14:52:42.217Z</time></trkpt><trkpt lat="49.3237233" lon="11.025145"><ele>343.0</ele><time>2026-03-28T14:52:43.214Z</time></trkpt><trkpt lat="49.3237633" lon="11.0252633"><ele>343.0</ele><time>2026-03-28T14:52:45.218Z</time></trkpt><trkpt lat="49.32376" lon="11.025375"><ele>343.0</ele><time>2026-03-28T14:52:47.214Z</time></trkpt><trkpt lat="49.3237383" lon="11.0254667"><ele>343.0</ele><time>2026-03-28T14:52:48.218Z</time></trkpt><trkpt lat="49.323675" lon="11.025615"><ele>343.0</ele><time>2026-03-28T14:52:49.217Z</time></trkpt><trkpt lat="49.323605" lon="11.0257867"><ele>343.5</ele><time>2026-03-28T14:52:50.223Z</time></trkpt><trkpt lat="49.3235383" lon="11.02596"><ele>344.0</ele><time>2026-03-28T14:52:51.213Z</time></trkpt><trkpt lat="49.32347" lon="11.02612"><ele>344.5</ele><time>2026-03-28T14:52:52.217Z</time></trkpt><trkpt lat="49.3234" lon="11.02627"><ele>345.0</ele><time>2026-03-28T14:52:53.224Z</time></trkpt><trkpt lat="49.32333" lon="11.0264017"><ele>345.0</ele><time>2026-03-28T14:52:54.215Z</time></trkpt><trkpt lat="49.3232517" lon="11.0265267"><ele>345.0</ele><time>2026-03-28T14:52:55.216Z</time></trkpt><trkpt lat="49.32317" lon="11.0266467"><ele>345.0</ele><time>2026-03-28T14:52:56.216Z</time></trkpt><trkpt lat="49.32309" lon="11.0267633"><ele>345.0</ele><time>2026-03-28T14:52:57.216Z</time></trkpt><trkpt lat="49.323005" lon="11.0268767"><ele>345.0</ele><time>2026-03-28T14:52:58.209Z</time></trkpt><trkpt lat="49.3229167" lon="11.0269817"><ele>345.0</ele><time>2026-03-28T14:52:59.214Z</time></trkpt><trkpt lat="49.322825" lon="11.0270867"><ele>345.0</ele><time>2026-03-28T14:53:00.216Z</time></trkpt><trkpt lat="49.322735" lon="11.0271883"><ele>345.0</ele><time>2026-03-28T14:53:01.22Z</time></trkpt><trkpt lat="49.322655" lon="11.02729"><ele>345.0</ele><time>2026-03-28T14:53:02.218Z</time></trkpt><trkpt lat="49.3225783" lon="11.0273867"><ele>345.0</ele><time>2026-03-28T14:53:03.214Z</time></trkpt><trkpt lat="49.3225083" lon="11.0274817"><ele>345.0</ele><time>2026-03-28T14:53:04.213Z</time></trkpt><trkpt lat="49.3224467" lon="11.0275817"><ele>345.0</ele><time>2026-03-28T14:53:05.216Z</time></trkpt><trkpt lat="49.322395" lon="11.027685"><ele>345.0</ele><time>2026-03-28T14:53:06.217Z</time></trkpt><trkpt lat="49.3223367" lon="11.0277733"><ele>345.0</ele><time>2026-03-28T14:53:07.21Z</time></trkpt><trkpt lat="49.3222683" lon="11.0278333"><ele>345.0</ele><time>2026-03-28T14:53:08.217Z</time></trkpt><trkpt lat="49.3222" lon="11.0278883"><ele>345.0</ele><time>2026-03-28T14:53:09.215Z</time></trkpt><trkpt lat="49.3221467" lon="11.027965"><ele>345.2</ele><time>2026-03-28T14:53:10.216Z</time></trkpt><trkpt lat="49.3221167" lon="11.0280583"><ele>345.4</ele><time>2026-03-28T14:53:11.22Z</time></trkpt><trkpt lat="49.3221533" lon="11.0281833"><ele>345.6</ele><time>2026-03-28T14:53:12.22Z</time></trkpt><trkpt lat="49.3222117" lon="11.0283167"><ele>345.8</ele><time>2026-03-28T14:53:13.225Z</time></trkpt><trkpt lat="49.3222617" lon="11.028485"><ele>346.0</ele><time>2026-03-28T14:53:14.221Z</time></trkpt><trkpt lat="49.3223067" lon="11.02869"><ele>345.5</ele><time>2026-03-28T14:53:15.215Z</time></trkpt><trkpt lat="49.322355" lon="11.02889"><ele>345.0</ele><time>2026-03-28T14:53:16.213Z</time></trkpt><trkpt lat="49.322415" lon="11.0290683"><ele>344.5</ele><time>2026-03-28T14:53:17.215Z</time></trkpt><trkpt lat="49.3224833" lon="11.02922"><ele>344.0</ele><time>2026-03-28T14:53:18.217Z</time></trkpt><trkpt lat="49.3225533" lon="11.0293517"><ele>343.79999999999995</ele><time>2026-03-28T14:53:19.212Z</time></trkpt><trkpt lat="49.3226267" lon="11.0294617"><ele>343.59999999999997</ele><time>2026-03-28T14:53:20.215Z</time></trkpt><trkpt lat="49.3227017" lon="11.0295567"><ele>343.4</ele><time>2026-03-28T14:53:21.214Z</time></trkpt><trkpt lat="49.3227733" lon="11.0296483"><ele>343.2</ele><time>2026-03-28T14:53:22.217Z</time></trkpt><trkpt lat="49.3228417" lon="11.0297417"><ele>343.0</ele><time>2026-03-28T14:53:23.216Z</time></trkpt><trkpt lat="49.3229133" lon="11.0298367"><ele>343.0</ele><time>2026-03-28T14:53:24.214Z</time></trkpt><trkpt lat="49.3229833" lon="11.02994"><ele>343.0</ele><time>2026-03-28T14:53:25.208Z</time></trkpt><trkpt lat="49.323055" lon="11.030045"><ele>343.0</ele><time>2026-03-28T14:53:26.214Z</time></trkpt><trkpt lat="49.3231267" lon="11.03016"><ele>343.0</ele><time>2026-03-28T14:53:27.201Z</time></trkpt><trkpt lat="49.3231983" lon="11.03028"><ele>343.0</ele><time>2026-03-28T14:53:28.21Z</time></trkpt><trkpt lat="49.3232733" lon="11.0303983"><ele>342.59999999999997</ele><time>2026-03-28T14:53:29.216Z</time></trkpt><trkpt lat="49.32335" lon="11.03051"><ele>342.2</ele><time>2026-03-28T14:53:30.212Z</time></trkpt><trkpt lat="49.32343" lon="11.030615"><ele>341.8</ele><time>2026-03-28T14:53:31.207Z</time></trkpt><trkpt lat="49.3235133" lon="11.0307217"><ele>341.4</ele><time>2026-03-28T14:53:32.215Z</time></trkpt><trkpt lat="49.323595" lon="11.0308317"><ele>341.0</ele><time>2026-03-28T14:53:33.212Z</time></trkpt><trkpt lat="49.323675" lon="11.0309467"><ele>340.8</ele><time>2026-03-28T14:53:34.211Z</time></trkpt><trkpt lat="49.3237533" lon="11.031065"><ele>340.6</ele><time>2026-03-28T14:53:35.209Z</time></trkpt><trkpt lat="49.3238283" lon="11.0311867"><ele>340.4</ele><time>2026-03-28T14:53:36.212Z</time></trkpt><trkpt lat="49.3239017" lon="11.031305"><ele>340.2</ele><time>2026-03-28T14:53:37.218Z</time></trkpt><trkpt lat="49.3239683" lon="11.0314217"><ele>340.0</ele><time>2026-03-28T14:53:38.208Z</time></trkpt><trkpt lat="49.3240367" lon="11.031535"><ele>339.4</ele><time>2026-03-28T14:53:39.221Z</time></trkpt><trkpt lat="49.3241067" lon="11.0316417"><ele>338.8</ele><time>2026-03-28T14:53:40.214Z</time></trkpt><trkpt lat="49.324175" lon="11.03175"><ele>338.20000000000005</ele><time>2026-03-28T14:53:41.221Z</time></trkpt><trkpt lat="49.3242383" lon="11.0318583"><ele>337.6</ele><time>2026-03-28T14:53:42.212Z</time></trkpt><trkpt lat="49.3242983" lon="11.0319733"><ele>337.0</ele><time>2026-03-28T14:53:43.209Z</time></trkpt><trkpt lat="49.3243567" lon="11.032095"><ele>337.0</ele><time>2026-03-28T14:53:44.211Z</time></trkpt><trkpt lat="49.3244183" lon="11.032225"><ele>337.0</ele><time>2026-03-28T14:53:45.208Z</time></trkpt><trkpt lat="49.3244833" lon="11.03236"><ele>337.0</ele><time>2026-03-28T14:53:46.216Z</time></trkpt><trkpt lat="49.3245417" lon="11.03249"><ele>337.0</ele><time>2026-03-28T14:53:47.205Z</time></trkpt><trkpt lat="49.3245983" lon="11.0326167"><ele>337.0</ele><time>2026-03-28T14:53:48.215Z</time></trkpt><trkpt lat="49.324655" lon="11.032735"><ele>337.0</ele><time>2026-03-28T14:53:49.213Z</time></trkpt><trkpt lat="49.3247083" lon="11.0328467"><ele>337.0</ele><time>2026-03-28T14:53:50.215Z</time></trkpt><trkpt lat="49.3247583" lon="11.0329483"><ele>337.0</ele><time>2026-03-28T14:53:51.213Z</time></trkpt><trkpt lat="49.3248083" lon="11.03304"><ele>337.0</ele><time>2026-03-28T14:53:52.213Z</time></trkpt><trkpt lat="49.3248567" lon="11.0331233"><ele>337.0</ele><time>2026-03-28T14:53:53.21Z</time></trkpt><trkpt lat="49.324905" lon="11.0331983"><ele>337.0</ele><time>2026-03-28T14:53:54.213Z</time></trkpt><trkpt lat="49.3249933" lon="11.03331"><ele>337.5</ele><time>2026-03-28T14:53:56.209Z</time></trkpt><trkpt lat="49.3250583" lon="11.033405"><ele>338.0</ele><time>2026-03-28T14:53:58.216Z</time></trkpt><trkpt lat="49.3251033" lon="11.0334733"><ele>338.5</ele><time>2026-03-28T14:54:00.215Z</time></trkpt><trkpt lat="49.32515" lon="11.033545"><ele>339.0</ele><time>2026-03-28T14:54:27.218Z</time></trkpt><trkpt lat="49.3252033" lon="11.0336567"><ele>339.5</ele><time>2026-03-28T14:54:29.213Z</time></trkpt><trkpt lat="49.3252183" lon="11.0337517"><ele>340.0</ele><time>2026-03-28T14:54:30.217Z</time></trkpt><trkpt lat="49.32521" lon="11.0338767"><ele>340.0</ele><time>2026-03-28T14:54:31.217Z</time></trkpt><trkpt lat="49.3251817" lon="11.03403"><ele>340.0</ele><time>2026-03-28T14:54:32.219Z</time></trkpt><trkpt lat="49.3251417" lon="11.0341933"><ele>340.0</ele><time>2026-03-28T14:54:33.201Z</time></trkpt><trkpt lat="49.3250967" lon="11.0343567"><ele>340.0</ele><time>2026-03-28T14:54:34.219Z</time></trkpt><trkpt lat="49.32505" lon="11.0345283"><ele>339.5</ele><time>2026-03-28T14:54:35.218Z</time></trkpt><trkpt lat="49.3250017" lon="11.0347133"><ele>339.0</ele><time>2026-03-28T14:54:36.213Z</time></trkpt><trkpt lat="49.3249567" lon="11.034895"><ele>338.5</ele><time>2026-03-28T14:54:37.217Z</time></trkpt><trkpt lat="49.32491" lon="11.0350833"><ele>338.0</ele><time>2026-03-28T14:54:38.217Z</time></trkpt><trkpt lat="49.3248483" lon="11.035285"><ele>338.0</ele><time>2026-03-28T14:54:39.213Z</time></trkpt><trkpt lat="49.3248033" lon="11.03551"><ele>338.0</ele><time>2026-03-28T14:54:40.219Z</time></trkpt><trkpt lat="49.3247567" lon="11.0357067"><ele>338.0</ele><time>2026-03-28T14:54:41.211Z</time></trkpt><trkpt lat="49.324715" lon="11.0359017"><ele>338.0</ele><time>2026-03-28T14:54:42.217Z</time></trkpt><trkpt lat="49.324675" lon="11.0361033"><ele>338.0</ele><time>2026-03-28T14:54:43.209Z</time></trkpt><trkpt lat="49.3246283" lon="11.0362967"><ele>338.0</ele><time>2026-03-28T14:54:44.212Z</time></trkpt><trkpt lat="49.3245767" lon="11.0364833"><ele>338.0</ele><time>2026-03-28T14:54:45.218Z</time></trkpt><trkpt lat="49.3245217" lon="11.036665"><ele>338.0</ele><time>2026-03-28T14:54:46.215Z</time></trkpt><trkpt lat="49.3244617" lon="11.0368367"><ele>338.0</ele><time>2026-03-28T14:54:47.213Z</time></trkpt><trkpt lat="49.3244" lon="11.036995"><ele>338.0</ele><time>2026-03-28T14:54:48.217Z</time></trkpt><trkpt lat="49.3243333" lon="11.037145"><ele>338.0</ele><time>2026-03-28T14:54:49.212Z</time></trkpt><trkpt lat="49.324265" lon="11.0373"><ele>338.0</ele><time>2026-03-28T14:54:50.219Z</time></trkpt><trkpt lat="49.324205" lon="11.0374717"><ele>337.5</ele><time>2026-03-28T14:54:51.204Z</time></trkpt><trkpt lat="49.32415" lon="11.0376567"><ele>337.0</ele><time>2026-03-28T14:54:52.203Z</time></trkpt><trkpt lat="49.3240933" lon="11.03784"><ele>336.5</ele><time>2026-03-28T14:54:53.212Z</time></trkpt><trkpt lat="49.3240317" lon="11.038015"><ele>336.0</ele><time>2026-03-28T14:54:54.218Z</time></trkpt><trkpt lat="49.3239717" lon="11.0381817"><ele>336.0</ele><time>2026-03-28T14:54:55.217Z</time></trkpt><trkpt lat="49.32391" lon="11.03835"><ele>336.0</ele><time>2026-03-28T14:54:56.221Z</time></trkpt><trkpt lat="49.3238483" lon="11.0385183"><ele>336.0</ele><time>2026-03-28T14:54:57.214Z</time></trkpt><trkpt lat="49.3237883" lon="11.038685"><ele>336.0</ele><time>2026-03-28T14:54:58.215Z</time></trkpt><trkpt lat="49.3237283" lon="11.0388517"><ele>336.0</ele><time>2026-03-28T14:54:59.213Z</time></trkpt><trkpt lat="49.323665" lon="11.03902"><ele>336.0</ele><time>2026-03-28T14:55:00.214Z</time></trkpt><trkpt lat="49.3236017" lon="11.0391917"><ele>336.0</ele><time>2026-03-28T14:55:01.217Z</time></trkpt><trkpt lat="49.32354" lon="11.0393583"><ele>336.0</ele><time>2026-03-28T14:55:02.211Z</time></trkpt><trkpt lat="49.3234867" lon="11.0395017"><ele>336.4</ele><time>2026-03-28T14:55:03.216Z</time></trkpt><trkpt lat="49.3234483" lon="11.0396067"><ele>336.8</ele><time>2026-03-28T14:55:04.213Z</time></trkpt><trkpt lat="49.323405" lon="11.039735"><ele>337.2</ele><time>2026-03-28T14:55:06.222Z</time></trkpt><trkpt lat="49.3233733" lon="11.0398233"><ele>337.59999999999997</ele><time>2026-03-28T14:55:53.209Z</time></trkpt><trkpt lat="49.32331" lon="11.0399917"><ele>338.0</ele><time>2026-03-28T14:55:55.216Z</time></trkpt><trkpt lat="49.3232533" lon="11.0401283"><ele>338.0</ele><time>2026-03-28T14:55:56.222Z</time></trkpt><trkpt lat="49.3231883" lon="11.0402933"><ele>338.0</ele><time>2026-03-28T14:55:57.219Z</time></trkpt><trkpt lat="49.3231167" lon="11.0404717"><ele>338.0</ele><time>2026-03-28T14:55:58.217Z</time></trkpt><trkpt lat="49.3230433" lon="11.0406517"><ele>338.0</ele><time>2026-03-28T14:55:59.213Z</time></trkpt><trkpt lat="49.3229683" lon="11.0408317"><ele>338.25</ele><time>2026-03-28T14:56:00.219Z</time></trkpt><trkpt lat="49.3228883" lon="11.0410117"><ele>338.5</ele><time>2026-03-28T14:56:01.217Z</time></trkpt><trkpt lat="49.322805" lon="11.0411867"><ele>338.75</ele><time>2026-03-28T14:56:02.216Z</time></trkpt><trkpt lat="49.3227217" lon="11.0413517"><ele>339.0</ele><time>2026-03-28T14:56:03.213Z</time></trkpt><trkpt lat="49.3226433" lon="11.0415083"><ele>339.0</ele><time>2026-03-28T14:56:04.213Z</time></trkpt><trkpt lat="49.3225683" lon="11.041655"><ele>339.0</ele><time>2026-03-28T14:56:05.217Z</time></trkpt><trkpt lat="49.3224967" lon="11.0417983"><ele>339.0</ele><time>2026-03-28T14:56:06.219Z</time></trkpt><trkpt lat="49.32242" lon="11.04194"><ele>339.0</ele><time>2026-03-28T14:56:07.212Z</time></trkpt><trkpt lat="49.322335" lon="11.04209"><ele>339.0</ele><time>2026-03-28T14:56:08.218Z</time></trkpt><trkpt lat="49.3222433" lon="11.042245"><ele>339.0</ele><time>2026-03-28T14:56:09.217Z</time></trkpt><trkpt lat="49.322145" lon="11.0424067"><ele>339.0</ele><time>2026-03-28T14:56:10.21Z</time></trkpt><trkpt lat="49.3220417" lon="11.042575"><ele>339.0</ele><time>2026-03-28T14:56:11.215Z</time></trkpt><trkpt lat="49.3219317" lon="11.04275"><ele>340.3333333333333</ele><time>2026-03-28T14:56:12.21Z</time></trkpt><trkpt lat="49.3218217" lon="11.0429267"><ele>341.66666666666663</ele><time>2026-03-28T14:56:13.214Z</time></trkpt><trkpt lat="49.32171" lon="11.0431033"><ele>343.0</ele><time>2026-03-28T14:56:14.211Z</time></trkpt><trkpt lat="49.3215983" lon="11.0432783"><ele>342.66666666666663</ele><time>2026-03-28T14:56:15.217Z</time></trkpt><trkpt lat="49.3214883" lon="11.0434517"><ele>342.3333333333333</ele><time>2026-03-28T14:56:16.22Z</time></trkpt><trkpt lat="49.3213817" lon="11.0436233"><ele>342.0</ele><time>2026-03-28T14:56:17.207Z</time></trkpt><trkpt lat="49.3212783" lon="11.0437933"><ele>343.0</ele><time>2026-03-28T14:56:18.213Z</time></trkpt><trkpt lat="49.3211733" lon="11.04396"><ele>344.0</ele><time>2026-03-28T14:56:19.211Z</time></trkpt><trkpt lat="49.3210667" lon="11.0441283"><ele>345.0</ele><time>2026-03-28T14:56:20.212Z</time></trkpt><trkpt lat="49.3209617" lon="11.0442933"><ele>345.0</ele><time>2026-03-28T14:56:21.215Z</time></trkpt><trkpt lat="49.3208583" lon="11.04446"><ele>345.0</ele><time>2026-03-28T14:56:22.211Z</time></trkpt><trkpt lat="49.320755" lon="11.0446183"><ele>345.0</ele><time>2026-03-28T14:56:23.216Z</time></trkpt><trkpt lat="49.3206333" lon="11.0447767"><ele>347.0</ele><time>2026-03-28T14:56:24.211Z</time></trkpt><trkpt lat="49.3205067" lon="11.0449483"><ele>349.0</ele><time>2026-03-28T14:56:25.216Z</time></trkpt><trkpt lat="49.3203917" lon="11.04512"><ele>351.0</ele><time>2026-03-28T14:56:26.218Z</time></trkpt><trkpt lat="49.3202983" lon="11.0452733"><ele>351.1666666666667</ele><time>2026-03-28T14:56:27.204Z</time></trkpt><trkpt lat="49.3202267" lon="11.04539"><ele>351.3333333333333</ele><time>2026-03-28T14:56:28.216Z</time></trkpt><trkpt lat="49.3201817" lon="11.0454667"><ele>351.5</ele><time>2026-03-28T14:56:29.214Z</time></trkpt><trkpt lat="49.320125" lon="11.0455367"><ele>351.66666666666663</ele><time>2026-03-28T14:56:34.218Z</time></trkpt><trkpt lat="49.3200633" lon="11.04563"><ele>351.8333333333333</ele><time>2026-03-28T14:56:36.213Z</time></trkpt><trkpt lat="49.3199867" lon="11.0457683"><ele>352.0</ele><time>2026-03-28T14:56:38.213Z</time></trkpt><trkpt lat="49.31994" lon="11.04585"><ele>351.6</ele><time>2026-03-28T14:56:39.216Z</time></trkpt><trkpt lat="49.319885" lon="11.0459467"><ele>351.20000000000005</ele><time>2026-03-28T14:56:40.209Z</time></trkpt><trkpt lat="49.319825" lon="11.04605"><ele>350.8</ele><time>2026-03-28T14:56:41.222Z</time></trkpt><trkpt lat="49.31976" lon="11.04616"><ele>350.4</ele><time>2026-03-28T14:56:42.218Z</time></trkpt><trkpt lat="49.3196983" lon="11.0462733"><ele>350.0</ele><time>2026-03-28T14:56:43.214Z</time></trkpt><trkpt lat="49.3196367" lon="11.04639"><ele>350.0</ele><time>2026-03-28T14:56:44.214Z</time></trkpt><trkpt lat="49.3195733" lon="11.046515"><ele>350.0</ele><time>2026-03-28T14:56:45.215Z</time></trkpt><trkpt lat="49.3195067" lon="11.0466433"><ele>350.0</ele><time>2026-03-28T14:56:46.222Z</time></trkpt><trkpt lat="49.3194383" lon="11.0467717"><ele>350.0</ele><time>2026-03-28T14:56:47.216Z</time></trkpt><trkpt lat="49.3193717" lon="11.0468933"><ele>350.0</ele><time>2026-03-28T14:56:48.214Z</time></trkpt><trkpt lat="49.31931" lon="11.04701"><ele>350.0</ele><time>2026-03-28T14:56:49.222Z</time></trkpt><trkpt lat="49.3192567" lon="11.04712"><ele>350.0</ele><time>2026-03-28T14:56:50.213Z</time></trkpt><trkpt lat="49.319205" lon="11.04722"><ele>350.0</ele><time>2026-03-28T14:56:51.219Z</time></trkpt><trkpt lat="49.3191567" lon="11.047305"><ele>350.0</ele><time>2026-03-28T14:56:52.216Z</time></trkpt><trkpt lat="49.3190883" lon="11.047395"><ele>350.0</ele><time>2026-03-28T14:56:54.22Z</time></trkpt><trkpt lat="49.31903" lon="11.0473583"><ele>350.0</ele><time>2026-03-28T14:57:37.208Z</time></trkpt><trkpt lat="49.318945" lon="11.0472733"><ele>350.0</ele><time>2026-03-28T14:57:39.212Z</time></trkpt><trkpt lat="49.3188983" lon="11.0471933"><ele>350.0</ele><time>2026-03-28T14:57:40.218Z</time></trkpt><trkpt lat="49.318855" lon="11.0470967"><ele>350.0</ele><time>2026-03-28T14:57:41.215Z</time></trkpt><trkpt lat="49.3188117" lon="11.0469967"><ele>350.0</ele><time>2026-03-28T14:57:42.208Z</time></trkpt><trkpt lat="49.318765" lon="11.0469"><ele>350.0</ele><time>2026-03-28T14:57:43.215Z</time></trkpt><trkpt lat="49.318715" lon="11.0468117"><ele>350.0</ele><time>2026-03-28T14:57:44.217Z</time></trkpt><trkpt lat="49.3186617" lon="11.0467333"><ele>350.0</ele><time>2026-03-28T14:57:45.206Z</time></trkpt><trkpt lat="49.3186117" lon="11.0466567"><ele>350.0</ele><time>2026-03-28T14:57:46.216Z</time></trkpt><trkpt lat="49.3185717" lon="11.0465717"><ele>350.0</ele><time>2026-03-28T14:57:47.214Z</time></trkpt><trkpt lat="49.31853" lon="11.0464067"><ele>350.0</ele><time>2026-03-28T14:57:49.214Z</time></trkpt><trkpt lat="49.3184933" lon="11.0462483"><ele>350.0</ele><time>2026-03-28T14:57:51.213Z</time></trkpt><trkpt lat="49.3184567" lon="11.0461117"><ele>350.0</ele><time>2026-03-28T14:57:53.218Z</time></trkpt><trkpt lat="49.31841" lon="11.0460067"><ele>350.0</ele><time>2026-03-28T14:57:55.215Z</time></trkpt><trkpt lat="49.3183517" lon="11.0459683"><ele>350.0</ele><time>2026-03-28T14:57:57.214Z</time></trkpt><trkpt lat="49.318285" lon="11.046"><ele>350.0</ele><time>2026-03-28T14:57:59.22Z</time></trkpt><trkpt lat="49.3182183" lon="11.0460783"><ele>350.0</ele><time>2026-03-28T14:58:01.21Z</time></trkpt><trkpt lat="49.3181833" lon="11.0461733"><ele>350.0</ele><time>2026-03-28T14:58:03.214Z</time></trkpt><trkpt lat="49.3182267" lon="11.0462883"><ele>350.0</ele><time>2026-03-28T14:58:05.211Z</time></trkpt><trkpt lat="49.3182833" lon="11.0463583"><ele>350.0</ele><time>2026-03-28T14:58:06.21Z</time></trkpt><trkpt lat="49.3183583" lon="11.0464367"><ele>350.0</ele><time>2026-03-28T14:58:07.207Z</time></trkpt><trkpt lat="49.3184383" lon="11.046525"><ele>350.0</ele><time>2026-03-28T14:58:08.217Z</time></trkpt><trkpt lat="49.3185117" lon="11.0466133"><ele>350.0</ele><time>2026-03-28T14:58:09.221Z</time></trkpt><trkpt lat="49.3185783" lon="11.0467033"><ele>350.0</ele><time>2026-03-28T14:58:10.214Z</time></trkpt><trkpt lat="49.3186367" lon="11.0467867"><ele>350.0</ele><time>2026-03-28T14:58:11.215Z</time></trkpt><trkpt lat="49.3186883" lon="11.0468683"><ele>350.0</ele><time>2026-03-28T14:58:12.211Z</time></trkpt><trkpt lat="49.3187333" lon="11.0469483"><ele>350.0</ele><time>2026-03-28T14:58:13.215Z</time></trkpt><trkpt lat="49.318805" lon="11.047095"><ele>350.0</ele><time>2026-03-28T14:58:15.216Z</time></trkpt><trkpt lat="49.318855" lon="11.0472383"><ele>350.0</ele><time>2026-03-28T14:58:17.216Z</time></trkpt><trkpt lat="49.3188933" lon="11.0473383"><ele>350.0</ele><time>2026-03-28T14:58:19.22Z</time></trkpt></trkseg></trk></gpx>